GFSSE_700_rhum_000.txt.gz
RH
33 32 31 29 29 23 10 5 4 4 3 3 3 3 3 2 2 3 4 5 6 6 7 8 9 9 8 8 8 8 8 8 9 9 7 8 9 10 11 11 10 10 12
37 35 33 30 30 29 16 6 5 5 3 2 3 3 2 2 2 3 4 6 6 7 7 8 9 9 9 10 9 8 8 9 9 7 7 9 11 11 11 11 10 10 10
36 35 34 33 32 32 31 13 6 5 5 4 2 2 2 2 2 4 5 6 7 6 7 8 8 9 10 9 8 8 9 9 8 7 9 11 11 11 11 11 10 10 11
38 38 36 35 35 34 34 36 17 7 5 5 5 4 4 3 4 5 7 7 7 8 8 9 9 10 9 9 9 9 10 9 7 8 10 11 12 11 11 11 10 10 11
40 39 38 38 40 40 38 38 40 31 14 6 5 5 5 5 5 6 8 8 8 9 8 9 9 8 8 9 9 9 10 10 8 9 10 11 12 11 11 11 11 10 10
39 41 41 40 40 41 42 42 41 39 37 31 16 6 5 5 5 6 6 7 8 8 8 8 7 7 8 9 8 8 9 9 9 10 11 12 12 12 12 11 11 11 10
39 40 42 42 41 40 39 39 41 42 41 37 33 28 16 7 5 5 6 6 6 7 7 6 6 6 7 8 7 8 8 10 10 10 11 11 12 13 13 13 12 12 12
40 40 41 41 41 41 39 38 38 40 40 40 39 36 30 26 17 10 6 5 5 6 6 6 6 7 7 8 9 10 11 11 11 11 12 12 12 13 14 14 14 14 14
41 40 42 41 40 41 41 40 40 38 36 35 34 35 35 32 26 21 16 12 10 8 8 8 9 10 12 13 14 14 15 15 14 13 12 13 14 14 15 15 15 15 15
41 40 40 42 41 41 41 42 42 38 33 28 27 27 30 32 30 25 22 19 16 15 14 14 15 17 18 18 18 18 18 17 16 16 17 17 18 18 18 18 18 17 16
39 39 41 41 40 40 42 44 42 37 28 23 16 17 24 29 31 28 25 24 24 25 26 27 28 27 26 27 26 27 30 30 27 29 26 23 21 20 19 19 19 20 20
40 40 41 41 41 42 43 44 40 32 28 21 19 19 23 28 28 31 32 31 32 32 33 34 35 35 37 38 41 34 31 34 32 32 33 40 41 44 46 44 41 37 32
41 42 42 42 42 43 43 42 33 30 33 24 23 23 25 28 31 36 41 42 40 40 42 44 44 42 40 37 36 37 38 33 34 37 38 40 43 44 46 46 46 46 44
44 43 40 42 42 42 41 38 33 35 36 31 25 27 27 29 35 41 48 47 47 44 45 46 44 40 36 33 29 27 28 31 32 34 33 36 38 42 42 43 41 42 46
44 44 43 42 41 40 39 37 36 39 38 34 26 28 28 29 35 37 42 50 60 43 45 43 38 38 38 36 33 31 29 30 32 35 36 36 37 40 40 39 40 41 42
44 46 47 38 38 40 39 38 39 39 37 34 28 29 29 29 31 36 43 45 46 47 48 44 41 37 32 29 27 25 27 30 32 32 36 34 34 32 32 32 32 31 31
46 47 40 30 37 39 38 39 38 35 35 35 31 30 27 30 32 32 36 44 45 44 43 38 33 30 27 27 28 31 33 34 35 35 35 34 34 34 31 29 28 45 46
35 31 23 28 40 39 38 34 32 32 34 34 30 28 31 33 31 32 35 37 36 36 33 29 27 27 30 33 36 37 34 28 21 18 21 19 16 14 20 26 44 58 52
22 18 23 38 40 38 35 30 30 30 30 30 30 32 35 38 34 30 28 30 29 28 29 30 32 35 38 37 28 14 12 10 8 9 7 8 10 13 17 23 54 35 31
22 34 40 39 38 33 30 30 28 27 28 29 31 34 33 32 30 30 31 31 32 33 34 38 40 37 21 9 7 5 6 6 8 8 10 11 14 16 14 20 27 19 15
39 39 38 37 31 29 28 29 30 30 30 30 29 30 30 31 32 32 34 36 38 41 39 28 14 9 7 7 6 6 6 7 8 9 10 11 13 12 11 8 8 10 13
38 37 35 31 30 30 31 32 32 32 32 32 32 33 34 36 39 41 40 36 27 18 13 9 6 5 5 6 6 6 5 5 7 5 5 5 6 4 4 4 3 3 3
36 34 31 31 32 34 34 32 29 29 30 33 38 42 44 42 35 28 22 14 8 7 7 5 5 5 6 6 7 8 7 6 5 5 4 4 4 4 4 4 5 5 5
34 32 33 34 34 31 25 25 30 36 44 47 48 45 41 34 25 13 6 8 10 8 6 5 6 6 7 8 8 8 10 10 8 5 5 5 5 4 5 5 6 6 5
34 33 35 34 31 26 32 33 36 45 49 50 50 44 34 21 7 7 10 10 9 6 5 6 7 8 9 9 10 10 10 8 6 6 6 6 6 6 6 6 6 5 4
34 35 35 33 30 35 37 38 40 45 51 52 47 39 25 9 6 10 11 10 8 6 7 8 9 10 10 10 11 11 9 7 7 8 8 8 8 8 7 7 5 4 4

GFSSE_700_rhum_003.txt.gz
RH
36 34 32 31 29 28 24 12 6 5 4 2 3 3 3 2 2 2 3 4 5 6 6 7 8 9 9 9 9 9 8 8 8 9 9 8 7 9 10 11 12 11 11
35 34 32 32 31 30 31 23 9 5 5 4 2 2 3 2 2 2 3 5 6 6 7 8 9 9 9 9 10 9 8 8 9 10 8 7 9 11 11 11 12 11 10
37 37 35 33 34 35 34 36 30 11 6 5 5 3 2 2 2 2 4 6 7 7 7 7 8 8 9 11 10 9 8 9 10 9 8 8 10 12 11 11 11 11 10
39 39 37 34 35 38 39 38 38 39 29 11 5 5 5 4 4 4 6 7 7 7 8 8 9 10 10 9 9 8 8 9 10 9 8 9 10 12 12 11 11 11 11
39 39 38 35 37 38 37 39 40 40 39 37 29 12 5 5 5 6 7 7 8 8 8 9 9 9 8 7 8 8 8 8 9 9 8 9 10 11 12 12 12 12 12
40 39 38 36 37 38 35 35 36 37 38 40 39 34 28 14 5 5 6 6 7 7 8 8 8 7 6 7 8 8 7 7 9 9 9 10 10 11 12 12 12 12 13
40 39 38 38 38 38 37 37 36 35 33 33 34 36 36 30 26 20 13 6 6 6 6 6 6 6 7 7 7 8 9 11 11 11 11 11 11 12 12 13 13 13 14
40 40 40 40 40 40 38 38 38 34 31 26 25 26 29 32 31 26 23 20 14 11 9 9 9 10 11 12 13 14 14 14 14 15 14 14 14 13 13 14 14 14 14
39 41 41 40 41 40 40 40 40 33 26 23 20 14 15 22 28 27 24 21 19 18 17 16 16 17 18 19 19 19 19 19 18 17 17 18 19 20 21 20 19 18 17
39 41 40 41 42 40 40 42 40 32 23 24 18 16 14 19 23 24 23 24 25 26 27 29 29 28 29 28 26 25 25 26 26 26 30 35 33 30 26 23 22 20 20
40 39 38 41 41 40 41 42 39 31 26 26 18 20 21 19 19 25 24 26 26 28 29 32 34 34 34 34 35 35 36 38 36 37 40 43 42 40 37 39 40 38 36
39 38 40 41 41 41 42 40 37 30 30 32 21 22 23 22 23 26 26 26 26 29 31 34 36 38 38 37 37 35 33 31 31 31 33 36 35 36 38 39 42 43 42
40 40 42 43 42 42 42 39 37 33 33 34 28 23 25 23 24 26 31 35 34 36 41 40 43 37 29 25 24 25 25 26 25 25 26 29 34 38 42 41 42 41 42
42 42 45 44 44 44 41 38 37 36 34 35 32 23 25 24 25 26 28 28 29 36 35 28 26 25 26 26 26 22 21 22 23 24 25 28 30 31 30 32 45 47 44
43 44 45 46 48 44 40 38 37 35 34 37 35 27 25 26 27 27 27 29 29 28 27 26 26 26 22 20 22 22 25 28 30 33 33 33 32 30 30 47 63 67 72
41 42 43 47 49 42 37 38 37 36 36 37 36 30 28 29 29 29 31 33 30 28 25 24 22 22 22 23 26 30 32 32 30 30 28 26 23 22 22 22 42 56 74
37 41 45 49 46 34 33 38 39 38 34 35 35 32 29 30 30 30 31 32 29 25 25 26 26 26 28 31 32 32 25 16 9 6 5 6 7 7 7 6 7 49 90
29 33 38 37 32 25 35 40 39 33 31 33 34 31 30 30 31 32 32 29 28 28 28 28 31 33 32 25 12 6 3 3 4 4 4 5 5 7 8 10 11 12 13
22 25 24 24 22 27 39 39 34 31 32 32 32 31 31 32 31 30 30 32 31 31 34 35 33 21 6 3 3 4 5 5 5 5 6 6 8 8 8 8 10 12 12
20 20 23 23 33 39 39 34 30 30 28 29 30 31 30 30 31 32 33 35 37 38 33 21 8 4 4 5 5 5 5 5 5 5 5 6 5 5 5 6 7 7 6
23 26 37 42 40 39 32 28 28 31 31 31 30 29 31 32 34 38 41 40 31 18 8 2 5 6 5 5 5 5 4 5 5 6 5 5 5 4 4 4 3 3 3
42 41 41 40 36 31 30 31 32 33 33 32 32 32 36 42 44 41 32 22 9 2 6 8 7 6 5 5 4 5 6 7 6 6 5 5 5 4 5 5 5 5 5
41 40 38 34 31 31 33 34 32 28 28 32 39 46 48 46 41 30 16 3 5 9 9 7 5 5 5 5 6 7 7 8 7 7 5 5 5 6 6 7 7 7 7
40 37 34 32 33 34 32 25 26 34 40 46 50 51 49 42 30 12 3 6 10 10 8 6 6 6 6 6 7 8 9 10 9 7 7 7 8 8 9 9 10 10 10
38 34 33 34 34 31 26 35 38 41 43 46 50 50 43 30 16 5 6 8 10 9 8 7 7 7 7 8 9 9 9 9 9 10 9 10 11 11 12 12 13 12 11
36 34 34 35 32 31 37 41 43 44 46 48 44 35 24 14 8 5 6 8 9 9 8 8 8 9 9 10 11 11 12 10 9 9 10 10 11 12 12 12 13 12 11

GFSSE_700_rhum_006.txt.gz
RH
32 32 31 29 30 31 32 29 13 6 5 4 2 3 3 3 3 3 3 3 4 5 6 6 6 7 7 7 8 8 8 8 8 8 9 9 8 8 10 11 11 12 12
33 35 33 33 33 34 33 33 36 26 10 5 5 3 2 2 3 2 3 4 5 6 6 6 7 7 8 8 9 10 8 8 8 10 10 9 8 10 11 12 11 12 12
36 38 35 35 35 35 37 37 36 37 37 26 9 5 5 4 2 2 3 4 6 6 6 6 7 7 8 10 10 9 8 8 9 10 10 9 9 10 12 12 12 12 12
38 39 37 36 36 35 33 32 34 37 38 38 36 27 9 5 5 5 5 6 6 7 8 8 9 9 9 9 8 8 8 9 9 9 9 9 9 10 12 12 12 12 13
40 39 37 36 36 36 34 33 31 32 33 35 38 36 34 26 10 5 6 7 7 7 7 8 8 8 8 7 8 8 8 8 8 8 9 9 10 11 11 12 12 12 13
41 40 38 38 37 38 36 34 33 31 30 28 30 31 35 34 30 26 12 6 6 6 7 7 7 7 7 7 7 7 8 8 10 10 11 11 11 11 11 12 12 13 13
41 40 39 39 40 40 38 37 35 30 24 22 21 21 24 29 32 29 24 19 12 9 7 7 7 8 8 9 10 12 13 14 14 14 14 14 13 12 13 13 13 14 14
40 40 40 40 41 41 40 39 37 31 23 21 20 14 12 16 26 28 26 22 20 18 16 15 14 14 14 15 16 16 17 18 18 18 19 18 18 17 17 17 19 17 16
40 40 41 40 42 41 40 40 38 33 25 21 19 16 13 12 18 22 23 22 22 21 21 22 24 25 26 26 26 26 26 26 26 30 33 36 35 35 30 25 22 21 21
40 41 41 40 42 41 40 41 38 34 29 25 21 18 20 16 15 15 17 18 18 19 20 21 24 26 27 27 28 29 30 30 30 34 37 40 40 39 40 42 39 39 38
41 41 40 39 42 41 41 41 39 35 33 29 23 16 22 22 21 20 21 22 22 23 23 25 27 28 29 29 29 27 26 27 27 29 31 34 35 36 36 38 41 42 41
45 40 38 41 42 42 43 41 38 37 35 32 26 19 22 23 23 25 27 27 25 27 28 31 32 29 27 25 25 27 27 27 26 25 26 29 31 33 35 37 40 42 44
44 44 40 42 44 42 44 42 38 37 35 33 33 30 20 25 25 26 26 26 28 29 32 32 28 27 26 23 20 19 18 19 20 22 24 26 26 28 29 31 64 61 57
41 42 41 43 45 45 47 44 41 38 35 34 37 34 28 24 26 26 26 28 28 29 28 27 23 20 19 21 21 22 24 28 30 30 30 29 29 30 30 30 30 32 54
42 42 42 44 46 47 49 45 39 37 35 36 36 36 32 27 28 27 29 29 29 30 27 24 23 25 26 25 27 29 32 32 29 21 15 12 12 11 11 11 13 14 21
41 40 43 44 44 46 49 44 36 37 37 37 37 36 33 31 28 31 32 32 31 30 28 28 28 28 29 32 32 28 19 11 4 2 3 4 4 5 5 6 7 6 8
34 36 40 43 44 49 48 37 34 39 38 36 35 37 34 33 32 33 33 33 31 31 30 28 32 35 32 22 8 4 4 4 4 5 5 5 5 5 6 7 8 7 9
24 30 34 40 44 45 38 28 35 40 38 34 36 35 36 34 35 34 33 33 32 30 31 37 34 22 7 2 4 5 5 5 5 5 5 6 6 6 7 7 7 6 5
26 25 29 29 32 31 26 30 41 39 34 35 36 38 35 36 34 32 34 33 34 38 38 28 13 3 2 6 6 6 6 6 5 5 5 5 5 6 5 4 4 4 4
27 24 22 25 24 24 30 42 40 34 33 32 34 34 34 32 32 34 36 41 42 36 24 9 2 7 8 8 7 6 5 5 5 6 6 6 6 5 5 4 4 4 4
29 26 25 27 26 34 42 40 32 28 28 32 32 31 31 32 34 43 45 41 34 20 3 4 9 9 8 7 6 5 5 6 7 8 7 7 6 6 6 5 6 6 6
31 26 28 30 42 43 38 31 30 31 33 33 33 31 33 41 48 47 42 31 11 3 7 9 9 8 7 7 7 7 7 8 8 9 8 8 7 7 6 6 6 7 7
34 38 42 44 41 34 31 31 33 34 31 30 34 42 49 51 50 44 30 12 5 8 10 10 10 9 8 7 7 7 8 10 10 10 9 9 9 8 8 7 8 8 8
41 44 42 38 33 32 32 34 32 27 35 42 46 50 53 51 42 29 14 6 7 8 10 10 10 10 8 8 8 9 9 9 9 10 10 9 9 9 9 9 9 9 9
43 42 38 34 33 33 34 28 32 39 42 45 48 49 45 36 27 16 9 6 7 8 10 10 10 10 9 9 9 10 10 11 11 11 10 10 10 10 10 10 10 9 10
44 40 36 34 34 34 29 35 41 44 45 46 47 44 37 29 22 15 10 7 8 10 11 11 11 11 10 11 12 13 13 13 12 12 11 11 12 11 12 11 9 8 9

GFSSE_700_rhum_009.txt.gz
RH
32 30 30 28 29 31 32 35 36 26 11 5 5 4 2 3 3 3 3 3 4 5 6 6 6 7 7 7 7 8 8 8 8 8 9 10 9 9 10 11 12 12 12
32 32 32 31 32 33 34 36 36 36 36 28 12 6 6 4 2 2 3 3 5 6 6 6 7 7 8 8 9 10 9 8 8 9 10 10 10 9 10 12 12 12 12
34 35 35 33 33 32 31 30 32 34 36 37 36 28 11 6 5 4 3 4 5 6 6 6 6 7 8 9 10 10 9 8 9 9 10 10 10 9 10 11 12 12 13
36 37 37 36 34 34 32 31 30 30 30 32 35 36 34 25 8 6 6 7 7 7 7 8 8 9 9 9 8 8 8 9 9 9 8 8 9 9 10 11 12 12 12
39 40 38 37 36 36 35 33 31 27 25 24 25 28 33 33 30 18 6 6 7 7 7 8 8 8 8 8 8 7 8 8 8 8 8 8 9 10 10 11 12 12 12
41 41 39 38 39 39 37 35 33 27 21 20 20 19 22 28 32 29 25 14 7 7 6 7 7 7 7 7 7 7 8 9 10 11 12 12 12 12 12 12 12 12 13
40 41 40 40 41 40 39 37 35 29 24 21 17 14 12 16 25 30 26 23 18 14 11 9 8 9 9 10 11 12 13 14 15 15 16 16 16 16 15 14 14 15 15
40 40 40 41 42 41 40 39 36 32 28 24 19 16 14 11 13 21 24 24 22 20 19 18 18 18 19 19 19 21 23 24 24 24 24 24 23 21 20 20 19 19 19
40 40 41 42 42 42 40 40 37 34 32 29 22 18 19 16 14 13 13 15 17 16 18 19 21 22 23 24 24 24 26 27 29 30 31 32 33 32 30 30 30 29 27
41 40 41 42 42 42 41 40 39 36 35 33 26 19 21 22 20 19 19 18 20 21 20 22 22 24 26 28 26 26 25 25 27 27 28 30 32 33 34 36 36 36 37
42 40 41 42 41 42 42 42 40 37 34 33 30 25 19 24 23 24 25 27 28 29 28 30 31 29 28 26 25 25 25 26 25 25 26 26 26 26 28 37 55 57 53
46 44 42 40 40 43 43 43 42 40 38 34 32 30 24 21 25 25 26 27 29 30 29 30 30 28 28 29 28 24 21 20 20 21 23 24 24 24 24 26 46 72 69
48 45 44 41 42 44 44 45 44 43 39 36 35 34 31 24 23 26 27 27 28 29 29 30 30 28 26 25 25 25 25 26 28 29 30 30 31 31 32 33 33 34 34
44 44 42 42 43 45 45 47 47 44 39 37 37 38 35 34 26 28 27 28 29 31 31 30 26 24 26 25 26 29 30 30 29 27 23 18 15 12 12 14 17 22 25
42 44 44 42 43 46 46 48 48 44 40 38 38 39 38 38 35 31 29 30 31 32 31 28 28 27 26 30 32 29 18 6 3 3 3 3 3 4 4 5 5 5 7
39 39 46 45 43 45 46 48 48 43 40 40 39 42 40 39 38 35 31 32 32 32 31 30 27 30 34 29 17 7 3 3 4 5 5 5 5 5 5 5 6 6 6
52 52 49 45 43 44 45 48 48 40 39 40 41 41 40 42 43 36 34 34 33 32 29 30 36 34 21 7 2 4 5 6 6 6 6 6 6 6 5 5 6 6 6
45 41 41 39 39 43 45 48 46 36 40 42 41 39 42 45 42 36 35 33 31 29 36 40 33 21 6 2 7 7 7 6 6 6 5 5 5 5 5 6 5 5 5
44 39 33 32 38 38 43 45 36 35 44 42 36 36 43 42 39 34 32 30 32 41 40 34 22 4 4 8 8 7 6 6 5 5 5 6 7 7 7 6 6 5 5
41 37 30 29 37 37 34 34 31 44 44 37 35 38 38 38 35 32 30 38 44 42 35 15 2 6 9 10 9 7 6 6 6 6 7 8 8 8 7 7 6 6 5
44 42 36 31 29 30 32 29 42 44 38 34 34 36 35 34 32 34 46 47 45 34 10 3 8 10 10 10 10 7 7 7 7 8 8 9 9 9 9 8 8 8 7
43 44 35 35 32 30 30 46 44 37 30 32 34 34 32 33 42 48 50 47 31 11 6 8 9 10 11 12 12 12 12 11 9 10 10 9 9 9 9 9 9 10 9
45 39 36 32 32 36 47 45 36 30 32 34 32 30 40 46 50 53 44 28 13 7 7 9 10 12 13 13 13 13 12 13 13 12 12 12 12 11 10 10 10 10 10
51 38 39 35 43 46 41 32 32 34 34 30 38 43 47 52 48 38 28 18 10 7 9 12 14 16 16 16 14 12 11 11 12 15 16 14 12 12 11 10 10 10 10
53 42 45 45 44 37 33 33 34 31 34 41 43 47 47 44 38 30 23 16 12 11 13 16 18 18 18 16 14 13 12 13 14 14 15 14 12 9 8 8 7 8 9
55 44 46 43 37 34 33 34 30 37 43 45 45 47 47 45 42 38 31 22 16 15 16 18 19 19 18 15 13 13 14 14 14 13 13 11 9 7 7 6 6 7 8

GFSSE_700_rhum_012.txt.gz
RH
32 30 30 29 28 29 31 33 34 35 33 22 8 6 5 3 3 3 3 3 4 5 6 6 7 7 8 8 8 8 8 8 8 8 9 9 10 9 8 10 11 12 12
32 33 33 32 30 30 30 31 34 35 35 35 34 20 6 6 4 2 3 4 4 6 6 6 7 8 8 9 9 9 10 10 9 9 9 10 10 10 9 9 11 12 12
35 33 34 33 32 31 30 29 28 28 29 32 35 35 32 12 6 6 4 4 5 6 7 7 7 7 8 8 9 10 10 9 9 9 9 10 10 9 9 9 10 11 12
36 35 37 34 33 34 32 30 26 22 22 23 26 31 34 32 19 6 6 7 7 7 8 8 8 9 9 9 9 9 8 8 8 9 9 8 8 8 8 9 10 11 12
39 40 39 37 36 35 34 33 29 23 20 19 19 19 26 33 31 24 10 6 7 7 8 8 8 8 8 8 8 8 7 7 7 7 8 8 8 9 9 9 10 10 11
39 40 40 39 40 39 36 35 32 27 26 22 16 14 12 18 29 30 27 20 12 8 7 7 7 7 7 8 8 8 8 9 9 10 11 12 13 13 12 12 12 11 12
40 40 41 41 42 41 38 37 34 30 30 27 21 16 14 11 16 27 28 24 20 17 16 14 14 13 12 12 13 14 15 16 17 17 18 17 17 16 16 16 16 15 14
41 41 41 41 42 42 40 38 36 33 32 31 25 18 18 15 12 14 22 23 22 21 20 20 21 21 22 23 24 25 24 23 21 20 21 21 21 22 22 21 20 19 18
41 41 41 42 42 43 41 39 38 36 34 33 29 23 21 21 19 16 16 16 17 18 18 20 20 19 20 21 22 24 25 25 25 25 24 26 25 25 26 28 28 28 28
42 41 41 42 43 43 42 41 40 37 35 34 31 29 22 24 25 25 26 26 27 27 28 29 29 29 29 28 28 26 25 26 26 25 26 26 24 24 23 26 37 46 36
46 42 41 42 43 43 43 42 42 41 40 37 34 32 29 23 25 26 28 30 31 31 32 33 35 31 29 28 26 25 24 23 22 21 22 22 22 23 23 24 32 56 80
47 42 42 43 43 42 44 44 44 43 42 39 36 34 33 31 25 27 29 29 31 31 31 32 31 30 26 24 23 24 24 23 24 24 26 28 30 31 31 32 32 32 34
48 48 45 42 42 41 44 45 45 45 44 41 38 37 36 35 33 25 29 30 31 32 32 33 31 31 28 27 27 26 27 29 30 30 29 28 29 30 30 30 33 32 33
48 47 47 44 43 44 45 46 46 47 45 42 40 39 39 38 36 35 32 31 32 34 34 33 30 29 28 25 26 30 30 27 17 10 6 4 5 5 4 4 4 6 11
40 45 45 45 44 45 47 47 47 48 47 45 43 41 41 42 41 42 38 34 34 34 33 31 30 28 26 31 32 22 10 3 2 4 5 5 5 6 5 5 6 6 6
51 45 46 47 48 47 45 48 48 49 49 47 44 43 43 43 42 45 41 36 34 34 33 30 27 30 34 30 18 5 2 5 6 6 6 6 6 6 6 6 6 6 6
47 47 50 49 50 50 48 44 48 49 50 48 46 45 45 44 44 44 42 38 36 33 30 27 36 36 30 17 2 4 8 8 8 7 7 6 6 5 5 5 5 5 6
38 40 51 52 49 49 46 46 52 56 55 51 46 47 47 43 43 44 42 39 34 30 34 40 39 32 15 2 7 9 9 9 8 7 6 6 6 7 7 8 8 7 7
38 46 47 48 42 45 46 45 49 53 55 46 45 48 43 40 44 47 40 34 32 40 42 40 33 10 2 7 9 10 10 9 8 8 7 7 8 8 8 9 9 8 8
40 51 49 37 37 36 38 45 45 50 47 40 49 45 37 42 43 38 33 33 44 44 41 34 11 4 8 10 11 11 11 11 10 10 9 8 8 9 9 9 9 9 9
44 46 41 43 42 38 36 38 41 40 38 50 46 38 41 43 37 33 39 46 46 42 32 10 6 8 10 11 12 13 13 13 13 12 11 11 11 11 10 10 10 10 10
50 44 42 43 45 39 40 38 41 40 48 47 39 39 41 36 34 46 48 45 39 25 11 7 7 10 13 17 18 19 18 16 15 14 14 13 12 13 13 13 12 12 12
46 49 45 45 42 42 42 41 44 46 48 38 36 38 34 40 47 46 42 32 24 17 10 9 11 15 18 20 20 20 18 17 17 16 15 14 15 15 15 13 13 12 11
49 49 51 45 42 39 40 41 50 49 35 35 35 34 44 47 44 39 32 27 21 15 12 13 16 19 21 22 22 21 20 19 18 17 17 18 17 15 14 12 10 9 8
52 52 53 45 45 36 44 50 44 34 33 34 38 44 47 46 43 43 45 41 32 24 20 17 18 21 23 24 24 22 20 18 16 16 18 16 14 12 10 8 7 6 6
53 54 55 47 48 48 46 38 33 34 34 40 45 46 49 50 52 54 54 52 47 39 30 21 18 21 24 24 22 20 19 18 17 15 14 13 11 8 7 6 6 6 7

GFSSE_700_rhum_015.txt.gz
RH
33 31 31 31 29 28 29 31 32 33 33 32 21 7 6 4 2 3 4 3 4 4 6 6 7 7 7 7 7 7 8 8 9 9 9 9 9 10 10 8 8 10 11
33 34 34 32 30 29 28 27 28 30 32 34 34 32 12 6 5 3 3 3 4 6 6 7 7 8 8 8 9 9 9 9 10 9 9 9 10 10 10 9 9 9 11
36 35 34 33 31 31 30 26 23 22 23 25 29 33 33 19 6 6 4 4 5 6 7 7 7 7 8 8 9 9 10 11 10 10 10 10 10 10 9 8 8 8 10
37 36 37 35 32 32 32 30 24 21 19 18 19 23 32 32 24 7 7 7 7 7 8 8 8 9 9 10 10 10 10 9 9 9 9 9 9 8 8 8 8 8 9
39 39 39 38 36 36 33 32 29 28 26 21 16 14 17 30 31 26 10 7 8 8 8 8 8 8 8 9 9 9 8 8 8 7 7 7 7 8 8 9 9 10 10
43 40 40 39 39 39 36 33 31 30 30 27 20 16 12 14 30 29 25 19 12 8 8 7 7 7 7 7 8 8 8 8 8 9 10 12 13 13 14 14 13 13 12
42 41 40 41 42 42 38 36 34 32 32 30 26 18 17 13 11 24 27 23 21 18 18 18 18 17 17 16 16 17 17 19 18 19 19 19 19 19 18 18 17 16 16
41 41 41 41 42 43 41 39 37 35 33 31 29 24 20 20 16 12 17 22 23 22 21 20 21 21 21 21 21 21 20 22 20 21 20 20 21 22 24 24 24 24 23
42 42 41 41 43 44 43 41 40 37 34 33 31 29 24 22 22 21 20 20 21 22 23 24 24 25 26 28 29 28 27 25 24 25 24 24 24 24 26 27 27 35 35
41 41 41 41 42 43 44 42 42 39 38 38 35 32 31 25 24 26 27 28 29 31 32 34 35 36 34 31 28 27 27 25 24 24 22 21 20 20 21 22 22 28 82
47 43 42 42 42 43 44 43 43 42 41 40 37 35 34 33 28 26 29 29 31 32 32 33 33 33 31 30 27 24 23 21 21 21 21 21 22 23 24 25 26 26 29
47 44 43 43 43 44 44 44 44 44 43 43 40 38 37 37 36 32 30 31 31 31 32 33 33 32 30 27 25 26 26 26 25 25 26 27 29 31 32 31 30 29 31
51 48 43 43 44 44 44 44 45 45 46 44 43 40 39 39 39 37 36 33 32 32 33 33 33 34 32 30 29 28 27 30 31 30 27 19 14 14 15 14 14 14 18
49 48 48 45 43 43 44 44 46 46 47 47 45 44 42 41 42 40 40 35 34 33 34 34 34 33 32 28 28 32 31 24 12 4 2 3 4 4 5 5 5 6 6
39 44 48 47 46 44 44 47 48 48 48 49 48 46 46 44 43 42 41 39 39 35 34 34 33 31 29 32 34 28 18 5 2 6 7 7 6 6 6 6 6 6 6
48 44 46 48 49 50 47 46 47 50 49 50 51 50 48 47 45 44 42 42 41 38 36 33 29 32 39 35 30 17 3 6 8 8 8 8 7 6 6 6 5 5 6
48 48 45 45 48 52 52 52 50 46 50 52 53 55 50 49 48 46 43 44 41 37 33 30 38 40 37 25 8 2 7 9 10 10 9 8 8 8 8 8 8 8 8
49 45 41 40 41 51 54 53 52 49 49 53 57 58 54 51 50 45 43 44 39 34 31 41 41 38 21 4 4 8 10 11 11 11 11 10 10 10 10 9 9 9 9
53 46 42 38 41 50 52 50 52 51 51 56 56 59 50 51 49 42 46 43 36 32 42 42 38 23 6 7 9 10 11 12 14 14 14 14 13 12 11 10 10 10 10
55 49 46 42 55 54 50 46 47 50 51 49 56 55 49 52 42 45 47 36 34 43 42 35 22 7 6 9 11 13 16 17 17 17 16 15 14 13 12 12 12 12 12
55 51 48 49 57 52 38 38 40 44 49 49 52 48 54 43 43 44 36 38 45 41 31 21 11 8 8 11 15 18 20 19 19 18 16 16 16 15 14 14 14 14 14
53 59 48 56 46 44 44 42 43 44 47 50 49 51 46 42 42 34 41 45 39 28 21 15 13 10 11 16 19 20 20 20 20 20 19 18 17 16 16 16 16 15 15
60 58 51 48 44 44 47 41 43 47 47 50 53 49 42 42 35 43 44 37 31 26 25 22 17 15 16 19 22 23 22 22 22 20 20 20 19 18 17 16 15 14 13
60 57 51 47 48 48 47 42 45 50 52 58 51 44 41 36 45 43 41 46 51 50 46 37 26 18 17 20 24 26 26 25 23 20 19 20 19 17 15 14 12 10 8
60 57 49 50 52 48 42 42 45 52 59 46 40 39 37 45 44 46 50 51 52 52 52 51 44 26 15 16 22 25 25 24 23 23 21 20 17 14 12 10 7 7 7
58 55 50 52 54 48 45 40 48 56 46 35 36 40 46 46 47 48 50 54 57 58 55 52 52 35 11 11 18 24 24 24 24 22 19 16 14 11 8 7 8 9 9

GFSSE_700_rhum_018.txt.gz
RH
32 31 32 31 29 28 26 26 28 30 32 33 30 13 6 5 2 3 3 3 4 4 6 6 6 7 7 6 5 6 7 7 8 8 9 10 9 9 10 11 10 8 9
33 34 34 31 30 29 27 25 23 23 25 30 33 33 21 6 5 3 3 3 4 6 6 7 7 7 8 8 8 8 8 8 9 10 10 10 10 10 10 10 10 9 9
35 36 35 33 31 30 29 26 21 18 18 19 23 32 33 25 6 5 3 4 5 6 7 7 7 7 8 8 9 9 9 10 10 11 10 10 10 10 10 10 9 8 8
37 37 36 35 33 32 31 29 27 27 26 20 15 16 26 32 26 7 6 6 6 7 7 8 8 9 9 9 10 10 10 10 10 10 9 9 9 9 8 8 7 7 8
39 38 38 37 36 36 34 32 29 30 29 26 19 14 12 22 31 22 9 7 8 8 8 8 8 8 9 9 9 9 9 9 8 8 8 7 7 7 8 9 10 10 10
42 44 41 38 38 39 37 34 32 31 31 29 25 17 14 13 26 29 23 15 10 8 8 7 7 7 8 7 8 8 8 8 8 9 10 12 14 14 14 15 15 15 14
45 44 41 40 40 41 39 37 35 34 32 29 28 23 18 15 13 24 26 24 20 19 18 18 18 18 18 18 18 19 19 20 22 22 22 21 20 20 18 19 20 18 17
42 42 41 41 41 42 42 40 38 36 33 30 29 28 22 20 18 14 15 18 20 21 20 19 18 19 20 20 20 20 21 20 21 22 23 24 25 25 26 26 27 26 26
43 42 42 41 41 42 43 41 40 38 36 36 34 31 29 24 22 23 23 23 23 24 24 26 27 27 28 28 29 29 28 26 25 26 26 25 25 26 25 25 25 28 61
42 42 42 42 42 43 43 43 42 41 39 39 37 35 33 32 27 24 27 29 29 28 29 31 33 33 36 32 29 29 28 27 25 24 21 20 20 19 19 20 20 20 21
45 43 42 43 43 44 44 44 42 43 42 42 40 38 36 35 34 31 27 29 29 29 29 30 30 31 31 31 28 26 24 24 23 24 24 25 25 25 26 26 25 27 28
50 48 46 43 44 44 44 45 44 43 44 44 43 40 38 38 38 37 35 31 31 32 31 32 32 33 34 32 30 30 29 28 25 26 25 28 29 27 25 22 24 27 27
53 51 45 44 44 49 46 45 44 44 45 45 45 44 42 40 40 40 38 38 36 35 34 33 34 34 35 34 32 30 27 27 30 30 22 14 6 3 3 4 4 4 4
51 51 50 46 44 53 57 46 44 44 46 46 47 47 46 44 42 42 42 40 40 39 36 34 34 34 34 31 29 32 34 30 20 7 2 4 6 6 6 6 6 6 6
47 49 49 48 48 46 46 46 48 48 47 47 48 49 49 47 46 44 44 42 42 41 38 35 35 33 29 29 36 35 29 16 3 6 8 8 8 8 7 7 6 6 6
41 46 47 49 50 49 48 51 48 47 51 49 49 50 51 51 49 48 46 44 43 44 41 38 34 29 33 37 36 27 9 4 8 9 9 9 9 9 9 10 10 10 10
42 48 48 50 49 49 51 52 52 50 50 48 50 52 52 56 55 51 48 46 44 44 42 35 29 37 39 36 26 4 5 8 10 11 11 12 12 14 14 14 13 12 11
47 47 49 47 46 44 47 51 52 52 52 50 48 49 54 58 59 52 51 46 44 46 38 31 38 38 34 22 7 7 9 11 12 13 15 16 16 16 15 15 14 13 13
49 50 50 50 49 43 44 49 54 52 52 51 49 50 55 56 58 50 51 44 47 41 33 40 38 29 17 7 7 10 12 14 17 18 18 17 17 16 16 16 15 15 14
49 50 50 48 47 45 45 49 55 54 49 48 48 50 51 55 52 52 45 48 47 34 41 36 24 16 10 8 9 13 16 19 20 19 19 19 19 19 18 17 17 16 16
42 47 50 51 46 46 51 58 56 55 46 43 44 49 50 53 48 49 47 49 35 43 34 24 18 14 11 11 13 16 20 21 22 21 21 21 20 20 19 19 18 18 18
36 40 49 54 47 46 57 63 61 50 47 42 44 53 53 47 54 48 49 36 44 35 30 32 32 25 19 16 16 19 22 23 24 24 23 22 22 21 20 20 19 18 17
32 36 40 50 44 47 59 52 49 53 53 45 45 52 54 58 52 50 38 45 38 43 48 48 48 47 40 26 17 16 19 22 25 24 24 23 22 22 20 18 16 15 14
28 30 34 51 47 48 53 48 53 52 48 50 55 73 62 57 58 40 46 42 48 47 48 50 50 49 48 41 20 11 13 18 21 21 20 21 21 20 18 15 14 12 9
34 31 33 59 55 52 47 48 57 52 51 56 62 58 63 57 46 47 45 49 48 52 54 56 56 57 54 52 29 10 10 15 21 23 23 23 21 18 16 14 10 8 8
33 36 41 59 57 48 49 50 48 46 53 65 54 56 49 46 46 47 48 49 54 57 58 58 58 58 59 55 36 18 14 20 25 25 24 21 18 16 13 9 8 10 11

GFSSE_700_rhum_021.txt.gz
RH
33 32 31 32 30 27 27 25 23 25 27 28 29 28 13 6 3 2 3 3 5 4 4 5 6 6 6 5 4 4 5 7 7 8 8 9 10 10 9 10 11 10 9
33 32 34 32 29 27 28 25 21 19 19 21 25 30 31 16 6 3 3 3 4 5 6 6 7 7 8 8 7 6 7 8 8 9 9 10 10 10 10 10 10 10 10
34 34 34 31 29 29 29 28 24 24 22 17 16 19 27 31 17 6 3 4 5 6 7 7 7 8 8 8 9 9 9 9 10 10 10 10 10 10 10 10 10 9 9
35 36 34 33 32 32 30 29 28 28 28 25 17 13 14 24 30 17 6 6 6 6 7 7 8 8 8 9 9 9 10 10 10 10 10 10 9 9 9 8 8 8 8
38 38 37 37 36 35 34 32 30 29 29 28 24 16 12 12 26 28 15 7 7 8 8 8 8 9 9 9 9 9 10 9 9 9 9 8 8 8 9 10 10 11 12
40 40 41 41 38 38 37 35 33 33 32 29 27 22 17 13 15 27 25 18 12 8 8 8 8 8 8 8 8 8 8 8 8 9 10 12 13 16 17 17 18 18 16
40 41 45 41 40 40 39 38 36 36 34 30 27 26 21 18 13 18 24 25 22 21 20 19 19 19 20 19 20 20 21 21 21 20 20 19 17 17 16 17 17 19 18
43 44 44 41 41 41 42 40 39 38 35 34 33 28 27 22 20 17 13 14 15 16 16 16 16 18 18 19 18 19 20 22 22 23 24 24 24 24 24 24 23 24 24
43 44 42 42 42 42 42 42 40 40 38 37 37 34 30 29 25 22 24 24 25 25 26 26 26 28 29 29 29 28 28 27 26 25 24 22 21 21 21 21 21 21 22
43 42 42 42 43 43 43 43 42 41 40 40 40 37 35 32 31 29 24 26 27 28 28 28 28 28 28 29 29 28 27 26 23 22 21 21 21 22 22 21 21 22 22
43 42 43 43 43 48 43 44 43 42 42 42 42 41 39 36 34 33 32 29 26 28 29 29 30 30 30 30 30 28 27 26 26 26 24 25 25 25 25 25 27 26 26
49 46 46 44 43 43 44 44 44 44 43 44 44 44 43 40 38 36 36 35 33 30 31 32 32 33 32 31 30 30 29 28 26 25 22 28 28 25 16 8 4 3 4
51 51 49 47 45 44 45 48 45 46 44 44 45 46 46 45 43 40 39 39 37 37 36 35 34 34 34 33 32 29 27 26 30 30 26 18 8 2 2 5 6 6 6
45 50 52 50 46 45 45 48 53 45 45 45 45 46 48 48 47 45 43 42 41 40 39 38 36 35 34 32 28 26 31 34 31 25 15 4 6 8 8 8 7 7 7
38 45 50 50 49 47 46 50 54 50 48 45 46 47 48 50 50 49 47 45 44 43 41 42 38 35 32 28 29 35 34 30 18 5 5 8 9 9 9 9 9 10 10
41 41 47 50 50 50 50 49 48 50 52 52 51 48 49 50 51 52 52 49 47 45 42 41 37 34 29 30 35 34 30 12 4 7 8 10 11 12 12 14 15 15 14
45 45 46 47 49 50 51 52 52 50 50 48 48 48 51 52 52 54 57 55 49 47 42 41 38 32 32 35 30 27 12 6 8 10 11 13 15 16 17 16 15 15 15
48 53 50 48 47 47 50 50 49 51 54 54 55 52 50 49 52 57 58 56 51 47 40 41 35 32 36 28 20 10 7 9 11 13 16 18 18 17 16 17 17 17 16
56 49 48 47 50 50 46 50 49 51 53 52 53 53 52 50 51 58 56 53 50 44 43 38 33 36 25 16 10 8 9 12 16 18 19 19 18 18 19 19 18 18 18
56 55 52 50 47 48 49 49 45 44 50 51 55 54 53 52 52 52 54 50 48 43 42 35 36 25 18 13 10 10 11 14 17 20 20 21 21 21 21 20 20 19 18
40 50 50 51 47 48 48 47 45 43 48 52 58 57 54 53 51 50 51 52 46 47 37 38 28 32 35 32 24 15 13 15 18 22 24 24 24 24 23 22 21 20 19
21 29 38 48 48 48 47 44 44 43 52 60 62 60 50 48 53 54 54 53 52 39 40 35 40 39 40 39 40 36 24 15 14 18 22 24 24 24 22 22 21 20 19
22 24 30 40 44 49 47 42 42 42 60 62 58 50 46 46 56 56 66 61 44 44 40 43 44 48 47 49 48 45 35 20 12 11 14 18 20 22 23 23 21 18 17
27 24 28 31 40 47 49 40 41 47 61 51 53 62 57 51 76 92 74 58 47 44 46 48 52 54 54 54 53 53 48 36 23 16 15 17 22 24 23 21 18 16 13
31 35 27 32 32 42 48 43 45 59 52 50 57 58 65 75 96 97 86 48 47 48 49 53 56 57 56 55 55 56 54 46 26 17 18 23 25 23 21 19 17 14 10
26 39 27 34 34 38 46 50 56 57 47 50 59 55 54 98 82 96 63 52 51 49 54 58 59 58 57 56 57 60 59 47 23 20 24 26 24 20 18 16 12 10 11

GFSSE_700_rhum_024.txt.gz
RH
33 33 31 33 30 25 25 26 23 20 20 23 27 29 29 14 6 3 3 3 4 4 4 4 5 6 6 5 4 4 4 6 7 8 8 8 9 10 10 9 10 11 11
34 33 33 33 29 26 26 27 23 20 20 17 16 21 28 30 15 6 2 3 3 4 5 6 6 7 8 8 7 6 6 7 8 8 9 9 10 10 10 10 10 10 10
36 34 35 32 29 28 28 27 27 27 27 25 19 14 15 24 30 13 5 3 4 6 6 7 7 8 8 8 9 9 9 9 9 9 10 10 10 10 10 10 10 9 9
36 34 34 32 31 30 30 30 28 28 29 28 25 18 12 12 24 29 12 6 5 6 7 7 8 8 8 9 9 9 10 10 10 10 10 10 10 9 9 8 8 8 8
36 36 34 33 34 35 34 33 31 31 32 30 27 24 17 12 12 26 25 12 7 7 8 8 9 9 9 9 9 10 10 10 9 9 9 8 8 8 9 10 12 13 14
37 37 37 39 40 38 38 36 35 35 35 32 28 26 24 18 12 15 26 25 19 11 8 8 8 8 8 8 8 9 9 10 12 14 15 17 20 19 20 20 20 19 18
38 38 40 43 42 39 39 37 37 37 36 33 31 26 25 22 18 13 15 24 24 23 22 22 21 20 20 20 19 19 19 18 17 16 15 15 16 17 18 20 21 22 21
41 41 43 44 43 40 40 40 39 38 38 36 35 32 28 26 23 20 19 16 16 16 18 19 19 21 23 23 24 24 24 24 23 22 21 21 22 21 21 21 21 21 21
46 45 44 45 43 41 41 41 40 40 40 38 38 36 34 30 26 26 23 23 25 25 25 25 24 24 25 25 25 25 25 25 24 23 20 20 18 18 18 19 19 19 19
46 46 44 44 42 42 42 43 43 42 41 41 40 40 40 37 33 30 29 28 24 25 26 26 27 27 26 27 27 27 26 26 24 22 23 23 23 22 22 22 22 23 23
45 44 42 43 43 42 42 45 44 44 43 42 42 43 43 42 40 37 34 32 32 30 27 28 27 28 28 28 29 28 28 27 26 24 24 24 21 21 22 24 21 14 8
45 44 43 42 42 42 43 47 44 44 44 44 43 44 45 45 44 42 40 37 36 36 33 31 31 30 30 30 29 28 28 26 24 21 23 28 26 22 13 4 2 3 4
49 48 45 45 44 44 43 43 44 46 44 46 45 44 45 47 47 47 46 43 40 39 37 35 34 33 32 31 30 28 24 24 26 26 28 27 21 10 4 6 7 8 8
41 49 50 50 50 48 48 46 44 49 49 49 45 46 45 46 48 49 49 48 46 42 40 38 35 34 33 32 30 25 26 31 32 29 25 15 6 6 8 9 9 9 9
59 41 40 49 51 51 50 47 45 48 50 51 46 46 46 47 48 50 50 51 51 48 43 41 39 36 35 33 27 27 32 30 28 23 10 5 7 9 10 11 12 13 15
46 48 39 39 45 50 51 50 49 48 54 52 52 51 53 52 49 49 52 53 55 54 48 43 41 37 34 32 27 32 29 26 20 12 6 8 10 12 14 16 16 16 16
50 54 44 42 41 46 51 50 50 52 52 50 50 52 51 48 49 52 55 56 58 57 52 46 42 38 34 29 32 28 20 14 9 8 10 11 14 17 18 17 16 16 17
70 54 56 48 46 45 45 50 51 51 53 52 52 53 52 52 52 52 52 55 57 58 53 47 41 38 33 32 28 20 12 8 8 10 13 17 19 19 18 18 18 18 19
49 68 71 70 46 44 45 49 48 49 47 47 48 48 50 50 54 53 52 53 57 58 52 46 42 36 32 30 23 18 12 9 9 12 15 19 20 20 19 20 21 21 20
44 52 65 69 67 47 46 49 51 49 50 48 46 42 42 56 56 54 54 52 52 56 52 46 42 35 32 30 31 31 30 23 13 11 12 16 19 23 23 23 24 23 22
23 54 63 71 57 52 52 48 48 50 48 48 43 40 49 54 57 58 55 51 52 56 52 48 38 35 35 33 31 32 33 34 31 24 16 13 14 17 21 23 23 22 21
20 19 54 67 68 51 52 54 52 52 51 47 43 47 58 62 62 58 47 46 55 57 54 44 39 39 36 41 44 45 46 44 43 36 27 19 12 11 12 14 17 20 21
26 24 24 56 72 62 52 55 52 53 50 47 44 48 61 63 65 53 48 52 59 63 54 43 41 40 45 49 50 50 51 52 52 48 44 30 20 18 20 22 23 23 21
30 30 30 30 39 64 50 46 45 52 49 48 48 53 67 69 60 58 57 55 85 72 48 44 44 47 51 52 52 52 51 52 55 54 51 36 23 22 24 24 23 21 19
32 42 36 38 52 52 27 37 42 54 51 48 49 63 66 60 63 60 67 99 99 64 50 49 50 55 56 56 54 53 53 53 55 56 54 41 25 24 25 24 21 19 17
27 35 41 59 72 77 40 28 41 57 53 46 52 61 56 58 64 72 79 99 100 61 52 51 54 59 60 60 58 57 57 57 58 60 58 36 25 25 24 21 18 14 12

GFSSE_700_rhum_027.txt.gz
RH
32 33 33 34 31 27 28 24 25 20 18 17 16 22 28 28 16 6 2 3 4 4 4 4 5 5 5 5 4 4 4 5 6 7 8 8 9 10 10 10 10 10 11
35 34 33 34 32 29 31 28 26 26 26 24 20 14 17 24 29 10 4 3 3 4 5 6 6 7 8 8 8 6 5 6 8 8 8 9 9 10 10 10 10 10 10
38 34 34 34 30 30 30 29 28 27 26 26 25 20 12 14 25 28 8 4 4 6 7 7 7 8 8 9 9 9 9 9 9 9 10 10 11 11 10 10 10 9 8
40 35 35 33 31 30 32 31 30 29 30 30 28 25 19 11 12 26 24 7 6 6 7 8 8 8 9 9 9 9 10 10 10 10 11 10 10 10 9 8 8 8 8
39 35 36 33 32 36 36 34 33 34 35 33 30 27 24 17 10 17 26 21 10 7 8 8 8 9 9 9 9 10 10 10 10 9 9 8 8 8 11 14 17 17 18
38 36 36 35 41 39 34 37 35 36 37 35 31 26 24 23 16 11 18 26 24 20 14 11 9 9 9 10 11 13 15 17 19 19 20 19 18 18 16 16 15 15 15
39 38 38 38 42 40 36 38 37 36 37 37 35 30 26 23 23 18 14 13 19 23 22 21 20 18 16 16 15 15 16 16 17 16 18 19 20 20 21 22 21 21 21
39 40 40 42 44 42 38 39 40 37 38 38 38 31 29 26 24 24 21 21 20 20 20 21 21 22 22 22 23 23 22 22 22 21 22 21 21 20 19 18 18 18 18
46 42 42 44 44 44 41 41 42 41 40 41 40 36 38 37 32 26 25 25 24 23 23 23 24 24 24 24 24 24 24 24 22 22 21 20 20 20 22 22 22 22 22
47 46 46 45 45 45 42 42 43 44 43 42 42 41 42 43 41 38 34 30 28 28 26 24 25 26 26 26 26 25 26 25 24 24 25 24 23 21 21 20 21 21 22
46 47 47 47 44 43 43 43 43 44 44 44 43 44 44 45 45 44 42 39 36 33 31 30 28 27 28 28 27 27 27 25 24 24 23 22 21 21 25 23 16 8 3
46 46 46 46 44 43 43 43 44 47 45 44 44 44 44 45 47 48 48 46 43 40 37 35 33 31 30 30 29 29 28 24 22 22 26 29 27 25 21 10 4 4 6
47 48 45 44 44 43 43 43 43 44 44 45 45 47 46 45 46 48 49 49 48 47 45 40 37 35 33 31 30 29 27 23 26 28 28 28 24 18 8 6 7 8 8
42 43 49 48 46 45 45 45 47 45 44 47 49 49 47 46 46 46 47 50 51 50 50 48 43 39 35 33 31 30 26 25 29 28 26 21 13 8 7 8 9 10 10
38 38 41 45 48 49 48 49 47 48 46 47 51 52 48 47 47 49 48 50 50 53 53 52 49 43 38 35 32 30 26 28 27 23 19 10 6 7 9 10 11 13 15
57 45 40 39 41 44 42 43 45 50 48 47 49 50 53 51 52 53 51 51 50 52 55 55 52 46 40 37 32 29 29 28 21 14 10 8 9 10 12 14 16 17 17
49 58 50 41 40 41 41 39 40 48 51 50 50 50 50 52 52 50 48 48 50 54 56 56 54 48 42 38 33 30 28 22 16 10 8 10 12 14 17 18 18 17 17
51 55 62 51 43 44 47 45 43 45 51 52 55 57 55 53 50 50 52 51 51 51 56 56 55 49 43 38 33 30 25 20 14 10 10 12 15 18 20 20 19 20 20
50 49 70 62 49 42 46 50 50 50 52 52 51 50 50 50 46 48 50 53 53 51 52 55 56 51 44 37 33 30 30 28 27 24 15 11 12 15 18 21 23 23 23
16 40 56 76 71 58 44 45 55 56 60 53 52 46 45 45 42 48 52 57 56 52 54 58 58 51 44 36 33 33 30 29 30 30 29 27 20 15 14 15 18 20 21
19 20 59 69 76 76 74 56 54 54 54 51 52 51 49 46 44 47 49 56 56 49 50 58 59 53 41 36 36 36 40 42 44 45 45 42 38 33 25 16 12 12 13
33 30 22 61 75 77 75 68 62 61 59 58 58 56 54 48 49 52 56 61 58 46 49 60 61 51 40 39 40 45 47 47 46 46 48 49 49 46 39 28 21 20 21
30 36 38 34 64 72 71 69 69 59 61 60 60 56 54 50 48 54 63 67 53 52 54 67 64 46 43 44 47 49 49 48 48 49 49 50 50 50 44 33 26 24 24
18 26 35 42 50 66 68 70 73 65 54 51 58 61 62 57 55 64 71 67 61 65 60 76 62 46 46 48 51 53 53 52 50 51 52 53 54 51 44 31 26 25 24
20 28 34 35 43 56 62 67 71 64 58 60 64 65 65 57 58 64 74 67 76 90 95 97 56 48 47 49 53 55 54 52 52 54 54 57 57 52 40 27 26 24 22
21 21 27 40 38 45 62 63 69 66 60 59 64 63 64 59 58 72 68 72 83 85 100 100 56 51 50 54 57 57 55 56 57 58 57 56 54 52 35 27 24 21 17

GFSSE_700_rhum_030.txt.gz
RH
33 33 33 34 33 31 34 30 24 25 23 21 17 15 19 26 26 10 3 3 4 4 4 4 4 5 5 5 4 4 5 6 7 7 8 8 8 10 10 11 11 11 11
33 34 34 34 34 33 33 30 28 26 26 24 23 20 13 17 26 24 6 3 4 4 5 6 6 7 8 8 7 5 4 5 6 8 8 9 9 10 11 11 11 11 10
36 34 34 35 33 34 34 32 29 28 28 28 26 24 19 11 17 27 15 5 4 6 7 7 8 8 8 9 9 9 8 8 9 9 10 10 11 11 11 11 10 9 8
38 35 35 34 32 32 36 33 32 32 34 33 31 27 24 16 10 21 25 11 7 6 7 8 8 8 9 9 9 9 10 10 10 10 11 11 11 10 10 9 8 8 10
40 36 35 34 33 36 38 33 34 35 36 35 33 28 25 22 14 11 23 24 16 9 7 8 8 9 9 9 9 9 10 10 10 9 9 9 9 10 14 18 19 18 18
40 37 36 35 36 41 36 36 36 36 37 36 34 31 26 24 20 14 12 22 26 24 22 19 18 16 16 16 17 18 18 19 19 18 17 16 15 15 16 17 20 19 20
42 38 37 36 42 43 37 37 38 37 37 37 37 31 27 24 23 21 18 15 14 16 17 17 16 16 15 15 15 16 16 16 20 20 21 20 21 21 21 21 20 20 20
41 38 38 38 43 45 41 38 40 40 39 39 40 35 35 32 26 23 23 22 22 22 22 22 22 22 22 22 21 22 21 21 22 21 21 20 20 20 20 20 20 21 22
42 40 40 41 43 44 44 41 40 42 42 42 42 40 41 43 40 36 30 26 25 25 24 24 24 24 23 23 23 23 22 22 22 23 23 22 22 22 24 23 22 22 22
47 41 42 42 45 45 45 44 42 43 44 44 43 43 43 45 45 44 42 38 34 31 28 27 27 26 27 26 26 25 24 24 25 25 25 24 23 22 21 22 23 23 23
47 48 44 45 46 46 45 44 43 44 44 45 44 44 44 45 46 48 48 47 44 41 38 35 32 30 29 29 29 28 27 27 25 24 24 23 23 24 26 25 22 16 6
47 48 47 47 47 46 45 44 44 44 45 47 45 45 44 45 45 46 48 50 50 49 48 44 41 37 34 31 31 30 29 27 24 25 30 30 28 26 24 19 11 5 6
45 48 50 48 47 46 44 44 44 44 44 46 45 45 46 47 46 46 46 49 50 51 51 50 49 46 41 36 33 30 30 27 26 30 29 27 25 21 13 9 7 7 8
46 44 45 51 49 46 45 44 44 44 45 45 45 46 48 50 48 46 45 48 49 50 51 52 52 50 47 41 36 33 31 28 28 28 25 22 17 11 7 7 8 9 10
45 46 44 43 45 51 51 50 49 50 49 48 47 47 51 52 49 47 48 51 51 51 51 52 54 53 51 45 40 35 31 29 29 24 18 14 10 8 8 9 11 12 13
46 40 41 36 33 38 43 46 49 52 52 50 50 48 49 52 53 52 52 54 52 52 53 54 55 54 54 49 42 38 32 30 26 20 13 10 9 10 11 12 14 16 18
56 55 49 35 34 30 32 38 40 42 43 47 48 51 50 54 52 52 53 51 49 50 51 51 53 54 55 51 45 39 33 29 24 20 13 10 10 13 16 18 19 19 19
49 57 57 52 54 43 32 39 40 43 44 46 45 49 51 53 53 53 52 53 52 53 52 52 52 54 57 54 48 40 33 30 31 29 26 19 13 12 15 18 21 21 21
44 53 62 62 51 55 44 45 47 45 48 51 51 50 52 52 54 52 50 46 46 51 54 54 54 56 60 57 50 39 33 33 30 28 29 30 29 26 19 15 16 18 19
50 56 67 73 66 57 66 53 53 51 51 54 54 50 46 48 48 47 44 45 50 57 60 58 56 58 63 60 50 37 35 33 37 40 42 43 44 44 42 38 33 26 20
28 43 53 68 77 66 54 55 55 50 50 50 54 54 53 51 53 51 47 44 54 62 60 62 53 56 64 60 46 38 38 42 45 46 45 45 45 46 46 47 46 40 32
24 22 20 20 57 75 69 63 79 81 58 59 58 57 61 58 59 55 50 46 58 63 62 58 53 61 67 59 44 41 42 46 47 47 47 47 48 48 48 47 45 44 42
26 30 31 26 37 75 76 74 64 80 79 59 53 54 62 64 65 62 55 51 62 67 68 56 59 68 72 55 45 44 47 50 49 49 47 46 48 49 50 50 49 45 42
16 28 36 38 37 40 65 71 71 68 73 64 64 60 62 70 71 70 61 55 69 75 72 68 65 84 75 53 49 50 53 55 54 51 49 49 54 56 57 55 53 48 41
17 20 26 37 40 52 51 48 64 69 70 76 84 77 67 68 71 70 66 61 67 81 81 77 84 97 85 54 53 54 56 57 56 53 53 56 59 62 62 61 57 44 32
15 15 18 20 22 32 50 58 59 64 68 69 77 86 72 67 70 70 66 66 68 94 88 86 93 94 98 58 57 56 58 60 58 56 57 60 62 65 66 65 52 34 27

GFSSE_700_rhum_033.txt.gz
RH
37 34 34 33 34 34 34 30 27 26 26 24 22 18 14 20 27 23 6 3 3 4 4 4 4 4 4 4 4 5 7 7 8 8 8 8 8 9 10 11 12 12 12
33 34 34 35 34 36 35 34 29 28 27 26 25 23 18 12 19 26 11 4 4 4 5 5 6 7 8 8 6 5 5 5 6 7 8 9 9 10 10 11 12 11 11
37 34 34 35 35 36 36 33 30 30 32 32 30 26 22 16 12 22 22 7 5 6 7 7 8 8 9 9 9 9 8 8 8 9 10 10 11 11 11 11 11 10 9
35 35 34 34 33 34 37 32 32 33 35 35 33 29 25 19 12 16 24 17 7 7 8 8 8 9 9 9 9 10 10 10 10 10 11 11 11 11 10 9 9 11 14
37 35 35 33 32 37 37 35 34 35 36 35 34 32 28 23 15 12 22 24 20 12 8 8 8 8 8 8 9 9 9 9 9 10 10 11 12 15 17 19 19 17 16
43 36 36 34 33 40 36 37 37 37 36 35 34 33 28 24 22 17 13 20 25 25 24 23 22 22 22 21 21 20 18 18 16 16 15 15 14 14 15 17 19 20 21
43 38 37 36 39 42 38 38 38 39 38 38 38 35 30 25 22 22 21 19 16 15 16 17 18 18 19 19 20 19 20 20 19 19 20 20 20 20 21 20 20 19 19
44 40 38 37 43 45 42 39 39 40 41 41 41 40 40 42 39 31 24 23 22 22 21 21 21 22 22 22 22 22 22 22 22 22 21 22 21 21 21 21 22 23 23
46 41 40 39 43 45 44 42 41 40 42 42 42 43 42 45 45 44 41 36 31 26 25 24 24 24 24 26 26 25 25 25 24 24 24 23 23 24 23 22 22 22 23
42 44 42 41 42 45 45 45 43 42 43 44 44 43 44 44 44 45 48 46 44 40 37 35 31 29 27 28 28 28 27 27 27 24 23 22 22 22 23 23 23 24 23
42 48 43 43 43 45 46 46 45 44 44 44 45 45 44 45 45 46 47 49 49 49 48 45 43 40 37 33 31 30 28 28 27 24 25 26 28 28 27 27 24 21 14
36 43 50 48 47 46 47 46 46 45 44 45 48 46 46 45 46 46 47 49 50 50 50 50 50 48 45 42 37 33 31 29 27 26 28 29 28 26 25 21 17 10 7
48 46 50 50 48 48 47 47 46 45 45 45 47 47 46 46 48 48 46 47 48 50 51 52 51 52 51 49 44 38 34 31 28 28 29 27 24 21 16 11 8 8 8
46 45 46 50 50 49 47 46 46 45 46 45 46 46 46 47 49 51 49 47 49 50 52 52 52 53 53 52 50 46 39 33 30 28 27 21 16 14 11 8 8 9 9
40 41 46 46 45 49 52 49 48 47 47 47 48 48 48 49 52 52 49 48 51 53 53 52 53 54 55 54 53 50 44 37 31 28 25 18 13 10 10 10 10 11 12
38 38 39 44 45 44 43 46 52 54 53 52 52 51 50 49 52 53 53 52 55 55 54 54 55 56 57 55 55 53 47 40 33 28 24 20 14 11 11 13 15 16 17
41 37 37 39 41 42 41 36 40 45 50 50 46 43 49 50 51 56 56 55 56 54 53 54 55 56 55 54 55 56 51 42 33 30 30 27 23 18 13 12 14 17 19
47 43 36 36 40 40 38 36 41 46 47 48 46 43 44 48 52 57 54 54 54 54 55 57 57 55 55 55 58 58 54 44 34 32 31 29 28 28 27 25 21 17 15
53 51 53 45 47 40 39 43 43 43 49 50 54 51 51 53 55 58 58 57 55 51 50 56 57 57 56 56 60 62 57 43 35 33 34 39 42 43 43 43 43 41 38
58 64 66 69 67 63 50 48 50 45 41 47 52 54 54 54 55 55 53 48 49 47 50 55 60 60 60 58 63 64 56 41 36 38 42 43 44 44 44 44 44 43 43
42 45 53 67 72 75 70 64 51 46 47 47 50 53 55 56 55 59 53 51 51 48 52 61 64 64 61 57 66 65 54 42 41 44 47 46 46 45 45 45 46 47 47
17 15 40 43 57 74 77 79 77 68 59 54 52 53 56 59 56 62 56 54 54 51 51 62 65 67 57 58 68 64 51 47 46 49 50 50 48 46 45 46 48 49 50
32 30 23 23 27 45 68 71 71 78 73 59 50 51 52 59 56 65 66 64 60 56 55 65 67 65 63 63 71 63 52 49 51 53 54 52 50 48 50 51 52 53 53
16 21 30 36 40 38 38 39 43 62 72 69 62 59 65 67 68 65 67 72 73 65 64 85 75 70 68 67 78 66 54 52 55 56 56 56 56 55 56 57 58 59 58
12 14 16 22 34 49 54 49 54 58 72 70 74 74 76 74 71 69 64 71 76 76 72 85 97 94 81 79 93 79 57 57 59 61 62 62 61 60 62 64 64 62 61
20 22 22 22 24 29 49 60 62 59 59 61 61 69 75 75 77 75 74 69 73 74 74 82 100 99 96 92 85 96 67 59 62 64 67 68 65 64 67 69 67 65 64

GFSSE_700_rhum_036.txt.gz
RH
34 36 36 35 33 33 34 31 28 28 27 26 25 21 16 14 20 25 11 3 4 4 4 4 4 4 5 4 5 6 8 8 8 9 8 8 9 9 9 10 12 12 12
33 35 35 35 34 34 36 30 30 30 32 32 29 26 20 14 17 24 16 5 5 5 5 5 7 8 8 8 6 5 5 6 6 6 9 9 9 10 11 11 12 12 11
36 34 35 35 36 37 37 34 30 31 35 34 32 29 25 18 13 22 20 7 5 6 7 8 8 8 9 9 9 9 8 8 9 10 10 11 11 11 11 11 11 10 9
39 34 34 35 35 37 36 34 32 33 34 34 33 31 27 23 14 14 23 16 8 7 8 8 9 9 10 10 10 10 10 11 11 11 11 11 11 10 10 9 10 12 17
37 34 34 34 32 38 37 36 35 36 35 34 34 32 27 25 21 13 15 24 22 14 9 8 8 8 9 9 10 11 12 13 14 15 16 17 18 18 18 18 17 15 14
38 35 35 34 33 38 38 37 37 37 37 37 38 33 27 23 22 21 16 13 18 23 24 24 23 21 19 18 18 18 18 18 18 18 18 18 19 20 18 18 19 18 19
46 40 36 35 34 41 38 38 39 39 39 40 40 40 38 38 30 23 22 21 20 19 18 18 19 20 20 21 22 22 23 23 23 23 21 20 20 20 19 19 19 18 19
42 42 38 37 37 44 41 39 40 40 40 41 42 42 42 43 43 41 36 28 24 23 23 22 22 23 23 24 24 24 24 23 23 23 23 24 24 24 23 22 22 22 22
42 41 40 38 39 46 44 41 40 41 41 43 43 43 44 43 40 41 46 44 41 38 35 32 29 26 26 26 26 26 26 25 25 24 23 23 23 22 23 23 22 22 23
41 45 42 40 39 45 46 45 44 42 42 42 44 44 44 45 45 43 42 45 47 47 47 46 44 40 37 33 31 28 28 27 26 25 23 22 24 24 26 26 25 25 25
36 37 46 42 41 42 46 46 46 45 44 44 44 46 46 45 45 47 48 48 50 49 48 47 48 49 48 45 40 36 32 30 28 26 25 26 26 27 27 26 24 22 18
40 41 47 46 44 44 45 46 47 46 46 45 45 47 47 46 46 47 47 48 49 50 51 51 51 51 52 51 49 46 41 35 31 28 26 27 27 25 23 21 17 14 11
49 45 40 46 52 49 48 49 47 47 46 46 46 47 48 47 47 48 48 48 48 50 51 51 52 52 53 53 52 50 48 43 36 31 28 26 25 20 17 15 11 8 8
41 44 49 47 51 51 50 49 48 48 47 47 47 46 47 47 47 48 50 50 49 49 51 52 52 53 54 56 54 54 52 48 42 35 30 27 24 19 13 11 10 10 9
40 39 42 45 47 49 52 51 49 47 47 48 48 47 48 48 48 50 52 52 50 50 53 54 54 55 56 57 57 55 55 52 47 38 31 27 26 22 16 12 11 12 13
38 37 39 41 43 47 45 48 52 53 52 51 52 52 52 52 51 51 53 54 52 52 55 56 56 56 58 57 57 57 56 55 51 41 32 30 30 27 22 17 13 13 15
39 39 43 44 44 42 44 47 45 45 53 55 55 54 54 51 52 52 53 56 58 56 58 56 56 57 58 58 56 54 53 57 55 45 35 33 30 28 27 26 25 24 22
42 42 41 44 48 44 39 40 44 45 46 46 50 52 50 47 50 52 54 58 58 57 56 56 58 56 59 58 56 53 53 58 57 47 36 33 32 36 38 39 40 40 40
47 47 48 50 48 48 43 40 47 51 53 50 49 47 46 48 51 53 55 59 57 58 59 56 52 53 58 59 57 57 53 58 59 48 37 35 39 42 42 42 42 43 43
53 53 55 55 55 51 47 44 45 51 49 51 51 48 47 48 53 56 58 61 62 60 51 48 47 49 58 59 60 58 56 60 60 46 39 40 45 45 44 44 43 42 43
40 52 54 59 59 57 59 53 46 40 36 42 46 54 47 50 55 60 64 70 60 57 51 49 47 47 54 60 61 57 57 62 59 47 42 46 47 47 46 45 44 46 47
23 23 32 48 54 60 65 67 67 69 64 54 56 61 60 56 59 62 65 73 64 58 56 54 51 50 57 67 63 58 59 60 57 51 47 49 50 50 49 48 47 48 50
28 28 27 28 26 39 39 45 60 72 76 72 62 64 60 57 56 56 58 71 73 69 66 64 60 54 54 68 66 64 65 64 60 54 51 51 54 54 54 52 51 51 52
19 28 31 34 36 36 33 28 33 51 67 73 75 73 71 67 55 62 59 68 69 72 76 78 76 70 57 58 72 68 71 74 66 58 56 55 56 58 58 58 55 54 56
18 17 19 21 31 36 46 50 46 41 36 45 55 55 61 69 72 75 82 77 76 65 70 78 86 83 74 84 77 86 79 79 84 62 58 59 60 62 64 63 60 60 60
21 23 23 22 26 31 32 37 57 66 65 60 48 46 54 61 69 73 75 78 77 72 67 75 83 86 85 79 98 99 95 86 84 86 65 62 64 65 67 67 66 64 64

GFSSE_700_rhum_039.txt.gz
RH
34 35 36 38 30 28 30 26 28 29 30 29 27 24 20 14 17 24 11 4 4 4 4 4 5 5 4 4 5 6 8 10 12 10 9 8 9 9 9 10 11 12 12
31 35 36 36 33 32 32 34 26 30 34 34 32 28 24 17 14 23 13 5 5 6 7 7 18 8 8 8 6 5 6 6 6 6 8 9 10 10 11 11 12 12 12
34 34 35 36 36 38 38 36 29 30 32 33 32 30 26 20 14 21 16 7 6 7 8 11 20 9 9 10 10 9 8 8 9 10 10 11 11 11 12 11 11 9 9
36 34 35 35 36 37 38 35 33 33 32 33 33 29 26 21 15 18 21 14 9 8 8 9 9 10 10 10 10 10 11 11 11 11 11 11 10 11 13 15 17 19 19
38 34 34 35 34 38 38 38 35 35 36 36 35 29 24 22 19 15 19 24 22 18 14 12 10 11 12 12 13 13 14 15 16 17 18 18 17 17 16 15 15 14 15
40 34 34 35 33 39 38 39 37 36 38 39 39 37 35 26 22 21 18 15 16 18 19 19 18 18 18 19 19 19 19 19 19 19 19 20 20 20 20 20 19 19 18
42 36 35 35 33 40 38 38 39 39 40 40 40 40 40 40 39 31 24 22 22 21 21 20 20 21 21 22 22 22 22 22 22 22 22 22 21 21 20 20 19 20 20
46 45 38 36 34 41 39 39 39 41 40 41 42 42 40 38 35 41 41 37 32 28 26 25 24 25 25 26 26 25 25 24 24 23 23 23 23 22 23 22 22 22 22
35 40 41 37 36 42 42 40 40 41 41 40 43 43 44 44 42 38 37 42 44 44 43 42 40 36 34 31 29 28 27 26 25 24 23 22 22 22 23 23 24 24 24
42 40 42 40 38 42 45 43 42 42 42 42 41 45 45 45 45 45 45 44 46 46 44 44 45 47 46 45 42 38 35 31 28 26 24 23 24 26 26 26 26 26 25
43 39 44 43 41 40 46 46 45 45 44 44 44 44 44 46 46 46 47 48 49 50 49 49 49 49 49 49 48 47 45 41 35 30 27 25 26 26 25 24 22 20 16
48 40 40 46 44 43 42 46 47 46 46 46 46 45 47 45 47 47 47 48 48 50 50 51 51 51 52 52 52 50 48 47 43 37 32 28 26 24 22 19 17 13 10
49 46 43 45 50 48 48 45 47 48 47 47 47 46 47 48 47 47 48 49 49 49 50 51 52 52 53 54 54 53 52 51 49 45 37 31 27 25 22 18 13 11 10
37 41 46 44 44 52 54 52 51 51 48 48 48 47 47 49 48 47 48 49 50 50 50 51 53 54 54 55 56 55 53 54 52 50 44 36 29 27 24 20 14 11 11
38 37 40 43 48 51 56 58 52 50 49 49 49 48 47 48 48 48 48 49 52 52 50 51 54 55 55 55 56 55 54 54 52 53 50 41 32 30 29 26 19 14 13
41 39 40 39 40 44 49 51 56 53 50 49 49 49 49 49 50 51 50 51 53 54 52 52 55 57 56 56 56 56 55 54 53 53 52 45 36 32 30 28 26 25 23
44 42 41 38 34 31 37 45 50 54 55 54 53 53 53 54 54 54 53 53 54 55 57 56 57 57 56 57 57 53 55 53 51 52 54 48 38 33 32 35 36 36 37
42 41 42 41 40 39 29 38 44 46 48 47 51 56 56 55 57 54 52 53 55 57 61 59 58 56 58 56 52 54 56 53 52 50 53 50 39 34 36 39 39 38 39
43 41 41 42 41 42 38 39 46 46 46 53 50 45 47 51 53 50 50 53 54 56 62 58 58 59 55 49 48 55 55 55 52 50 52 50 40 37 40 42 42 42 41
46 48 46 44 43 41 41 41 43 46 47 45 53 55 52 47 48 50 52 54 56 58 61 61 61 55 50 46 46 54 54 57 53 52 54 51 42 40 43 44 44 44 42
39 43 47 49 50 52 52 51 48 46 43 44 46 50 56 57 55 54 55 57 59 61 66 66 60 54 50 45 45 52 53 53 52 53 57 52 44 44 46 48 48 46 45
18 19 24 34 46 54 56 58 56 57 55 55 54 53 56 56 53 58 56 56 63 63 65 67 64 61 56 51 47 54 54 54 56 58 58 54 48 47 48 50 51 51 49
27 26 24 22 22 22 34 49 55 58 60 67 66 54 49 48 48 62 61 64 67 65 66 72 72 68 66 60 57 57 58 57 59 60 60 57 53 50 51 54 56 56 54
19 22 29 31 29 28 28 27 28 35 40 50 52 67 72 76 73 66 64 62 68 70 66 71 76 77 75 71 69 64 66 69 67 67 65 64 60 56 56 58 59 61 60
20 19 19 20 22 30 36 40 46 45 41 37 34 46 66 70 73 73 70 65 64 67 72 72 77 80 81 85 83 79 73 87 89 83 76 76 70 62 61 62 63 63 63
23 24 22 19 18 19 23 37 48 52 62 63 60 59 55 50 53 58 66 70 68 72 86 82 86 82 77 85 88 88 88 89 98 98 94 88 83 76 69 66 67 67 67

GFSSE_700_rhum_042.txt.gz
RH
33 32 34 36 27 28 31 26 25 30 32 31 29 26 21 15 16 22 11 5 5 5 5 5 5 4 4 5 6 9 12 15 14 11 10 9 9 9 9 10 11 12 12
30 33 35 36 32 32 34 32 27 27 31 32 31 29 25 18 14 20 14 6 6 8 7 9 9 8 8 7 6 5 6 7 8 8 8 9 10 10 11 11 12 12 12
33 32 35 36 37 37 36 37 31 30 30 30 31 29 26 20 14 18 17 10 7 8 9 19 12 9 10 10 9 7 7 8 8 10 10 11 11 11 12 11 10 10 11
35 32 34 36 37 37 37 38 33 32 33 30 31 28 24 21 16 16 20 18 12 9 9 9 10 10 10 10 10 10 10 11 11 11 11 11 11 12 16 18 19 19 18
36 32 34 34 37 37 37 37 36 35 35 32 33 29 24 22 19 16 18 22 23 20 18 15 13 12 12 12 12 12 13 14 16 18 18 18 17 17 16 17 18 18 19
38 33 34 33 35 37 37 38 38 38 36 37 38 36 37 31 23 21 19 16 16 17 17 18 19 19 19 18 18 18 18 18 19 20 20 20 20 19 19 19 19 19 19
43 35 33 34 32 38 38 38 38 40 39 40 40 38 36 35 38 33 25 22 22 22 22 22 22 22 23 23 23 23 22 22 22 23 23 22 22 22 22 22 23 22 23
46 38 34 35 33 38 38 39 39 40 40 40 41 42 41 41 37 37 40 40 37 34 30 28 26 26 26 26 26 26 25 25 25 24 23 22 21 22 22 22 22 22 22
37 46 39 36 35 36 39 39 40 41 41 40 41 42 44 44 43 43 37 38 40 41 42 43 42 42 40 38 36 34 31 28 26 25 24 23 24 24 25 26 26 26 25
42 40 42 39 37 36 42 40 40 41 42 42 41 41 43 45 45 44 46 46 46 46 46 45 43 43 45 45 45 44 42 38 34 30 28 25 25 24 25 25 24 24 23
41 42 41 42 40 37 41 44 42 42 43 44 44 44 42 43 45 46 47 48 48 49 49 49 49 49 48 48 49 48 46 45 44 40 35 30 27 25 24 22 20 19 16
50 45 38 42 45 41 39 45 46 45 45 45 45 46 46 46 43 46 47 48 48 49 50 50 51 51 51 52 52 50 48 48 48 47 45 37 30 26 24 21 16 14 12
37 50 46 40 47 47 44 42 46 47 46 46 46 46 46 47 48 46 47 48 48 49 49 50 51 52 52 52 53 54 53 51 51 50 48 46 37 30 27 24 20 14 11
36 37 48 45 43 47 51 49 46 46 48 47 47 47 47 47 48 48 47 47 48 49 50 50 50 52 54 54 54 55 54 53 52 52 48 48 44 35 30 28 26 19 14
34 37 34 44 48 46 47 55 55 54 55 53 49 48 48 48 47 48 48 48 48 49 51 51 50 51 54 55 56 55 54 54 52 53 49 50 48 41 33 31 28 24 20
34 38 38 35 40 41 45 50 53 58 57 55 52 50 49 49 48 48 48 49 49 50 51 53 52 52 54 57 56 56 56 52 51 51 47 47 49 45 35 31 31 31 31
42 42 40 38 39 38 34 32 38 48 55 57 53 51 50 50 50 50 50 51 51 52 53 54 54 56 56 58 56 58 55 49 51 51 49 46 49 47 37 33 36 37 37
42 44 43 41 40 39 35 35 36 32 38 47 55 59 56 54 54 54 54 54 54 53 54 55 57 60 58 58 57 58 50 50 52 51 51 48 49 48 40 36 38 39 40
39 41 42 43 42 42 40 37 34 37 40 43 48 52 58 60 65 59 56 56 54 50 53 55 57 62 59 57 59 52 49 49 52 51 53 49 49 49 43 38 40 42 42
30 36 40 42 44 45 45 42 38 35 35 48 45 43 43 51 55 59 57 57 53 50 52 54 59 62 60 61 56 50 48 46 49 48 51 50 51 51 46 40 42 44 45
18 22 28 41 46 49 49 43 43 34 34 35 46 45 46 51 56 60 57 56 54 52 56 60 61 62 64 62 56 52 49 44 44 48 51 50 52 53 48 44 44 46 47
15 15 17 22 31 38 40 41 44 46 42 39 42 52 51 51 55 59 60 61 61 57 59 63 60 64 65 65 61 58 52 49 45 51 53 54 55 54 52 48 47 48 50
20 19 18 17 17 18 21 27 35 43 43 41 44 45 43 52 54 53 53 56 58 63 65 64 63 66 68 70 66 66 59 54 53 53 57 58 58 58 56 52 50 51 52
21 20 22 25 26 27 27 27 24 21 20 26 42 51 58 57 59 65 61 58 58 61 66 66 69 70 74 74 77 70 70 68 67 60 62 65 65 64 63 60 56 56 56
22 22 20 18 18 19 22 26 30 30 30 28 28 35 41 43 54 70 76 73 67 65 62 65 67 68 75 80 80 82 83 82 85 78 75 77 81 78 75 72 64 60 60
19 19 18 18 18 18 18 18 22 32 40 45 46 47 50 52 46 44 52 65 68 74 74 72 72 68 70 87 88 88 91 89 90 94 97 90 85 90 81 84 76 73 69

GFSSE_700_rhum_045.txt.gz
RH
33 32 34 33 30 29 31 29 23 27 30 30 29 26 21 15 16 19 11 6 6 5 5 5 4 4 6 7 9 11 14 15 17 15 11 9 9 9 9 10 11 12 12
30 31 34 33 32 36 35 34 26 25 28 29 29 28 24 17 14 18 13 7 8 8 10 8 8 7 6 6 5 6 8 10 10 9 7 8 9 10 11 11 12 12 11
33 31 34 34 36 36 36 35 32 30 28 29 29 28 25 20 15 16 17 12 8 9 13 19 9 9 9 9 7 6 6 6 7 8 10 11 11 11 11 11 10 12 17
36 31 34 36 38 36 36 33 35 35 29 29 29 26 24 21 17 15 18 20 14 10 9 10 10 10 10 10 10 10 10 10 11 11 11 11 11 13 17 18 16 15 15
40 31 34 35 37 37 37 35 35 36 32 31 32 31 25 22 20 17 16 20 22 20 18 16 15 14 15 14 14 13 14 15 16 17 18 17 16 16 18 19 19 19 20
38 31 34 34 36 37 38 37 39 39 34 37 34 33 35 34 25 21 20 16 15 16 17 17 17 17 17 18 18 18 19 20 20 19 19 19 19 19 20 20 19 19 21
39 33 33 33 34 37 38 38 38 40 38 35 41 39 37 34 36 36 28 23 22 21 21 21 21 22 22 22 22 22 22 22 22 22 22 21 21 20 21 22 22 22 22
42 38 33 34 32 37 38 38 38 39 40 38 41 42 42 42 42 37 37 39 38 37 34 32 30 29 28 27 26 25 25 24 24 23 22 22 22 21 23 23 23 22 23
46 44 36 34 34 33 38 39 39 40 41 41 39 42 43 44 43 44 42 41 41 39 40 40 41 42 42 42 41 39 36 34 31 29 26 24 23 22 24 25 25 25 25
30 40 43 37 36 34 37 38 39 40 41 41 40 40 40 42 45 45 45 47 47 46 46 46 45 43 42 43 44 44 43 43 43 40 35 31 28 25 24 23 22 22 21
36 42 42 43 39 37 36 40 39 40 41 42 42 43 43 42 41 43 45 46 48 49 49 49 49 49 48 48 47 46 44 44 44 44 44 43 36 30 26 23 21 18 16
39 39 41 43 45 42 38 38 42 41 42 43 44 44 45 45 44 42 44 46 48 49 49 49 50 51 51 51 51 52 51 50 49 45 44 44 44 38 30 26 24 20 16
35 46 45 39 38 45 45 40 41 45 44 44 45 45 46 46 46 46 46 46 47 48 49 49 50 50 51 52 53 53 53 53 52 49 47 46 45 45 37 30 28 25 19
29 28 46 46 42 41 49 48 44 43 46 47 46 46 46 46 46 47 48 47 47 47 48 50 50 50 50 52 54 55 55 54 54 52 45 46 45 46 44 36 31 28 24
33 29 31 42 47 43 44 47 51 49 47 47 48 49 48 47 47 47 48 47 48 48 48 48 50 52 51 51 54 56 56 55 55 52 39 45 43 44 46 40 33 30 28
34 33 33 36 37 44 47 45 46 52 57 59 56 56 54 50 49 48 48 47 48 48 48 49 50 52 53 52 53 56 57 56 56 50 40 45 45 44 46 43 35 32 33
37 36 35 37 38 34 34 42 44 48 48 50 54 57 55 54 52 51 50 48 49 50 49 50 50 50 53 54 56 57 58 57 57 48 46 41 48 45 46 45 37 35 36
32 34 36 36 36 36 32 38 38 40 35 35 36 46 53 56 54 53 53 54 51 51 51 52 52 53 53 54 58 59 58 58 56 47 47 47 46 48 46 46 41 36 38
24 37 41 44 44 42 38 36 37 37 36 35 37 39 43 50 55 59 59 60 60 58 56 55 55 53 54 55 58 59 58 60 51 46 47 48 49 48 46 48 44 39 39
14 22 35 42 48 49 46 43 40 39 40 39 39 37 41 53 52 53 57 59 61 60 60 59 54 53 56 55 60 60 60 60 49 47 46 46 47 50 48 48 47 43 41
9 10 13 20 31 39 49 48 47 33 42 44 39 42 42 42 53 52 52 59 61 59 55 56 54 53 57 56 58 60 62 59 52 48 45 46 49 52 52 51 51 47 44
11 11 12 13 16 20 29 37 46 32 29 36 41 42 42 45 46 52 55 56 66 69 70 65 60 59 61 62 62 67 65 61 55 52 51 49 50 52 54 56 54 51 48
13 12 14 14 14 14 16 18 23 32 22 24 25 26 31 42 47 53 55 56 58 62 62 63 63 65 64 70 69 72 71 63 59 59 58 55 54 54 58 59 58 57 54
18 19 19 19 20 21 21 21 22 22 25 26 25 24 27 33 46 55 60 64 66 72 70 64 61 63 73 71 72 71 74 73 70 69 66 66 67 64 63 66 65 64 61
23 22 21 19 18 17 17 19 22 24 28 31 31 29 28 26 26 45 67 76 73 68 72 75 72 64 66 71 72 79 83 81 82 82 81 83 88 88 82 82 78 75 75
21 20 18 17 17 16 16 15 15 15 16 19 23 33 38 42 47 42 39 47 54 58 68 74 75 76 75 74 72 74 79 83 84 88 92 88 89 97 92 87 86 86 83

GFSSE_700_rhum_048.txt.gz
RH
33 32 36 32 35 35 30 29 23 25 28 28 28 25 21 16 15 17 10 6 6 5 6 4 4 5 7 8 10 13 15 18 20 16 12 10 9 9 10 10 11 12 12
30 32 35 32 36 36 34 34 28 25 25 28 28 27 24 18 14 16 13 9 7 8 7 6 7 6 5 5 6 9 11 12 11 10 8 7 9 10 11 12 12 11 10
31 31 35 34 36 36 35 31 33 31 26 28 28 27 24 20 15 15 17 13 10 9 10 8 9 9 9 8 6 6 6 7 7 7 9 10 11 11 11 11 14 17 18
34 31 34 36 37 37 36 37 31 31 28 29 29 26 24 22 18 16 18 19 16 12 9 9 9 10 10 10 10 10 10 11 11 11 11 11 12 15 17 16 14 14 15
36 32 33 36 38 38 37 36 36 31 28 28 31 33 29 23 21 18 16 18 21 22 22 20 20 20 18 17 16 15 15 15 17 18 18 16 16 16 17 16 16 16 16
35 35 32 35 37 38 38 37 38 36 31 36 34 31 33 34 30 22 20 18 16 15 15 15 16 17 17 17 18 18 18 19 18 18 18 18 19 19 19 19 19 19 21
39 39 32 34 36 37 38 38 39 40 37 30 38 39 40 39 35 35 34 27 24 22 22 22 22 22 22 23 23 23 23 22 22 20 21 20 19 19 19 19 19 19 19
41 36 32 34 33 36 38 38 39 39 40 39 34 38 43 41 44 40 36 36 37 37 38 38 38 37 37 36 35 34 32 31 28 26 24 22 21 21 21 21 21 23 22
45 40 34 33 34 33 37 39 39 40 41 42 41 39 36 44 44 44 46 45 44 43 43 42 39 39 39 39 39 39 40 40 40 39 36 32 29 26 24 22 22 22 22
42 46 40 36 35 34 34 38 39 40 41 42 42 41 41 41 40 45 45 47 48 48 48 48 47 45 44 44 43 40 39 38 38 37 40 40 40 35 28 25 23 21 19
29 34 38 43 38 36 34 36 38 40 41 42 42 42 42 42 42 41 40 44 47 49 50 49 50 50 50 50 50 50 49 48 46 43 41 40 38 41 39 31 26 24 21
26 31 30 38 40 42 39 36 38 39 40 42 43 43 43 44 44 43 43 43 45 47 49 50 50 50 50 52 52 53 53 53 52 47 48 42 43 41 43 39 32 28 25
31 28 32 37 39 41 44 43 38 40 42 41 42 44 45 45 45 45 46 45 45 45 46 49 51 52 51 50 52 54 55 54 54 52 52 45 43 44 44 43 38 32 28
29 27 30 34 37 36 37 42 46 42 41 44 46 45 46 46 46 46 46 47 48 47 46 47 48 49 52 52 51 52 55 56 55 54 54 48 43 44 42 43 42 35 31
36 34 31 30 39 46 44 39 42 48 47 44 43 45 47 47 47 48 47 47 47 47 48 47 48 47 49 51 53 53 53 56 57 55 55 50 41 43 42 41 42 38 33
38 37 35 33 31 35 46 46 43 44 45 51 53 52 52 51 52 52 50 49 49 48 47 47 48 48 48 49 52 53 54 56 58 56 54 52 41 44 45 43 42 41 35
32 35 35 36 37 37 38 37 40 48 48 47 51 52 55 58 57 55 55 54 51 51 50 49 49 49 50 51 51 52 53 57 58 58 56 50 43 44 46 46 44 43 38
25 32 27 20 30 35 37 37 35 37 42 41 40 37 36 38 46 55 57 56 55 56 58 54 53 52 52 52 53 51 52 57 58 58 58 50 42 44 46 49 46 45 42
16 18 22 33 27 24 33 34 38 38 40 40 38 36 32 30 33 44 54 60 62 62 60 62 61 60 59 57 55 54 52 54 60 59 59 52 42 41 46 48 48 47 46
14 13 16 29 39 40 35 34 36 38 37 40 45 42 43 42 39 39 42 53 59 60 60 61 62 62 65 61 55 53 53 55 60 60 61 54 47 43 41 48 52 49 49
13 10 8 9 12 22 39 50 46 34 35 41 42 50 50 48 42 41 43 44 56 58 62 68 68 62 60 62 60 56 57 60 63 62 62 58 50 49 47 44 52 52 53
11 11 9 9 10 13 17 26 42 49 35 34 35 38 46 48 46 42 43 44 46 54 61 64 65 70 70 70 65 62 64 64 64 66 66 62 56 53 53 51 50 54 55
10 11 12 12 12 13 14 14 16 18 25 20 15 17 21 31 44 45 42 44 48 54 61 64 64 62 68 70 68 69 68 65 70 72 71 68 63 60 58 57 58 58 56
13 14 15 16 17 18 18 17 17 18 21 25 24 26 30 31 32 34 49 55 56 52 60 66 72 74 76 69 69 65 68 75 75 71 75 76 71 70 68 67 72 73 82
17 17 19 21 23 22 20 17 16 17 19 23 30 32 28 26 24 31 32 38 47 62 64 69 80 76 71 74 78 75 70 73 75 77 81 81 90 92 85 88 88 73 95
23 22 22 21 20 18 16 15 15 16 15 15 16 18 19 19 20 22 30 38 43 45 50 58 64 71 74 74 72 73 75 76 79 78 83 87 92 99 100 100 100 97 99

GFSSE_700_rhum_051.txt.gz
RH
33 37 32 32 38 37 28 29 24 21 24 27 27 25 20 15 15 15 11 7 6 8 4 4 5 6 7 9 14 16 17 17 18 19 13 10 9 9 10 11 12 12 12
31 35 31 33 39 39 35 25 31 25 24 27 27 26 23 17 14 16 14 9 8 7 6 6 6 5 5 7 10 11 12 12 11 9 8 7 9 10 11 12 11 11 14
32 33 33 35 37 38 39 36 25 27 25 27 27 26 23 20 15 16 17 14 10 8 8 8 8 9 8 6 6 6 6 6 6 8 10 11 11 11 11 13 16 15 13
32 32 34 36 37 37 38 38 37 26 24 26 28 26 24 22 19 16 16 19 19 13 9 9 9 9 10 10 10 10 10 10 11 11 12 13 15 16 16 14 15 15 15
33 31 34 37 37 38 38 38 39 39 26 26 27 31 30 24 22 19 16 15 17 20 22 22 22 21 20 18 18 18 18 18 17 16 16 16 16 17 16 16 17 16 16
37 32 33 36 37 38 38 38 39 40 38 24 30 29 31 33 32 25 22 20 19 18 16 17 17 18 18 18 19 19 19 19 19 19 19 19 19 18 18 17 17 18 18
35 35 32 35 37 38 38 39 39 39 40 38 26 34 37 35 32 34 34 33 32 30 28 27 25 25 24 25 24 24 23 23 23 21 20 20 19 19 18 19 19 20 20
34 43 34 34 36 37 38 39 39 39 40 41 39 32 29 35 41 41 39 38 37 36 36 36 35 35 36 36 37 37 38 38 36 36 34 32 29 26 24 22 21 20 21
44 41 33 33 33 34 36 38 39 40 41 42 42 42 38 35 36 41 47 47 48 47 46 46 44 41 38 39 37 34 31 31 30 33 34 37 40 36 31 27 24 22 20
45 41 36 33 34 33 34 36 39 40 41 42 43 42 42 43 41 38 40 43 49 49 50 50 50 50 49 49 49 49 49 48 45 41 37 30 33 36 39 35 29 26 24
42 45 45 40 36 35 34 34 37 39 40 42 42 42 43 43 43 43 43 41 41 46 47 48 50 50 50 50 52 52 52 52 50 51 47 43 35 35 34 38 37 32 27
29 28 32 37 42 42 38 36 35 37 39 40 42 43 43 44 44 44 44 44 44 44 44 46 50 50 52 51 50 51 53 53 53 54 53 51 43 36 36 37 38 36 32
29 26 24 26 35 39 43 43 41 38 38 40 41 42 44 44 45 46 46 46 46 46 46 46 45 45 46 49 52 53 52 53 54 56 55 55 53 37 37 37 37 37 35
31 29 28 25 22 25 31 36 42 45 43 40 42 44 44 45 46 46 47 47 47 47 48 48 47 47 47 47 47 48 52 53 54 55 57 56 55 43 38 39 38 37 36
35 33 32 33 31 28 26 34 34 37 42 47 45 43 45 47 48 47 47 48 48 48 48 48 48 48 48 48 47 49 49 49 50 54 57 57 57 48 39 40 41 39 39
39 39 37 37 35 32 30 29 30 30 33 38 46 50 51 49 48 47 48 50 51 50 50 50 49 50 50 50 50 50 51 51 49 51 53 58 58 53 40 41 44 43 41
38 38 39 39 38 36 34 33 35 36 34 34 38 40 43 49 52 54 56 56 56 55 55 53 52 52 50 51 51 52 52 53 52 50 51 56 59 57 43 42 43 47 45
22 28 33 35 36 35 34 34 35 38 38 34 36 45 46 42 38 35 35 40 51 56 59 58 57 56 56 57 57 56 56 56 56 53 50 52 58 59 47 43 43 44 47
23 20 19 18 17 21 35 39 39 42 41 40 40 39 39 37 37 37 36 34 34 42 54 59 63 66 67 66 65 63 61 60 60 56 53 52 58 60 54 46 45 42 47
24 20 26 27 15 14 16 23 30 41 48 48 46 46 46 42 42 43 42 42 41 39 46 56 58 60 64 66 66 66 66 60 57 58 57 56 60 60 60 51 48 48 49
24 21 19 16 20 18 13 12 10 14 28 40 51 53 54 53 49 47 44 48 47 47 45 50 53 56 57 62 71 68 66 64 59 57 61 62 64 65 64 57 52 51 50
20 20 18 16 12 11 12 17 21 20 19 18 24 34 43 52 58 56 49 38 38 49 52 56 54 53 61 66 69 75 81 75 68 64 64 67 69 71 69 65 58 56 56
17 19 18 14 12 12 12 12 13 14 15 15 16 16 16 19 24 36 38 38 39 42 48 50 57 64 67 69 70 76 78 72 72 67 66 68 73 75 72 72 66 64 61
18 16 13 12 12 13 14 14 15 15 16 19 20 18 18 20 25 30 35 41 43 46 49 48 56 59 75 74 72 76 78 82 80 75 68 70 74 77 80 80 79 75 75
15 15 14 13 14 16 17 18 19 18 18 18 20 24 22 20 21 24 25 30 39 43 43 41 41 44 58 74 74 74 80 81 80 80 82 75 74 76 83 93 100 97 97
20 20 20 20 20 21 21 21 20 18 16 16 16 16 17 18 15 14 14 15 16 25 41 52 58 56 58 57 96 85 83 76 78 81 77 79 86 85 87 84 95 100 100

GFSSE_700_rhum_057.txt.gz
RH
35 33 37 40 36 30 23 22 24 23 23 24 24 22 17 14 15 14 10 9 9 5 4 5 5 6 8 16 28 29 22 16 15 12 10 8 8 9 11 12 12 11 12
37 33 34 40 40 40 36 28 20 22 24 25 25 23 19 15 15 15 14 10 7 7 7 6 6 6 8 9 11 12 12 10 7 7 8 10 11 11 11 12 14 15 13
39 37 36 40 40 40 40 38 30 17 18 22 25 24 22 19 16 16 17 11 9 9 9 9 9 8 7 6 7 8 9 10 11 11 12 12 14 15 16 15 14 14 15
37 38 38 40 39 39 39 39 39 32 19 20 24 24 24 23 20 17 16 19 19 18 17 16 14 12 12 11 13 14 16 17 17 17 16 16 16 16 16 16 16 16 16
35 36 37 38 38 39 39 39 39 40 36 25 21 24 27 26 23 21 20 17 16 15 16 16 16 16 16 17 18 18 20 20 20 20 20 19 18 18 18 18 17 17 18
34 34 35 38 38 39 39 39 40 41 40 38 32 23 25 29 31 30 29 27 26 25 26 26 26 27 27 28 29 31 32 33 34 34 32 31 29 26 23 21 20 19 19
33 34 34 37 38 39 39 40 40 40 41 40 40 38 31 25 28 30 33 34 35 35 34 33 32 31 31 30 30 30 30 30 31 30 28 30 33 34 33 30 27 24 22
33 32 34 36 38 38 39 40 40 40 41 42 41 40 41 36 30 28 34 38 40 42 42 43 43 44 44 43 42 44 42 42 42 42 40 34 28 26 28 32 32 28 26
37 33 34 35 37 37 38 40 40 41 41 42 40 42 42 42 41 39 37 32 34 37 39 43 45 44 42 42 40 43 45 44 45 45 45 44 43 34 29 26 28 34 31
37 37 34 34 36 37 37 39 40 41 42 43 43 43 43 43 44 44 44 44 42 42 42 40 40 40 40 41 44 42 49 51 50 49 50 52 51 50 40 32 30 29 32
33 36 42 35 34 36 36 36 38 40 42 42 43 43 43 44 44 44 45 45 46 46 46 46 46 46 46 47 46 45 46 48 52 53 52 53 54 54 52 41 34 33 34
47 48 47 40 34 34 34 34 34 37 39 41 42 43 43 44 44 45 45 45 46 47 48 48 48 48 48 48 47 48 48 48 50 50 51 53 53 55 56 53 37 36 37
42 43 44 43 41 39 38 38 37 36 36 37 39 40 42 44 44 45 46 46 47 47 48 48 49 49 50 50 50 50 50 50 51 52 52 51 50 52 56 56 52 37 37
35 32 31 30 31 35 38 42 43 44 44 43 39 39 40 41 42 44 45 46 47 47 48 48 49 49 49 50 50 50 51 51 51 53 54 54 52 50 50 57 58 46 39
34 34 32 30 29 27 27 28 28 30 34 36 40 46 46 44 44 46 47 48 48 49 50 50 50 50 50 50 51 51 51 51 51 52 53 54 55 54 52 52 59 58 44
40 37 35 34 32 32 34 33 30 28 29 30 34 38 38 45 52 51 50 50 52 56 60 60 61 61 61 59 57 55 55 54 53 52 53 53 55 57 57 55 55 59 56
43 41 38 38 37 37 37 38 37 34 31 28 36 41 41 42 44 48 51 55 53 47 45 44 45 48 54 61 64 66 67 67 64 62 58 56 56 59 60 60 59 60 62
32 37 39 39 39 39 39 38 38 38 34 32 30 32 36 38 38 46 50 47 43 39 36 32 31 31 31 38 54 65 71 74 73 70 68 65 63 64 66 65 65 65 64
30 26 26 29 33 37 39 39 38 35 34 33 29 29 32 37 39 39 38 40 40 39 39 40 41 43 42 40 38 41 48 55 62 68 67 71 72 69 65 66 67 68 70
30 26 25 25 23 21 21 22 23 24 24 22 22 28 38 41 42 45 44 45 46 47 47 50 54 54 52 46 44 44 45 48 50 54 62 70 70 69 70 69 70 75 79
32 28 25 28 29 28 25 22 20 19 19 18 20 22 24 32 44 48 47 50 54 58 64 62 56 52 47 45 44 46 51 59 60 64 61 64 69 72 78 80 78 79 85
31 28 29 31 31 30 27 26 24 22 21 20 18 19 24 27 32 28 39 53 55 57 54 49 45 40 32 35 50 64 66 66 62 63 70 71 70 71 76 82 81 80 83
37 35 34 32 29 26 26 25 24 22 20 18 16 14 15 15 16 19 23 25 26 30 25 30 34 29 42 40 44 69 70 55 59 62 67 70 75 76 78 86 84 84 83
42 38 30 25 22 21 22 23 22 20 18 16 13 13 14 15 15 16 17 18 22 31 27 34 34 40 47 53 50 46 45 45 59 56 59 96 75 71 78 84 87 88 93
37 35 31 26 23 23 21 19 17 15 14 13 13 14 15 18 20 22 22 21 19 21 25 29 32 49 51 47 37 58 58 60 72 76 70 67 71 67 74 86 84 80 81
30 28 24 20 19 18 18 15 14 15 16 17 18 19 21 21 21 19 18 16 16 16 18 20 22 24 32 41 63 65 66 66 66 68 60 57 62 65 95 96 77 95 89

GFSSE_700_rhum_060.txt.gz
RH
31 27 36 39 35 28 21 19 22 22 24 25 24 20 16 14 15 14 12 6 6 5 5 5 6 7 8 13 21 18 14 12 9 8 7 8 10 11 12 11 12 14 15
34 31 31 40 40 38 31 21 19 22 24 25 24 22 18 15 15 16 11 8 8 8 8 8 6 7 8 10 10 8 8 8 10 11 11 12 13 13 15 15 14 13 13
37 36 30 40 40 40 39 34 23 17 20 23 24 23 22 19 16 16 16 14 12 12 11 10 10 9 10 10 11 12 13 15 16 17 17 16 16 16 15 15 16 15 16
39 37 30 40 40 40 39 38 37 27 18 18 21 24 24 22 20 17 16 17 18 18 19 18 18 18 18 18 18 18 19 19 20 20 20 19 18 18 18 17 17 17 17
39 38 33 40 40 40 40 39 38 38 31 24 19 22 26 27 25 23 22 22 22 22 22 22 23 24 25 26 28 30 31 32 33 33 32 31 30 27 24 22 21 20 19
37 37 36 38 39 40 40 40 39 40 40 38 31 25 22 27 30 30 31 32 32 32 31 31 31 32 32 32 32 32 31 30 28 27 25 24 26 31 32 30 28 25 23
35 36 35 37 38 40 40 40 40 40 41 41 40 39 33 26 26 29 33 35 36 36 36 36 37 38 40 41 41 40 41 40 40 41 41 37 30 25 24 29 33 30 27
34 34 34 36 38 39 40 40 40 41 42 43 42 42 42 38 37 34 30 32 34 35 37 41 41 39 38 38 37 38 41 42 42 42 44 46 46 43 33 29 27 31 32
32 34 34 35 37 38 39 40 40 41 42 42 42 44 44 43 44 44 44 42 40 39 38 36 35 35 35 35 37 38 41 43 45 46 45 46 49 51 48 38 32 31 31
38 33 34 34 36 38 38 40 41 41 42 43 44 43 44 45 45 45 45 46 46 47 47 46 46 46 45 45 46 46 46 46 44 44 46 47 46 50 54 50 38 34 34
39 38 36 34 35 37 37 38 40 41 42 43 44 44 44 45 45 45 46 46 47 47 48 48 49 48 48 48 48 48 49 49 50 51 51 47 46 47 51 54 53 38 35
27 35 37 36 34 36 36 36 38 40 41 42 43 43 44 44 45 45 45 46 46 47 48 48 49 49 49 50 50 50 50 51 52 53 53 53 53 50 48 49 54 55 39
48 45 44 46 39 35 35 35 34 35 36 38 39 41 42 43 44 44 45 46 47 47 48 48 49 49 50 50 50 50 51 51 51 52 53 54 55 54 53 50 47 55 55
50 48 46 44 41 38 36 37 38 39 39 38 38 39 39 40 41 43 44 45 46 46 47 48 49 49 49 50 50 50 51 51 51 52 52 53 54 56 56 55 52 47 53
40 36 34 33 34 36 37 36 40 41 41 40 40 42 47 47 46 45 46 47 48 49 50 52 53 54 55 56 56 56 55 54 53 53 53 53 53 54 56 57 57 54 50
37 35 34 33 32 30 28 29 29 27 26 25 27 33 39 40 42 50 53 52 52 54 57 59 62 61 62 61 62 64 65 65 64 62 60 59 57 56 57 58 60 60 61
46 45 38 36 35 33 33 36 36 36 34 31 29 28 32 36 40 42 43 49 56 56 52 44 39 36 33 32 34 44 56 66 69 70 70 68 69 66 64 65 67 66 63
47 45 45 44 40 38 37 38 39 39 38 38 36 34 28 30 35 36 38 48 51 48 45 43 41 39 36 37 38 40 38 41 55 66 68 72 73 72 73 74 74 72 70
37 38 37 34 35 38 39 39 40 40 40 39 39 36 36 34 34 38 40 42 47 46 42 41 40 43 46 48 49 48 48 46 47 50 55 58 61 67 72 74 77 76 74
40 37 32 26 24 24 26 29 32 32 31 31 30 32 38 35 33 40 41 42 46 47 48 50 52 54 58 59 54 51 46 44 44 46 55 63 65 65 69 74 80 83 83
45 42 38 34 30 27 27 27 25 23 22 21 20 22 24 25 29 32 35 45 51 50 54 60 61 62 59 59 47 41 34 30 41 56 62 60 60 67 74 75 76 78 84
44 40 36 33 32 29 30 31 30 29 32 28 24 23 23 22 18 16 17 25 31 34 44 57 56 44 37 31 34 32 41 39 39 55 70 65 65 67 71 81 82 85 86
39 36 34 34 34 33 34 33 31 30 29 28 27 26 23 21 18 15 14 13 14 15 16 19 20 28 32 29 42 45 55 58 55 37 38 44 53 61 63 73 84 86 88
42 40 38 37 36 34 32 27 23 22 22 23 24 24 23 21 19 18 18 18 18 19 20 23 25 29 51 49 39 44 54 49 39 31 49 52 59 76 76 73 79 90 79
38 37 36 34 32 29 26 22 19 18 16 16 15 15 15 16 16 16 16 17 19 21 21 21 22 25 28 26 29 29 29 42 42 59 57 59 62 60 55 55 59 70 73
44 36 36 34 30 25 22 20 17 17 17 15 15 15 15 16 17 19 20 21 21 20 18 18 18 19 20 21 22 27 34 48 71 54 42 41 38 39 41 41 43 43 42

GFSSE_700_rhum_063.txt.gz
RH
29 32 34 33 25 18 17 20 22 25 25 23 20 17 15 16 16 9 7 6 6 6 6 7 8 9 10 15 16 11 9 8 9 11 11 12 12 13 14 14 14 14 13
31 34 36 38 35 27 19 17 20 23 24 24 22 20 17 16 15 12 10 9 9 9 9 7 7 8 9 8 9 11 13 14 16 16 16 16 16 15 15 15 15 15 16
33 33 37 40 40 37 34 24 17 18 21 24 23 22 20 17 16 16 18 19 19 17 15 12 11 11 12 14 17 18 18 18 19 19 19 19 18 18 18 17 17 17 17
36 33 37 40 40 39 38 37 29 20 18 19 22 23 23 21 19 17 16 16 16 17 17 18 18 18 19 21 24 26 27 30 31 31 30 28 27 24 23 22 20 20 25
38 34 34 41 40 40 40 39 38 35 27 20 18 21 25 26 25 24 25 26 27 27 27 28 30 30 31 32 31 30 29 29 28 27 26 26 30 30 31 30 28 26 24
38 36 32 40 40 40 40 40 40 40 38 33 27 22 21 25 27 29 30 30 30 30 30 31 32 32 34 36 36 35 34 33 33 34 34 32 27 24 23 26 31 30 27
38 38 32 37 39 40 40 40 40 41 42 41 40 34 29 27 26 27 30 31 32 32 34 37 38 38 36 36 35 35 34 33 33 33 33 34 36 37 32 28 25 27 31
37 37 36 36 38 40 40 40 41 42 42 43 43 43 40 38 39 39 36 33 31 29 29 30 31 32 33 33 34 35 36 38 39 40 38 38 40 42 42 41 31 30 29
35 35 36 37 37 39 40 40 41 42 42 43 44 44 44 44 44 45 45 46 46 46 45 44 43 44 42 43 44 43 44 45 47 47 44 44 45 44 46 48 45 33 34
34 34 34 36 37 38 39 40 40 40 41 43 44 44 45 46 46 46 46 47 47 48 48 48 49 50 50 49 49 49 50 50 50 51 52 52 50 46 44 45 51 48 34
35 33 34 35 36 37 38 39 41 41 42 43 44 44 44 45 46 46 46 47 47 48 48 48 48 49 49 49 50 50 51 51 52 52 53 53 53 53 52 49 42 48 51
41 38 33 34 35 36 37 38 39 41 42 42 43 44 44 45 45 45 46 46 47 47 48 49 49 49 50 50 50 51 51 51 51 52 52 53 54 55 55 54 53 46 43
37 40 39 35 35 36 36 36 37 39 40 40 42 42 43 44 44 44 45 46 46 47 48 48 48 49 49 50 50 50 51 51 51 51 51 52 52 53 54 56 56 55 51
49 42 42 43 38 36 36 36 36 35 35 36 37 38 38 39 40 42 43 44 45 45 46 47 48 49 50 51 51 52 53 54 53 53 52 53 53 53 53 54 56 58 57
56 54 51 50 46 40 37 36 36 37 39 41 43 44 45 46 46 46 46 46 47 48 50 51 52 54 58 60 61 62 61 61 61 60 60 59 58 58 57 57 57 58 60
61 47 45 44 44 44 44 44 44 43 40 37 34 34 34 38 40 42 45 52 54 54 55 57 60 61 60 54 48 43 41 42 46 55 62 65 65 65 66 66 64 62 63
67 43 38 37 34 33 31 29 30 30 31 31 30 28 28 28 29 35 40 42 45 49 51 53 50 45 42 40 36 35 34 35 36 39 44 54 62 68 70 73 72 73 73
62 44 41 37 35 34 34 33 35 37 38 38 38 37 37 35 31 29 31 35 41 47 48 48 47 44 42 40 39 42 46 48 50 48 45 46 51 56 62 70 75 76 76
60 52 48 45 43 41 39 39 38 39 40 40 40 40 41 40 37 33 32 36 42 42 44 47 46 44 42 45 49 51 57 59 60 52 48 47 52 57 59 64 67 72 79
43 40 38 37 34 31 31 35 36 37 38 39 41 40 39 36 35 33 32 36 45 48 49 50 51 52 53 54 62 65 63 59 48 41 34 38 58 62 65 69 73 71 74
46 43 39 38 36 33 28 26 25 24 24 23 23 23 23 22 23 24 24 29 34 40 49 55 56 59 59 66 63 52 40 32 31 35 42 43 48 66 72 73 68 72 77
48 45 42 39 39 37 34 32 28 28 28 28 28 28 28 25 26 24 24 22 18 18 23 33 40 35 39 41 33 24 36 37 38 44 53 57 55 49 51 56 69 74 78
53 50 47 44 40 35 31 29 28 28 28 29 29 28 27 25 24 22 21 19 16 15 14 16 17 19 20 19 22 26 36 55 34 31 37 34 35 42 53 57 67 71 70
47 44 40 39 37 36 36 36 35 34 30 25 22 19 18 18 19 19 20 20 18 16 16 18 20 22 32 33 33 24 29 27 26 29 32 35 52 56 53 57 60 63 61
43 42 39 39 40 42 41 40 35 30 26 22 20 18 16 15 14 14 14 15 16 19 21 23 24 23 30 36 28 24 25 22 21 23 28 38 61 44 36 35 37 37 39
46 46 46 43 38 38 38 36 34 29 25 22 17 15 14 13 13 14 15 17 18 19 20 21 20 19 18 19 18 20 21 22 25 42 52 42 39 38 32 29 30 22 24

GFSSE_700_rhum_066.txt.gz
RH
28 28 25 17 14 17 19 21 22 23 22 19 17 15 16 11 8 8 7 6 6 7 9 13 19 14 14 13 9 8 9 11 12 13 14 15 15 15 14 14 15 15 15
34 32 31 25 19 15 17 20 22 23 22 21 19 17 15 14 12 11 10 9 9 7 6 7 9 10 9 10 13 14 16 16 16 16 16 17 17 17 17 16 16 17 17
35 34 35 33 32 26 18 17 19 22 23 22 21 19 17 16 17 18 19 18 16 12 10 9 10 12 16 18 18 19 21 22 23 22 22 21 22 20 19 19 19 20 34
33 34 38 39 38 36 33 25 19 18 20 22 23 22 20 18 17 16 16 16 17 17 17 18 18 19 22 26 28 29 28 28 28 28 28 29 30 29 29 28 27 39 27
34 34 38 40 40 39 38 37 32 23 19 19 21 24 25 24 24 25 26 27 27 27 28 28 29 29 29 29 29 29 29 29 29 28 26 24 22 21 22 24 27 27 26
34 34 39 40 40 40 39 39 38 36 30 23 20 20 23 25 27 28 29 29 30 30 30 31 33 33 32 31 30 29 28 29 29 31 32 33 32 30 27 24 22 23 25
36 33 39 38 40 40 40 40 40 41 40 37 31 26 26 25 24 26 28 30 32 34 34 34 32 30 30 30 30 30 30 31 32 32 32 34 36 37 38 33 29 27 25
38 36 39 38 39 40 40 40 41 42 42 42 41 38 35 34 36 36 36 36 34 32 33 35 36 37 37 38 39 41 40 41 41 40 37 35 35 36 39 42 40 31 31
39 38 38 39 39 40 40 41 41 42 42 43 44 43 43 43 44 44 42 42 45 47 48 48 48 49 49 49 49 49 50 49 50 49 49 49 46 43 41 37 39 42 35
35 38 38 38 38 39 40 40 41 42 42 43 44 45 45 46 46 46 47 47 48 48 48 48 49 49 49 50 50 50 50 51 51 51 52 53 53 53 53 51 47 38 43
33 34 36 37 38 38 39 40 40 40 41 42 43 44 44 45 46 46 46 47 47 48 48 48 49 49 49 50 50 50 50 51 51 51 51 52 53 54 54 55 55 53 46
34 34 33 35 36 37 38 39 40 40 40 42 43 44 44 44 45 45 46 46 47 47 48 48 49 49 50 50 50 50 51 51 51 51 50 51 51 52 53 53 55 56 56
46 35 34 34 34 35 37 38 38 40 41 41 42 43 43 44 44 44 45 45 46 46 47 47 48 48 48 49 49 50 50 51 52 52 53 52 52 52 53 53 53 55 57
51 50 43 35 35 35 36 36 37 38 39 39 40 41 41 41 41 41 42 43 44 44 45 45 46 47 49 50 52 54 56 58 59 59 59 59 59 58 57 56 56 56 56
42 41 45 44 37 36 37 36 36 36 36 35 36 37 37 39 42 43 43 44 44 45 46 48 50 51 52 55 58 60 59 54 48 42 42 43 50 59 64 64 64 63 61
62 62 60 58 54 47 40 38 37 36 36 36 40 44 44 42 39 40 42 44 48 51 52 53 54 56 57 56 52 44 39 35 32 31 32 33 34 40 51 61 69 72 72
66 62 59 55 50 46 43 40 40 43 44 43 36 29 28 27 27 27 29 36 40 40 40 43 47 48 48 45 43 42 38 38 40 44 45 46 44 42 42 46 58 67 73
69 64 59 49 44 42 42 40 36 32 30 30 33 35 36 36 37 35 33 31 30 31 33 36 43 46 47 46 44 42 41 46 52 55 58 56 51 45 45 50 57 59 60
67 61 52 42 41 36 34 33 32 33 34 36 38 39 39 40 42 42 39 38 35 34 34 37 41 45 47 48 48 50 53 58 63 70 68 55 44 41 37 52 61 64 67
68 59 49 48 45 39 39 39 39 39 39 39 40 41 43 43 42 40 36 37 39 37 40 44 48 50 52 57 60 58 61 67 69 66 48 31 35 38 39 48 62 68 68
65 63 54 48 42 39 36 33 30 29 31 31 30 31 28 27 25 24 22 23 26 26 30 33 40 43 52 56 64 58 47 54 53 27 39 41 44 52 53 50 55 69 71
50 47 43 40 39 39 39 38 36 33 30 27 28 28 28 28 27 27 26 25 25 24 25 23 23 34 42 40 33 32 26 25 23 22 37 52 37 47 52 48 44 45 48
53 49 45 44 40 39 40 39 37 34 30 29 28 29 30 31 31 29 27 25 24 23 22 21 21 20 23 25 29 38 33 42 40 23 26 24 24 26 34 41 55 58 57
57 53 48 46 46 44 44 41 36 32 31 30 31 31 29 26 22 19 17 16 16 16 18 19 18 19 21 21 21 24 34 44 32 30 22 18 19 24 31 55 46 37 40
61 52 48 48 48 42 37 36 36 38 39 37 34 29 26 22 19 17 15 13 12 13 14 15 16 18 20 22 22 21 22 25 23 23 20 21 30 59 48 40 36 29 25
47 46 44 41 38 38 38 41 43 42 39 36 33 29 25 21 17 14 13 13 14 15 17 19 21 22 21 20 19 19 20 23 26 29 30 36 42 65 56 42 26 18 19

GFSSE_700_rhum_069.txt.gz
RH
26 22 14 11 16 17 20 21 22 20 18 16 16 15 9 8 7 6 5 9 24 34 50 52 18 11 11 8 8 11 12 13 14 15 15 15 15 15 15 16 16 16 16
32 26 17 12 13 14 17 20 21 21 20 18 16 14 12 11 10 9 8 7 6 7 8 10 9 8 10 13 15 16 16 17 17 18 18 18 18 17 17 18 18 21 22
32 29 22 18 14 13 15 18 20 21 20 19 17 16 16 18 18 17 16 12 9 8 8 8 11 15 17 18 21 23 24 25 26 27 26 27 28 27 26 26 56 46 21
32 33 30 29 27 23 17 15 18 20 22 21 20 18 17 16 16 16 16 16 17 17 17 18 19 22 26 28 28 26 25 24 23 22 21 21 20 21 23 25 27 26 25
33 36 36 37 37 34 31 24 18 17 20 22 24 24 24 24 25 25 25 26 26 26 28 28 28 28 28 29 29 29 27 26 28 26 28 28 26 25 22 21 19 20 23
36 38 39 39 39 38 38 36 33 25 20 19 20 24 25 28 29 29 29 29 29 29 30 30 30 30 29 28 28 28 28 29 26 28 30 30 30 31 30 27 25 24 22
37 39 40 38 39 39 39 39 40 38 32 26 23 22 22 25 27 29 30 31 31 31 30 28 27 27 28 29 30 29 29 29 27 30 30 29 29 30 32 34 34 29 28
34 39 40 39 39 40 40 40 40 41 40 38 35 31 30 31 32 32 32 30 30 31 34 35 35 36 39 42 44 47 48 49 48 49 50 50 48 44 39 34 33 36 34
35 39 40 39 39 40 40 41 41 42 42 43 43 42 41 43 44 44 43 42 43 46 46 48 48 49 49 50 50 50 50 51 51 51 52 52 52 53 53 53 50 42 36
38 37 40 39 40 40 40 41 41 42 42 43 44 44 44 44 46 46 47 48 48 48 48 48 48 49 49 49 50 50 50 51 51 51 51 51 52 52 53 53 54 55 54
38 40 39 39 39 39 40 41 41 41 42 43 43 44 45 45 46 46 46 47 47 48 48 48 49 49 50 50 50 50 51 51 51 51 51 51 50 51 52 52 52 52 55
36 40 42 40 39 39 39 39 40 40 40 41 42 43 44 44 44 45 45 46 46 46 47 47 48 49 49 49 49 50 50 50 51 51 52 53 54 54 53 53 53 52 53
36 34 35 38 39 38 38 38 39 39 40 40 41 42 43 44 44 44 45 45 45 46 46 46 46 47 47 48 48 50 51 53 55 57 58 59 58 56 58 58 58 58 57
48 38 34 33 35 36 36 37 38 39 40 40 40 41 41 42 42 42 42 42 42 43 44 44 45 46 47 49 51 52 54 56 56 50 44 40 34 34 39 44 55 61 63
59 52 47 38 35 34 34 36 37 38 38 38 38 38 38 38 38 38 40 42 43 44 45 46 47 48 50 52 53 54 53 48 41 36 33 32 34 35 36 36 35 42 57
50 54 54 53 45 37 37 36 36 36 37 37 36 35 36 38 43 44 41 38 39 42 44 47 49 51 54 53 50 48 43 41 38 36 38 44 45 46 47 43 40 40 40
47 49 54 57 48 49 42 39 38 38 37 36 36 37 43 42 32 28 28 28 27 27 32 35 37 37 40 45 45 45 43 42 40 42 46 51 55 58 54 47 42 37 42
48 47 56 53 49 50 54 50 44 40 38 40 44 42 31 32 34 36 37 37 36 34 29 26 29 33 36 41 44 46 46 45 47 52 56 62 66 63 53 33 37 33 38
57 61 64 58 56 54 50 47 45 45 44 38 32 34 37 39 40 40 41 42 42 39 36 34 35 38 39 41 45 50 55 58 57 59 60 66 65 48 32 29 35 38 39
64 67 68 57 50 48 48 42 39 37 36 36 37 38 41 42 42 42 42 43 41 36 32 34 31 32 33 42 44 44 52 54 52 54 47 48 45 25 42 44 44 52 49
71 66 69 57 48 46 42 40 40 41 44 44 43 41 40 39 36 30 26 24 25 25 26 27 33 29 30 33 37 45 47 39 30 28 30 30 28 28 52 39 35 46 46
76 74 71 60 56 52 49 47 43 38 33 29 27 27 27 26 27 27 28 28 32 35 32 31 33 30 29 31 37 37 32 27 29 38 33 40 29 31 28 23 28 34 38
66 66 69 65 54 44 40 39 38 38 36 36 34 31 30 29 30 29 30 31 31 30 28 25 25 26 25 24 26 27 27 24 29 35 38 33 20 22 20 20 24 32 63
62 59 59 52 46 44 44 41 40 41 40 38 35 32 31 32 33 32 30 26 23 20 18 18 19 19 20 20 23 22 24 28 32 37 41 27 19 19 22 26 55 47 42
62 61 58 52 47 44 46 45 45 44 43 40 36 35 36 36 34 31 28 25 22 19 16 15 14 15 17 19 21 24 22 24 22 23 21 23 30 36 36 40 64 55 38
65 59 56 51 51 51 50 50 44 39 39 41 39 37 37 35 32 30 25 21 18 15 14 14 15 17 19 21 23 23 22 21 21 25 27 34 57 63 59 50 52 46 27

GFSSE_700_rhum_072.txt.gz
RH
24 15 12 13 15 16 17 18 18 16 14 14 12 10 8 6 4 9 38 62 70 70 79 41 12 11 8 10 12 13 15 16 16 16 16 16 17 16 16 16 16 17 18
29 16 11 11 13 15 16 16 18 17 16 14 13 12 11 10 8 6 6 10 10 11 12 9 8 12 14 16 17 18 20 22 22 23 22 22 23 22 22 25 32 22 19
28 18 11 10 12 13 14 16 17 18 17 15 15 15 16 16 15 13 10 7 7 7 7 10 16 18 21 23 25 25 25 24 23 22 20 20 21 22 27 27 24 25 25
28 23 17 14 13 12 13 15 16 18 18 18 17 15 15 15 16 16 16 16 15 16 17 18 23 26 27 26 24 24 24 25 24 20 21 23 22 21 19 19 18 19 20
30 30 29 27 25 20 15 14 14 16 18 20 21 21 22 23 24 23 23 23 23 24 26 27 28 28 27 26 24 23 22 23 22 22 22 23 24 26 26 25 24 22 21
30 34 35 34 35 33 29 24 18 15 16 19 22 24 26 27 27 27 27 27 28 28 29 29 29 26 24 22 20 21 21 23 21 22 24 24 25 25 24 26 28 27 25
30 36 37 35 37 38 38 37 34 26 20 19 18 20 22 24 25 26 26 26 27 26 25 24 24 24 24 30 36 40 44 48 47 49 51 51 51 49 45 38 30 29 31
36 38 38 36 37 38 39 39 40 39 36 32 28 25 24 26 27 27 27 28 31 34 37 38 41 45 46 47 48 50 51 51 51 50 51 52 52 53 53 53 53 52 41
38 39 39 38 37 38 39 39 40 41 41 41 40 38 37 42 44 44 44 42 43 44 46 47 47 48 49 50 50 51 51 51 52 52 52 51 51 51 52 52 52 51 54
41 40 40 40 40 40 40 40 40 40 41 42 43 43 43 43 45 46 47 48 49 49 49 49 49 50 50 50 51 51 51 52 52 52 52 52 53 53 53 53 53 53 52
40 39 40 40 40 41 41 41 41 42 42 42 43 43 44 45 45 46 46 47 48 48 48 49 49 50 50 50 50 51 51 51 51 52 53 55 56 57 57 56 56 56 55
39 40 40 40 40 40 41 41 42 42 42 42 42 43 43 44 44 45 45 46 46 47 47 48 48 48 49 49 49 49 50 51 53 55 57 56 53 46 43 42 46 53 58
62 41 39 40 39 39 40 40 41 41 40 41 41 42 43 43 43 44 44 44 45 45 45 45 46 46 46 47 48 50 51 53 54 53 50 40 32 28 28 30 32 35 41
59 66 47 46 41 39 39 38 39 39 40 40 40 41 42 42 42 42 41 41 41 42 42 43 44 45 46 48 49 51 52 51 50 44 38 34 33 36 39 40 40 39 37
56 44 42 40 39 40 40 39 38 38 39 40 40 40 40 40 39 39 38 42 43 43 42 42 45 45 46 47 48 47 46 41 40 38 36 36 41 44 47 51 50 46 38
57 50 49 44 39 35 38 36 37 38 37 38 38 38 39 37 37 38 43 34 30 27 26 26 28 32 34 34 34 38 39 40 41 40 40 43 48 53 58 60 56 51 30
66 62 61 60 58 46 40 37 36 36 37 36 37 37 37 36 41 42 28 30 32 34 33 32 28 23 23 28 32 35 38 39 41 44 47 48 51 53 58 60 53 37 29
51 49 52 58 56 55 51 47 42 40 39 38 37 37 37 43 36 32 36 37 38 39 38 38 34 31 29 31 32 34 38 39 42 45 52 56 53 44 38 37 31 32 36
54 51 53 53 44 50 46 44 48 47 46 42 39 41 44 33 36 38 39 40 42 41 39 35 31 27 28 30 35 36 41 42 43 53 48 45 40 36 25 21 22 30 47
63 54 58 53 57 56 55 53 52 51 48 48 47 40 36 37 38 40 40 41 40 37 28 25 24 25 27 30 32 30 35 38 47 52 40 31 34 39 35 36 26 38 33
68 63 62 62 64 61 59 61 59 51 50 47 40 39 38 41 42 37 32 27 26 26 28 30 35 37 34 34 35 32 32 39 43 39 26 24 30 37 48 30 30 28 24
73 72 69 67 70 64 53 51 51 50 47 45 47 44 36 36 28 26 26 27 29 30 32 36 36 33 30 28 28 26 22 23 26 26 25 20 23 32 38 23 22 21 20
70 66 74 71 68 66 58 52 49 47 45 44 43 38 40 35 34 32 31 30 29 31 31 28 26 24 21 19 21 24 28 25 23 24 27 27 23 23 22 27 22 23 25
60 67 68 73 72 71 66 56 49 42 41 42 41 41 41 38 36 34 33 32 32 31 28 26 23 22 20 18 16 18 21 41 44 28 26 25 22 21 20 24 31 38 40
56 57 67 67 68 69 62 50 44 44 44 44 44 43 42 40 37 37 38 37 34 32 29 25 22 18 16 15 17 19 20 22 23 26 22 24 28 27 56 34 58 59 51
72 63 63 66 62 61 53 50 50 56 54 48 44 42 41 39 40 41 39 35 31 27 24 21 19 16 15 16 18 20 21 21 20 20 22 26 33 56 89 97 66 63 50

GFSSE_700_rhum_075.txt.gz
RH
22 16 16 16 17 16 17 16 15 14 14 12 9 7 4 6 26 78 83 85 84 80 59 11 9 8 12 14 16 16 16 17 18 18 18 19 19 18 19 21 19 18 18
24 16 13 14 14 15 17 17 16 14 13 12 11 10 7 6 8 23 47 46 30 28 11 8 12 16 18 19 22 22 22 22 22 23 22 22 22 22 23 22 24 24 24
23 14 11 12 12 14 16 15 15 15 13 13 13 13 12 11 9 7 7 7 7 8 11 16 18 21 24 24 23 22 21 20 20 19 19 21 20 19 18 17 16 16 17
20 12 10 10 10 12 14 15 16 16 15 14 14 14 14 15 16 14 13 12 14 17 18 22 24 25 24 24 22 20 18 18 17 17 20 22 22 23 22 21 21 20 19
20 15 13 12 11 11 12 14 15 16 17 18 17 17 18 18 18 18 18 19 21 25 26 26 24 24 23 21 20 19 19 18 18 21 22 23 23 23 23 24 24 25 24
26 25 23 21 19 16 13 13 13 14 16 19 20 21 22 23 24 24 24 25 25 25 25 24 22 21 21 24 29 33 38 46 44 47 48 48 50 49 48 47 38 28 28
33 33 31 27 29 28 26 21 16 14 14 16 17 18 20 21 21 21 22 23 22 22 22 24 28 36 43 45 47 49 50 50 51 50 50 50 50 51 52 51 50 51 52
37 37 36 33 32 33 36 35 33 28 23 20 19 20 22 23 23 23 24 27 31 35 38 40 43 46 48 50 51 52 52 53 53 53 53 53 53 53 53 54 53 53 51
39 39 38 36 34 36 37 39 40 39 38 37 34 31 36 39 41 41 42 45 47 48 48 49 50 51 51 52 52 52 52 53 52 53 53 54 54 55 56 56 56 56 55
39 40 40 39 37 37 38 39 40 40 41 41 41 41 41 41 43 45 46 48 48 49 50 50 50 51 51 52 52 52 52 52 52 52 54 56 57 56 52 48 48 50 53
41 39 40 41 40 40 40 40 41 41 41 42 42 43 43 44 45 46 46 47 48 48 48 49 49 50 50 50 50 50 50 51 52 54 56 55 46 38 31 29 31 33 36
61 40 40 41 41 41 41 42 42 42 43 43 43 43 42 43 45 45 45 46 46 47 47 47 48 48 48 48 48 48 50 51 52 52 52 43 35 31 31 34 36 37 36
76 60 39 40 41 41 42 42 42 42 42 42 42 42 42 43 43 43 43 44 43 44 44 44 44 44 45 46 47 49 50 51 47 43 42 38 33 35 40 43 46 48 47
86 75 62 39 40 40 41 42 42 42 42 41 41 41 41 42 41 41 41 40 40 41 42 42 42 43 45 47 44 44 44 42 40 40 40 38 37 41 45 49 54 56 52
77 80 73 48 42 39 39 39 40 40 40 40 40 41 41 41 41 39 39 40 41 34 28 26 26 23 24 25 28 29 29 32 37 39 40 40 43 47 51 53 55 54 52
66 77 76 63 52 45 41 40 39 39 39 39 39 39 39 40 40 38 38 40 28 29 31 32 32 31 26 21 20 22 24 25 28 31 36 44 52 55 57 54 49 46 46
64 82 82 65 54 42 38 41 44 40 38 38 38 38 38 38 38 37 43 29 32 34 36 37 37 36 32 28 24 22 22 24 31 35 37 38 45 47 46 42 38 34 28
72 64 73 91 72 53 49 41 40 38 37 38 38 38 38 38 37 42 33 34 36 37 38 38 36 31 27 25 27 28 28 29 30 33 34 41 53 56 49 26 32 32 31
58 64 65 70 71 60 58 54 52 50 48 49 44 41 39 39 42 38 35 38 37 37 35 33 29 24 24 24 26 29 32 33 34 37 38 53 51 43 35 43 35 38 26
61 55 54 58 55 58 52 47 45 47 48 49 49 46 42 47 41 37 38 39 40 37 28 25 26 28 30 33 33 30 34 34 34 29 33 33 33 36 40 32 41 43 23
63 56 57 57 60 62 58 56 58 55 56 57 52 55 51 44 40 39 41 38 28 27 28 28 28 30 31 30 26 23 20 18 18 21 23 29 25 35 24 30 40 42 24
68 67 62 63 62 61 63 61 63 66 64 64 63 60 56 53 45 40 38 31 30 31 30 30 29 29 28 25 23 21 18 16 14 15 20 25 26 22 20 22 23 22 21
62 67 64 69 71 70 66 66 64 61 56 54 56 52 50 52 50 42 38 38 34 34 34 32 31 30 28 26 25 23 20 16 14 14 17 24 25 22 22 22 18 19 23
59 59 61 66 62 70 72 70 70 66 59 53 53 50 49 48 46 45 41 39 36 37 36 36 33 32 30 26 22 20 18 16 17 15 16 24 26 24 22 20 19 23 34
65 58 56 58 61 64 75 75 71 69 58 52 48 44 44 44 45 46 44 42 41 41 39 36 32 29 26 23 21 18 17 18 20 22 21 23 24 24 24 24 30 36 69
66 59 62 61 59 67 69 72 74 71 66 55 52 56 51 52 50 49 45 42 42 39 36 32 28 27 25 21 16 16 18 20 20 21 20 20 22 26 32 43 82 72 87

GFSSE_700_rhum_078.txt.gz
RH
20 17 17 17 16 16 16 15 14 14 13 9 6 4 7 42 83 85 89 90 86 81 21 8 9 12 14 17 18 20 22 23 23 22 21 21 22 24 23 23 23 23 22
21 16 16 17 16 16 15 15 13 13 11 10 7 5 12 57 74 73 83 77 67 28 8 13 16 18 20 22 22 21 20 19 19 18 17 17 17 16 16 16 16 16 17
19 14 14 15 14 14 14 14 14 12 12 12 10 8 7 12 26 41 25 11 10 9 16 19 20 22 22 21 20 21 22 21 19 19 18 18 19 19 19 19 19 18 18
17 12 14 14 13 13 13 13 13 13 14 14 14 14 13 10 8 8 8 8 14 18 21 23 23 22 21 20 18 19 19 20 19 20 20 20 22 22 21 22 22 23 22
14 12 13 13 12 12 12 12 13 14 14 14 14 14 15 15 15 16 16 17 20 24 23 22 21 19 18 17 20 30 37 38 40 45 44 44 47 45 44 44 40 32 27
12 12 12 11 11 11 11 11 12 14 17 17 18 18 19 20 20 21 22 24 23 22 22 20 20 23 29 37 44 48 48 52 52 51 50 49 51 51 51 50 49 48 49
15 15 14 14 12 12 11 11 11 13 16 18 19 19 20 20 20 21 21 21 20 21 24 30 37 40 44 48 50 52 53 54 54 54 53 53 53 54 54 54 54 54 53
21 22 21 22 22 19 16 14 13 13 14 16 17 18 19 19 20 21 23 26 29 33 38 42 46 49 50 52 52 53 53 54 54 53 54 55 55 54 53 51 50 51 53
26 28 30 32 32 32 31 30 27 24 20 20 21 24 29 32 34 37 41 44 46 48 49 50 51 52 52 52 53 53 52 52 52 53 55 55 52 46 40 34 31 34 38
30 31 35 37 38 38 39 39 39 39 38 37 35 34 35 37 41 42 44 47 48 49 50 50 50 50 51 51 51 51 51 51 52 53 56 51 41 33 29 28 30 32 33
45 34 35 38 40 40 41 41 42 42 42 42 42 42 42 42 44 45 46 46 47 48 48 49 49 49 49 49 49 49 49 51 51 51 50 42 36 31 32 37 40 41 42
68 52 36 38 40 41 42 42 43 43 43 43 43 43 44 44 45 45 46 46 47 47 47 46 46 46 46 46 47 48 49 50 48 49 43 39 35 34 39 42 46 50 52
84 80 47 38 41 42 42 43 43 44 44 44 44 43 44 44 44 45 45 45 45 44 44 43 44 44 45 46 47 48 50 48 43 41 41 41 39 38 42 46 50 53 56
92 90 78 43 40 42 42 43 43 43 44 44 43 43 43 43 43 44 43 43 42 41 41 40 37 32 34 35 39 40 33 34 32 33 38 40 40 42 46 49 51 49 41
58 84 91 66 42 40 41 42 43 43 43 43 42 41 42 42 42 42 41 40 41 38 29 28 28 28 27 24 20 19 20 23 26 29 33 38 44 49 54 50 43 35 35
73 69 71 87 71 45 41 41 42 42 42 42 41 40 40 41 41 40 40 38 43 31 31 33 34 34 33 30 26 22 22 22 22 24 31 35 40 44 49 50 50 31 28
63 73 80 70 86 67 50 43 40 39 40 40 40 40 40 40 39 39 39 38 40 32 34 35 34 32 30 25 22 21 22 23 25 27 29 32 36 42 56 53 52 37 33
81 83 78 82 74 82 85 62 53 44 44 43 40 38 39 39 39 39 38 42 33 35 36 38 36 31 26 24 24 25 26 28 30 30 32 32 32 44 52 55 41 40 33
68 73 62 82 80 61 57 70 61 48 43 41 39 40 42 42 41 40 39 42 36 38 38 38 33 27 25 27 29 29 28 27 25 26 26 25 24 26 32 42 48 36 28
71 76 76 80 70 75 79 85 67 56 54 53 51 49 50 48 42 40 45 38 39 38 37 28 25 26 26 27 27 28 25 23 21 19 18 16 17 21 28 46 33 24 21
75 70 72 65 68 60 62 59 53 47 50 52 50 52 57 52 47 48 42 41 42 41 28 27 28 28 27 28 27 25 24 23 22 22 19 16 17 22 28 31 25 24 22
72 69 68 66 64 60 56 58 60 62 61 61 59 63 58 57 52 46 43 42 40 39 34 32 31 31 30 31 29 28 24 23 23 21 17 16 18 22 22 24 23 24 21
66 70 69 67 71 66 66 65 64 65 60 64 66 68 72 63 55 53 50 49 42 43 42 34 34 33 33 32 33 33 29 24 22 19 16 15 17 22 22 25 24 22 22
54 60 65 67 64 68 70 68 70 69 70 72 71 73 76 69 65 58 54 46 42 42 42 40 38 36 35 33 30 28 27 25 23 17 15 16 19 22 23 21 22 22 26
67 64 68 66 66 67 64 67 72 90 88 79 74 71 75 74 71 62 58 56 46 44 44 41 40 38 38 33 31 29 27 23 20 20 17 17 21 24 23 22 23 24 30
71 69 70 62 64 65 68 72 73 76 87 94 80 72 70 74 84 80 66 68 72 77 76 72 52 43 40 38 39 37 30 23 20 21 20 20 21 24 27 26 26 29 41

GFSSE_700_rhum_081.txt.gz
RH
22 16 19 16 20 18 15 14 13 12 12 8 6 6 22 70 70 81 86 84 82 67 9 8 12 16 18 20 20 20 20 21 20 18 18 17 16 16 17 17 17 17 17
20 16 16 17 19 17 16 14 13 12 10 7 5 9 68 78 85 89 90 84 78 12 9 15 18 20 22 21 20 18 19 19 19 18 18 19 19 18 18 18 18 18 17
21 16 16 17 17 17 16 14 13 11 11 8 6 23 55 66 72 79 74 25 10 11 18 20 22 21 21 19 17 18 18 18 18 18 19 20 20 20 20 20 21 21 20
20 15 15 16 17 17 16 14 12 12 12 11 9 10 18 28 33 23 10 8 14 18 22 23 21 20 18 18 18 20 25 28 34 37 38 39 41 40 39 36 33 27 25
18 15 15 16 17 16 16 14 13 14 14 14 14 13 11 9 8 9 12 17 19 23 22 20 18 18 24 28 35 40 46 47 46 49 49 49 49 48 47 46 44 44 44
16 15 16 16 16 16 16 16 15 14 14 14 14 15 15 15 16 17 21 24 23 21 18 19 24 31 38 43 45 48 50 52 52 51 52 52 52 50 49 49 49 49 48
16 16 16 16 16 16 16 17 17 18 18 19 19 20 20 20 22 22 22 22 20 22 26 30 36 40 44 48 51 52 53 53 53 53 54 53 51 47 44 43 40 41 43
17 16 16 17 16 17 17 18 18 20 20 20 20 19 20 19 19 19 21 25 30 34 38 42 45 48 50 51 52 52 53 53 53 53 54 52 45 39 32 29 29 31 33
22 18 17 17 16 17 17 17 18 17 18 19 19 19 20 22 24 29 36 42 45 48 49 49 49 49 50 51 51 51 51 52 52 52 52 52 41 32 29 30 33 35 35
35 21 18 18 18 18 17 18 18 18 18 21 25 30 33 35 37 40 42 45 48 49 50 50 50 50 50 50 49 49 49 50 52 51 49 46 36 31 32 37 41 43 44
47 32 22 24 24 25 26 28 30 32 33 34 35 37 39 40 41 43 44 46 47 48 49 49 50 50 49 48 48 48 48 49 51 48 44 41 36 33 35 40 43 47 50
56 42 30 27 27 31 34 38 40 42 43 43 43 44 45 45 44 46 46 47 47 48 48 48 47 47 46 46 46 46 46 47 48 45 40 40 37 37 38 41 44 44 45
70 53 58 33 30 33 37 41 43 44 45 45 45 46 46 47 47 47 47 47 46 45 44 43 43 44 43 43 43 40 38 37 35 35 36 37 36 37 40 46 47 43 37
58 68 63 54 37 34 38 41 43 45 45 46 46 46 47 47 46 46 46 46 45 43 42 38 34 30 28 26 25 23 24 22 22 26 29 32 35 38 43 45 44 38 32
64 63 66 71 78 45 37 41 43 45 46 46 46 46 45 45 44 44 44 43 43 41 40 31 30 31 33 33 32 29 24 23 23 22 23 29 35 37 39 42 47 51 47
78 72 72 73 96 72 47 42 41 44 45 45 44 44 43 43 43 43 43 43 41 41 34 32 33 34 34 33 30 26 23 23 24 25 29 30 32 36 38 44 58 56 39
67 77 81 62 81 80 72 48 41 40 42 43 43 43 42 41 42 42 42 42 39 42 32 34 36 36 35 32 28 25 24 25 27 29 32 33 35 32 30 41 41 39 46
72 84 78 79 78 64 78 80 67 52 44 42 42 41 41 41 41 41 41 41 39 42 34 36 37 36 32 26 26 27 29 30 31 31 27 24 21 19 19 23 57 36 56
74 63 60 63 86 83 77 72 79 83 67 57 43 42 44 42 42 42 40 41 39 43 35 36 36 32 26 26 27 27 27 29 26 25 24 23 21 19 17 31 71 48 48
71 65 79 68 78 85 84 79 75 78 67 59 53 46 50 48 50 50 45 42 41 42 38 39 38 26 26 27 27 26 25 25 25 25 25 25 22 20 18 21 34 39 43
72 82 76 92 86 82 85 86 79 66 72 68 60 57 53 54 56 55 48 42 46 41 41 41 30 28 30 30 30 31 29 27 26 28 27 25 22 18 19 22 23 29 23
74 76 82 82 76 81 64 64 70 79 74 78 68 63 60 62 62 58 52 51 46 46 43 42 40 39 32 34 34 34 31 29 27 26 25 23 20 18 18 21 20 20 36
71 71 70 77 77 78 82 85 79 84 84 78 74 67 66 67 61 62 59 57 57 50 48 48 43 39 38 36 36 35 33 28 26 25 24 21 18 17 20 23 23 22 28
52 68 70 74 74 74 74 76 81 81 87 93 94 92 89 84 85 92 86 91 91 95 87 58 50 46 46 44 38 38 40 42 38 32 28 23 20 18 20 21 21 21 23
59 64 69 71 73 74 73 76 80 76 89 92 99 89 94 98 99 99 99 95 94 91 80 73 70 70 64 65 68 54 42 41 41 37 33 27 23 21 21 23 24 23 26
51 68 68 68 66 65 65 69 70 74 76 75 80 84 82 98 95 96 92 93 97 92 85 77 73 68 69 59 53 47 43 36 29 30 33 30 25 22 22 24 25 26 28

GFSSE_700_rhum_084.txt.gz
RH
19 17 15 14 18 25 16 14 13 13 12 10 9 6 12 45 71 91 83 78 77 30 8 11 16 18 20 20 20 19 18 18 17 17 18 18 17 17 17 17 16 16 15
22 19 16 14 19 17 16 14 14 13 8 6 6 18 62 61 79 88 88 82 65 8 13 17 19 20 19 18 18 18 18 18 17 17 18 19 19 18 18 18 19 18 18
23 18 15 14 18 17 16 14 14 10 7 6 33 64 75 85 95 89 79 34 9 16 19 21 20 18 17 16 17 17 18 18 21 25 27 28 30 29 28 26 22 22 22
22 18 15 20 17 17 15 14 12 11 8 8 41 65 71 75 84 66 14 9 17 21 22 20 18 16 16 19 26 31 33 35 36 37 40 41 43 40 39 38 37 36 34
22 17 16 20 18 16 15 13 12 12 10 10 21 36 51 40 26 9 11 18 23 23 21 18 18 23 30 35 40 43 41 41 41 43 44 45 46 43 43 41 39 38 38
21 18 17 20 19 17 15 14 14 15 15 13 11 10 9 9 10 15 20 24 22 20 19 24 30 35 41 46 48 48 47 46 47 50 49 46 45 41 36 33 33 32 34
20 18 17 31 17 17 16 15 15 16 16 16 16 15 15 16 19 23 23 21 19 23 29 36 41 45 47 49 51 51 51 51 50 49 47 43 37 32 28 28 30 30 30
19 18 18 19 18 18 17 16 16 17 18 19 20 21 22 23 22 21 20 23 28 33 37 40 44 48 50 50 50 50 50 50 50 47 44 41 35 29 29 33 35 36 37
22 20 18 16 18 18 18 18 19 22 23 22 23 21 20 19 21 24 30 36 40 42 44 46 47 48 48 49 50 50 50 50 50 46 41 37 33 30 31 36 40 42 42
29 22 17 16 19 19 20 20 20 23 22 21 20 20 21 25 33 40 44 46 49 50 51 51 51 51 50 49 49 48 47 47 46 44 39 36 34 32 33 38 40 43 42
67 39 19 18 19 20 20 20 19 19 20 20 25 31 34 34 37 39 43 46 47 48 49 50 50 50 49 48 46 46 46 44 43 41 37 36 34 33 34 37 40 41 38
57 50 28 21 21 20 20 20 20 22 26 30 33 37 40 41 43 45 46 48 48 48 48 48 47 46 44 43 42 38 36 33 33 31 31 33 35 34 34 38 43 44 38
64 50 45 24 24 24 23 26 29 33 37 40 42 44 46 46 47 47 48 48 48 47 46 45 44 44 40 35 32 27 24 22 23 23 26 29 30 30 33 37 35 37 39
94 59 52 33 28 26 28 32 37 40 43 45 46 47 48 48 48 48 47 47 46 45 44 42 39 35 31 29 29 28 25 22 23 25 25 24 28 32 34 36 36 40 49
68 82 84 62 40 30 32 34 38 43 44 46 47 48 48 49 48 47 46 46 45 44 43 40 32 32 33 34 34 33 29 25 24 23 24 29 32 32 31 35 36 36 45
82 74 69 66 52 46 34 36 38 41 44 46 47 48 48 47 47 45 45 45 44 43 41 41 32 34 35 36 36 34 27 25 25 26 28 31 33 35 36 35 27 25 26
85 96 84 69 68 50 42 38 40 40 43 45 47 47 47 46 44 43 44 44 43 43 40 42 33 34 36 37 33 28 27 28 30 31 32 31 28 24 21 19 18 20 56
83 87 89 81 65 72 63 52 52 44 42 41 44 44 44 43 43 42 42 43 44 43 40 42 35 37 38 36 30 26 26 26 27 29 27 25 24 22 22 20 19 30 64
81 85 94 84 70 68 82 80 63 66 55 48 43 42 44 44 44 43 43 44 44 43 42 43 38 39 41 34 26 27 27 27 26 26 26 26 26 25 24 21 19 42 58
80 83 84 85 72 84 79 90 76 73 66 67 62 51 48 44 49 47 46 46 47 45 43 46 41 41 40 27 29 30 31 32 31 31 30 30 28 26 24 20 17 19 30
81 90 91 94 79 82 77 82 75 73 75 82 69 59 65 60 57 53 53 55 55 49 48 49 44 44 32 34 35 34 35 37 34 31 28 27 26 25 21 19 17 18 19
78 90 96 75 73 77 73 72 93 81 79 79 85 93 90 74 67 70 64 63 64 53 56 55 53 44 44 41 41 39 38 38 35 32 30 30 28 26 22 19 18 18 20
73 71 75 78 82 88 91 92 98 97 89 96 96 100 86 87 84 84 87 86 76 73 74 73 73 66 49 46 52 59 62 55 49 44 38 33 34 32 27 23 22 22 22
72 72 73 71 76 80 90 94 90 89 88 88 85 82 92 99 92 96 98 93 96 97 99 98 97 90 82 79 72 72 72 72 68 61 47 36 32 31 32 28 23 22 24
58 62 66 67 70 73 75 80 87 91 88 81 82 90 94 94 97 94 89 99 100 98 99 99 98 100 96 86 77 62 52 49 46 43 38 31 28 28 28 30 27 24 24
51 57 67 70 68 70 73 78 82 80 81 88 89 95 85 79 74 83 94 93 96 96 99 98 98 92 74 66 57 64 63 60 51 41 32 29 27 26 28 30 30 28 28

GFSSE_700_rhum_087.txt.gz
RH
24 17 17 23 18 20 14 13 12 12 12 12 11 8 42 70 76 89 73 74 44 12 9 14 16 18 19 18 18 17 17 16 16 16 16 16 16 16 16 16 16 16 15
21 18 18 18 18 18 14 13 13 13 10 9 9 11 59 69 88 84 84 74 21 10 16 18 20 19 18 17 17 16 17 16 15 15 16 18 18 18 17 19 19 19 19
22 21 18 17 19 16 14 13 13 9 7 10 39 51 54 83 88 88 74 55 11 18 19 20 18 17 16 16 17 19 21 23 25 28 29 31 31 30 31 30 26 22 21
24 21 19 25 17 15 14 14 11 8 8 58 61 79 86 92 90 82 20 13 20 21 20 18 16 16 18 24 29 33 34 36 36 35 36 37 38 35 33 31 31 30 31
24 20 20 36 21 15 14 13 11 9 8 56 70 84 85 88 71 12 13 21 23 21 18 16 18 24 31 34 36 38 40 41 41 42 40 38 36 32 29 28 27 27 29
24 21 21 42 17 16 14 12 11 10 13 41 68 71 73 43 11 13 21 24 23 19 19 25 31 36 40 42 44 44 43 43 43 42 39 35 32 27 27 28 29 29 29
24 23 32 53 18 17 14 12 12 12 12 16 21 39 30 11 14 22 24 22 20 22 28 33 37 42 46 48 49 49 48 47 44 41 38 33 29 28 30 33 34 33 32
24 20 28 61 27 16 14 14 14 15 14 13 12 12 12 15 21 24 21 20 25 30 34 40 45 48 49 49 48 47 46 46 45 41 36 30 28 28 32 36 38 38 36
25 22 40 74 18 17 16 15 15 15 16 15 16 17 20 22 21 20 22 28 34 38 42 46 48 50 50 50 49 47 45 44 42 39 34 31 30 30 32 35 37 36 32
40 26 26 27 18 17 16 16 16 18 20 21 22 22 21 20 21 25 34 41 45 48 50 51 51 51 50 50 48 47 45 41 39 39 34 31 31 31 33 35 38 40 35
68 45 27 20 18 18 17 18 21 22 23 22 21 20 21 25 34 41 43 45 47 47 48 49 49 48 46 45 44 42 40 38 35 32 30 30 30 31 32 34 39 41 37
59 44 39 23 21 20 20 22 20 20 20 20 20 26 34 37 38 38 40 44 46 48 48 48 47 45 42 38 37 35 31 27 25 24 24 25 27 28 29 32 33 34 38
82 54 40 24 23 23 23 23 21 18 20 23 29 33 35 38 43 46 48 49 49 48 47 45 42 39 36 32 27 25 24 23 22 22 22 22 22 26 30 33 34 35 37
90 77 54 26 26 26 25 24 23 22 26 32 36 41 44 47 49 50 50 49 49 48 47 44 39 34 30 30 31 31 29 26 24 22 21 22 26 29 29 29 32 36 35
90 74 63 37 30 28 25 25 26 31 37 40 43 46 47 48 49 50 50 49 48 47 46 44 41 33 32 32 32 32 28 24 23 23 24 26 28 30 30 28 25 21 18
87 77 63 60 52 44 33 30 30 36 41 44 46 47 48 49 49 49 49 48 47 46 45 44 43 35 34 35 35 33 30 27 27 29 31 32 30 26 24 21 19 18 16
97 85 70 60 67 57 52 42 34 37 42 44 46 48 48 49 48 48 47 46 45 45 44 45 43 40 35 38 38 35 29 27 28 28 30 30 27 24 23 23 22 20 17
98 94 81 70 66 72 70 69 44 38 41 43 46 48 48 48 48 47 44 43 44 44 44 45 43 44 37 40 42 37 29 27 28 29 29 27 27 27 26 25 23 20 18
94 95 80 96 88 81 76 83 68 45 40 42 43 45 46 47 44 43 43 43 44 44 45 47 45 45 41 41 42 31 28 30 30 32 32 31 31 29 27 26 24 21 18
96 78 84 92 86 81 88 89 84 63 48 43 48 49 46 48 44 48 46 48 52 49 50 50 48 45 45 44 45 30 34 33 36 37 34 32 30 28 27 25 23 19 17
84 83 88 100 87 84 81 86 84 72 64 58 54 59 64 69 59 63 69 58 55 55 58 58 53 48 50 50 46 38 38 38 39 40 39 39 38 36 34 30 26 21 17
80 97 98 95 97 89 73 67 70 76 89 87 78 71 72 81 72 77 82 70 67 73 73 68 56 58 61 57 51 45 41 50 59 59 59 58 53 43 36 35 33 27 21
89 93 100 99 83 85 81 80 69 86 76 84 93 92 88 87 91 94 95 81 79 88 88 91 78 78 85 75 61 84 76 59 58 56 58 56 55 51 38 31 30 31 28
98 90 81 86 94 100 89 95 93 83 84 85 78 82 91 76 88 96 94 98 97 98 100 100 100 100 99 86 77 86 98 94 64 54 52 47 41 36 31 28 27 29 30
88 81 77 93 96 89 98 98 98 94 100 100 98 93 96 99 95 91 74 90 95 95 97 100 100 100 98 98 99 98 84 60 64 63 56 54 45 35 28 25 26 29 32
74 72 71 67 66 66 72 80 85 87 88 93 97 99 99 95 98 91 84 83 84 81 87 81 87 97 98 99 94 79 81 71 70 71 66 61 51 36 28 26 26 26 28

GFSSE_700_rhum_090.txt.gz
RH
36 33 18 16 13 14 16 12 12 11 11 12 9 14 55 78 81 86 68 66 20 9 10 14 17 18 18 17 16 15 15 15 15 14 14 14 14 14 15 15 14 15 15
31 26 18 18 14 17 13 13 12 11 11 11 9 18 57 76 85 76 78 42 13 11 16 18 18 18 17 16 15 14 15 15 16 16 16 16 17 16 16 16 16 16 17
35 21 20 20 14 18 13 13 12 12 10 10 9 32 62 71 87 86 78 31 13 18 20 18 17 16 15 14 16 18 20 23 25 27 28 27 26 25 26 26 25 23 22
36 22 21 21 16 15 13 13 13 9 8 13 31 43 58 87 90 84 47 17 20 20 20 17 16 15 17 21 27 30 32 32 31 31 30 29 29 27 26 25 25 24 26
38 24 22 23 21 15 14 13 10 7 18 67 61 61 88 92 90 50 14 18 21 20 17 16 18 22 26 30 32 34 36 37 37 35 32 29 27 26 27 27 27 27 26
36 25 23 25 44 16 14 13 10 11 55 77 80 88 95 89 55 10 17 21 20 18 16 20 28 34 36 37 38 38 40 39 36 35 32 28 26 28 30 30 29 28 27
30 26 25 38 49 15 14 12 10 9 55 88 86 91 92 57 10 15 21 21 18 17 24 32 35 41 45 45 44 42 41 39 36 34 32 29 28 29 34 36 35 32 29
32 29 29 64 53 16 14 12 10 12 47 82 81 80 66 14 14 20 22 19 20 24 32 39 44 45 47 46 45 42 40 38 37 33 32 30 28 30 33 35 34 31 28
58 81 73 79 58 18 14 13 12 14 38 46 66 59 17 13 21 23 20 20 26 33 40 45 46 47 46 45 43 41 38 37 37 34 32 30 30 31 33 35 37 38 35
78 83 74 76 70 19 15 15 14 14 15 15 15 12 13 20 24 20 23 30 35 39 43 47 49 48 46 44 42 40 37 35 35 34 32 30 30 31 32 33 37 40 38
86 89 77 89 72 19 16 17 16 16 15 14 14 16 22 23 21 25 32 40 46 48 50 50 49 48 44 42 39 37 34 31 29 26 25 26 27 28 28 31 33 33 35
99 92 78 98 51 20 20 20 16 16 17 20 23 24 22 21 26 37 45 47 46 46 47 47 45 43 42 37 33 30 26 22 20 20 20 20 21 23 25 30 32 34 35
99 97 99 100 29 22 43 23 19 22 24 25 23 21 22 29 40 41 40 42 46 48 49 48 45 41 37 34 30 28 27 25 22 21 21 20 19 23 27 29 29 32 33
100 95 100 98 30 23 33 29 24 25 24 22 21 25 34 36 38 41 46 49 50 49 49 47 44 40 37 33 31 32 32 30 25 22 21 21 24 26 28 29 30 30 25
98 97 97 87 32 25 24 31 26 24 24 23 29 35 38 41 46 49 50 51 51 50 49 47 45 42 35 33 34 33 33 31 28 26 27 28 29 30 28 25 22 21 19
92 98 92 71 37 31 29 31 29 26 24 30 38 41 44 47 49 50 51 50 50 49 47 46 45 43 40 35 36 35 34 32 29 28 29 30 30 27 24 23 22 23 22
91 98 100 75 47 38 35 35 34 29 30 36 42 45 47 48 49 50 50 50 49 47 46 46 45 44 43 37 38 39 37 34 29 29 29 30 29 26 26 25 26 24 23
96 100 97 97 100 87 60 40 36 34 37 40 44 46 47 48 48 49 49 49 48 46 45 45 45 45 44 43 39 40 42 34 30 31 32 31 31 31 30 29 27 26 24
88 99 100 84 83 88 81 78 72 47 39 40 43 45 47 49 50 49 48 47 44 43 44 45 44 46 46 45 42 42 44 38 33 34 36 36 34 32 30 28 27 26 23
95 99 100 82 81 73 70 67 70 80 71 44 40 43 46 48 48 48 51 49 45 47 48 53 51 49 50 46 47 44 48 39 34 37 38 38 38 39 40 37 35 33 28
99 98 97 100 78 86 64 68 68 73 79 75 47 46 45 45 45 52 67 81 69 58 64 61 57 54 54 51 51 52 56 38 38 41 43 53 59 60 60 55 45 35 34
98 92 88 96 96 87 83 76 82 74 72 83 78 70 60 58 57 63 72 87 88 72 72 75 68 68 62 71 74 73 61 44 43 50 62 58 56 52 50 50 46 36 31
98 92 95 98 96 92 86 81 93 98 97 90 79 77 87 82 72 72 82 93 87 94 98 96 96 88 83 86 88 92 69 66 61 64 62 58 54 51 48 41 35 31 29
99 91 98 100 100 98 94 95 96 98 98 89 85 82 92 92 86 91 84 82 85 90 100 100 98 100 97 96 99 96 80 79 80 85 94 77 57 54 53 49 39 29 26
100 98 100 99 98 99 100 97 92 96 99 96 93 83 84 80 95 96 87 95 86 84 96 95 91 89 99 98 99 98 98 98 97 82 65 70 66 63 58 52 41 30 26
85 89 83 84 91 85 74 95 100 96 94 88 98 100 100 100 98 87 89 90 91 90 88 85 84 82 91 84 83 95 92 96 93 83 76 76 72 67 60 55 36 28 29

GFSSE_700_rhum_093.txt.gz
RH
42 41 38 23 17 13 15 12 10 11 12 12 9 59 72 82 66 73 66 54 15 9 11 14 16 17 17 16 15 15 14 14 14 13 13 12 12 11 12 13 13 14 14
52 34 36 25 17 13 13 12 10 10 11 12 8 49 68 84 79 72 66 39 17 10 16 17 18 17 16 15 15 14 14 13 13 14 14 15 16 15 16 16 16 16 16
56 46 27 24 18 13 13 11 10 10 11 11 8 36 67 79 85 72 68 34 14 14 18 18 17 16 15 14 14 15 16 19 23 24 25 25 24 22 21 21 22 23 23
55 44 31 20 20 13 13 11 11 11 11 11 9 38 61 78 82 83 63 34 13 17 18 16 15 15 16 19 23 26 28 29 28 30 26 27 26 25 24 24 23 23 23
50 41 29 21 21 14 13 12 11 10 9 9 26 57 62 82 84 82 41 20 17 18 16 14 15 17 24 30 32 32 33 33 31 29 28 26 26 26 26 25 24 24 24
45 39 31 27 24 16 14 12 12 8 8 22 57 59 71 88 88 60 18 16 19 17 14 15 21 28 31 34 35 36 36 34 31 28 27 26 28 30 31 30 27 26 23
50 41 60 52 37 21 15 13 11 8 34 73 76 78 95 93 80 16 14 19 19 16 16 22 30 35 37 37 37 37 36 34 32 30 28 26 28 31 33 33 31 27 23
57 49 78 77 70 41 15 14 10 21 84 91 86 91 99 92 26 12 20 20 17 18 25 31 36 39 39 38 36 36 36 35 31 29 27 27 27 29 31 32 33 32 28
74 68 78 75 80 71 19 15 11 36 76 88 93 99 98 50 12 19 21 19 19 26 34 39 42 42 41 39 38 36 33 34 34 32 29 29 29 30 31 32 35 37 35
84 87 78 76 86 76 26 17 12 33 80 93 100 100 76 15 19 23 21 21 28 34 42 44 46 46 44 43 40 38 36 34 32 30 28 28 28 29 28 28 32 31 32
75 85 99 88 91 88 31 34 13 27 84 87 96 89 52 14 24 24 21 28 35 40 46 49 49 48 46 43 40 36 33 29 28 25 22 22 24 25 26 27 30 30 33
97 100 98 96 94 97 25 57 14 23 66 73 66 59 18 23 27 22 27 34 40 47 51 51 48 44 41 38 35 30 28 23 20 19 18 18 19 20 22 28 30 29 31
86 95 100 99 98 100 26 60 16 17 43 50 26 20 17 28 24 24 36 43 48 49 48 48 46 45 42 38 33 29 29 29 26 23 21 20 19 22 26 28 28 27 24
63 98 96 98 99 100 30 64 25 16 15 14 14 17 27 24 24 36 44 46 45 48 49 49 47 43 41 38 33 31 31 30 27 23 22 23 24 26 29 29 26 24 21
51 76 85 99 100 99 28 64 37 18 16 17 21 24 24 23 32 41 40 44 49 51 51 50 48 45 42 37 35 35 34 33 31 30 29 30 31 31 29 26 24 23 23
61 53 82 99 100 82 32 73 48 22 24 26 26 24 24 35 42 42 46 50 51 51 50 49 48 46 44 42 36 36 38 36 35 31 29 28 30 30 27 26 25 25 25
82 62 97 98 100 59 74 72 49 40 30 27 25 26 36 43 45 47 50 51 51 50 50 49 47 46 45 44 42 37 38 39 36 32 29 29 27 27 27 28 30 29 27
92 69 90 100 92 56 52 75 65 58 40 33 30 36 43 46 48 49 50 50 50 50 50 48 47 46 45 46 45 43 39 41 40 35 30 31 32 34 33 31 29 27 26
88 72 72 93 70 56 46 49 50 46 46 40 36 40 44 46 48 48 49 49 50 50 49 45 44 45 45 47 47 46 45 42 45 43 31 33 36 37 34 33 34 36 35
92 98 99 95 60 62 55 54 48 46 44 40 42 44 45 46 47 48 49 49 49 48 45 44 46 48 52 48 50 49 47 47 49 49 33 36 39 42 49 54 55 55 54
100 97 98 99 99 82 78 80 75 55 47 44 42 43 45 48 49 49 50 50 49 53 62 65 66 50 50 57 57 58 54 54 58 51 38 40 49 56 56 52 47 44 42
100 99 99 99 98 86 81 79 79 74 79 80 56 51 54 54 51 53 51 56 62 69 67 89 89 74 72 72 76 77 77 82 85 53 47 59 61 57 55 55 54 50 44
100 99 99 99 86 81 90 88 83 90 67 81 86 80 73 72 68 69 79 74 66 74 77 94 98 96 96 92 88 94 94 90 90 79 60 65 85 85 78 70 59 56 52
100 100 100 98 84 97 97 98 87 87 83 89 93 95 92 90 81 91 86 89 86 81 86 93 97 98 98 99 96 98 94 93 97 93 84 74 69 76 71 79 64 58 54
100 100 100 100 99 90 76 88 90 94 97 97 98 100 99 82 98 97 95 90 93 80 92 99 96 95 87 78 84 100 100 90 99 100 90 82 81 82 75 71 67 60 54
100 100 100 99 100 95 87 99 100 99 97 99 95 97 98 80 92 80 91 89 87 87 75 97 91 91 84 80 85 96 96 100 98 98 95 91 91 86 71 65 63 61 53

GFSSE_700_rhum_096.txt.gz
RH
49 43 43 46 29 17 15 14 12 12 21 42 19 44 52 54 50 54 59 56 32 18 25 10 14 59 33 25 18 15 14 13 13 12 11 11 11 11 11 13 13 13 14
48 53 53 39 31 18 14 13 10 10 12 23 15 65 73 74 61 71 64 47 30 12 10 14 15 19 15 15 14 14 14 12 12 12 12 13 15 16 17 16 17 17 17
54 49 53 33 31 20 14 13 11 10 11 11 10 63 72 82 73 71 62 40 22 9 13 14 15 14 14 14 14 14 15 17 18 20 19 20 20 19 17 17 17 18 20
48 42 52 46 27 21 15 13 11 10 10 11 9 46 68 83 80 71 61 40 19 13 15 15 14 13 13 14 16 20 24 25 24 24 22 23 22 23 21 19 19 18 17
50 50 54 46 27 22 16 13 11 10 10 11 9 30 63 79 81 78 58 34 14 17 16 14 13 12 15 21 24 25 26 26 27 25 25 24 24 22 21 19 18 17 16
52 48 52 45 28 24 18 13 12 11 11 11 9 38 66 76 81 82 51 23 17 18 16 14 14 18 23 26 28 28 30 30 29 26 26 27 30 31 29 27 21 17 16
58 52 47 44 34 27 22 15 12 11 9 10 24 70 73 78 85 80 34 15 19 17 15 17 21 25 28 30 31 32 31 30 29 27 27 27 29 31 30 28 26 24 21
60 57 55 44 44 42 28 16 13 10 8 13 73 81 78 88 90 56 15 19 19 16 18 27 32 33 34 34 34 34 32 29 28 26 26 26 28 29 31 32 33 32 29
63 65 62 56 69 63 55 18 14 9 12 71 85 85 94 92 88 16 18 21 18 19 28 35 39 39 39 38 36 35 33 31 29 26 29 29 30 30 30 30 33 30 31
59 59 61 69 73 69 71 25 14 16 59 88 94 90 100 95 52 13 22 20 19 25 32 39 42 42 42 40 39 38 35 32 30 26 26 26 27 27 26 26 29 30 31
66 62 53 63 83 80 85 46 15 30 83 93 91 94 100 87 21 16 22 20 22 30 38 43 45 46 45 42 39 37 34 30 25 20 21 20 22 23 24 25 29 28 28
51 67 79 83 92 93 95 66 19 28 85 91 94 99 99 57 13 20 22 21 27 35 42 47 49 48 45 42 37 35 29 24 19 16 19 20 21 20 20 27 27 26 25
66 53 94 84 91 100 98 74 45 17 79 100 100 100 97 47 17 23 21 23 32 38 47 51 48 45 44 44 40 34 31 29 27 24 23 21 20 22 26 28 29 24 22
75 66 62 96 86 97 99 95 52 20 50 97 99 100 91 39 17 25 20 30 38 48 50 48 48 48 47 42 36 33 33 32 28 23 25 23 24 26 30 30 26 23 21
80 75 73 68 78 100 100 99 49 37 27 72 86 91 64 21 21 24 24 33 45 48 47 50 50 48 46 43 38 36 34 35 33 29 28 30 30 29 28 26 24 24 24
61 70 52 50 85 89 96 100 52 59 20 46 74 67 27 15 27 22 27 41 46 47 51 52 51 49 47 45 43 38 37 38 37 35 29 27 26 27 25 25 26 28 29
80 75 61 30 82 97 100 100 60 62 18 16 23 16 14 23 24 26 41 46 47 51 52 52 51 50 47 45 45 44 40 38 40 41 33 27 27 28 30 33 33 30 28
89 89 72 63 43 93 95 99 91 66 20 16 15 18 26 27 27 40 48 49 51 52 52 51 51 49 48 47 46 47 46 45 42 42 44 35 29 30 35 36 33 33 37
100 97 84 88 48 93 99 96 98 79 33 26 29 32 29 29 38 47 49 50 51 51 51 50 50 49 45 45 46 46 47 47 46 48 47 47 32 31 36 37 40 46 52
100 100 97 95 66 71 97 99 99 95 78 51 44 34 32 36 44 47 48 49 50 50 50 50 48 45 45 46 48 51 50 50 51 52 52 50 42 36 37 42 51 52 48
100 100 97 99 99 81 95 95 93 99 98 78 60 52 43 44 44 46 48 48 49 50 50 49 49 56 58 78 73 58 64 66 71 59 62 57 43 42 45 51 54 53 54
99 100 100 99 94 80 51 63 89 77 75 72 61 49 47 47 48 50 51 52 51 51 50 53 56 63 71 77 84 84 81 82 88 82 96 68 48 49 50 57 68 65 69
98 100 99 100 96 66 56 66 66 61 73 69 60 56 62 66 70 72 76 81 76 72 72 67 70 82 75 79 98 92 99 96 95 99 90 93 73 62 56 62 66 61 69
98 100 100 98 96 96 89 85 87 86 74 93 86 80 66 79 82 74 77 75 76 87 86 91 89 93 95 82 81 90 97 97 99 98 85 86 97 98 96 93 84 77 71
98 100 100 98 100 99 99 82 84 60 96 98 97 97 92 98 97 95 97 87 95 84 83 89 86 81 82 82 72 98 84 87 97 100 99 94 100 94 93 86 83 79 64
100 100 100 100 98 98 99 99 99 100 98 99 96 98 98 98 100 99 87 90 76 71 95 93 98 99 96 65 84 76 67 86 100 93 95 96 98 92 86 81 78 66 62

GFSSE_700_rhum_099.txt.gz
RH
52 51 44 47 49 36 18 16 16 12 10 12 10 10 14 21 34 34 61 55 40 30 21 8 14 45 38 23 16 15 14 13 12 11 10 10 11 11 12 12 12 13 13
54 52 48 51 46 36 20 15 13 11 11 30 11 20 20 41 45 51 58 54 30 24 10 10 19 15 14 13 13 13 12 11 11 10 11 14 16 16 16 16 16 17 42
56 57 53 48 49 36 24 16 13 10 10 14 12 43 60 65 60 64 65 41 26 12 11 15 14 14 13 12 12 11 11 12 15 17 17 18 19 18 17 17 16 17 18
57 56 51 45 52 36 26 17 13 11 10 10 11 35 66 77 66 73 62 42 27 11 15 16 14 13 12 11 12 13 16 18 20 22 21 22 22 20 17 16 15 15 14
55 54 48 49 52 45 25 18 14 11 10 10 11 21 56 79 78 73 65 47 24 14 17 16 14 13 13 15 18 22 20 21 23 23 22 22 21 21 20 18 16 14 12
61 54 50 54 54 43 28 20 14 12 11 11 11 14 47 71 78 73 70 44 17 17 16 14 14 16 20 24 25 24 24 24 26 25 25 27 30 30 28 22 18 15 14
67 60 57 51 48 39 28 22 16 12 12 12 12 11 60 71 71 72 72 34 15 17 15 14 16 22 27 28 28 30 29 28 29 27 27 28 30 30 28 29 29 28 26
58 66 64 59 54 42 34 26 19 12 12 11 12 17 78 74 72 77 66 22 16 16 14 15 21 27 29 32 33 32 31 29 31 28 27 27 29 30 31 32 33 29 29
52 59 62 62 61 53 48 35 22 13 12 9 12 61 87 81 79 84 49 14 17 16 15 20 26 32 35 36 34 33 31 30 30 27 27 28 29 30 30 28 30 28 30
55 57 50 60 67 64 61 54 30 14 11 9 49 81 96 88 88 87 24 16 17 16 20 27 33 35 37 38 37 33 32 29 26 28 26 26 27 28 25 24 28 28 27
71 60 59 50 65 76 78 68 54 15 10 14 84 96 96 92 93 75 15 19 18 17 23 32 36 38 38 39 38 36 32 27 22 23 20 20 21 21 20 22 28 26 26
71 77 80 66 59 70 74 72 74 20 12 46 92 94 97 99 95 55 16 21 18 22 29 35 39 42 42 40 38 32 28 22 18 18 17 18 18 17 17 24 26 25 22
62 75 74 82 80 75 87 77 72 36 21 78 96 97 99 100 89 34 18 21 19 26 35 38 42 44 43 42 39 33 28 26 25 23 20 19 18 18 22 25 27 23 21
63 77 76 75 81 90 80 96 71 62 30 83 93 98 98 100 71 33 19 21 22 32 39 44 45 43 45 45 42 34 31 30 25 26 22 21 23 23 26 27 25 22 21
58 65 72 82 79 80 96 88 88 70 43 73 83 93 88 88 54 20 23 23 29 36 43 48 44 48 47 44 39 35 34 33 31 28 29 27 26 27 26 25 23 23 25
73 60 63 70 82 75 86 94 95 98 65 63 99 79 99 99 73 22 25 23 30 37 48 47 50 51 51 48 46 44 38 36 37 33 29 27 26 26 25 26 28 32 32
87 67 62 65 68 71 73 63 73 100 90 71 69 100 79 89 88 22 27 24 31 43 49 51 52 52 50 48 46 46 46 45 42 39 38 37 27 27 29 32 36 36 33
79 97 75 69 57 55 47 54 64 96 100 90 46 74 88 94 75 22 27 26 38 49 49 52 53 52 51 48 48 46 47 47 47 46 45 42 40 36 29 31 36 36 38
71 62 59 68 62 45 38 51 52 86 97 92 56 40 93 92 57 23 28 36 48 51 52 53 52 51 50 49 45 45 46 46 47 49 51 48 45 44 40 32 34 36 42
66 54 57 66 80 76 60 53 84 97 97 90 68 21 34 34 21 33 32 43 51 52 52 52 51 50 50 46 45 47 52 60 56 56 57 50 50 50 48 40 40 47 50
71 70 67 86 95 89 68 89 99 99 98 94 60 24 20 25 35 33 37 47 50 50 51 51 50 50 49 50 48 53 65 74 76 71 72 68 65 62 51 46 51 51 58
52 96 100 99 100 83 82 83 91 98 97 99 75 45 42 41 38 37 43 49 53 51 50 51 52 56 61 62 67 71 72 78 94 96 88 90 85 90 59 53 50 56 61
61 100 98 100 100 96 96 89 85 98 100 100 98 94 68 60 47 45 50 49 51 51 62 63 73 83 84 74 72 82 79 74 81 82 96 98 92 95 90 75 76 76 75
87 99 98 99 99 100 98 99 99 100 98 100 100 98 96 98 87 76 75 75 78 79 74 71 82 83 95 92 95 84 75 78 88 80 94 99 97 88 92 98 95 85 75
98 99 98 100 100 99 99 99 99 99 99 99 97 97 95 96 89 84 84 96 99 86 88 85 80 74 84 91 84 67 71 76 94 67 89 89 100 99 81 91 87 86 84
96 98 100 100 100 99 96 92 97 98 98 100 94 98 97 98 94 95 96 88 89 91 88 77 84 78 90 96 98 91 76 66 69 75 84 96 100 92 96 97 84 82 79

GFSSE_700_rhum_105.txt.gz
RH
53 54 49 48 45 50 50 34 21 19 17 12 17 23 9 11 16 19 20 46 50 36 34 22 15 39 30 17 14 14 13 12 11 10 10 10 11 12 13 12 13 13 14
52 57 52 52 49 49 48 39 25 19 17 12 14 20 10 11 16 20 28 56 51 41 40 18 24 24 15 12 12 11 11 10 10 10 12 14 14 15 14 25 46 25 16
56 54 58 55 52 51 50 41 31 21 16 12 13 15 12 13 18 34 47 54 53 49 24 10 15 12 12 11 11 11 11 11 14 17 17 17 16 14 13 12 11 14 37
58 63 65 60 56 51 50 44 34 24 17 13 16 22 14 14 33 45 54 62 54 39 16 11 12 11 11 11 11 12 13 16 19 20 19 19 16 13 11 10 10 9 9
54 55 59 58 55 53 51 46 36 26 18 13 15 22 38 37 47 55 64 61 52 43 15 12 12 11 11 12 14 17 19 20 22 23 21 18 15 14 13 12 11 11 13
54 57 57 58 53 51 56 52 38 27 19 14 13 19 49 55 62 65 72 62 51 40 14 13 12 12 12 15 22 21 21 23 25 23 22 24 23 20 15 15 16 18 22
69 64 59 55 51 49 60 55 42 31 21 15 15 26 48 55 61 68 75 66 56 34 14 13 12 11 13 20 24 24 25 26 26 26 27 30 29 23 21 24 21 21 24
72 69 70 68 64 56 54 52 45 37 25 19 18 41 36 53 56 73 76 66 57 33 15 14 12 12 16 20 23 24 26 26 26 27 27 28 27 26 26 25 24 22 24
79 78 70 64 64 61 66 61 50 44 30 19 15 36 50 62 69 71 78 68 53 30 15 14 14 16 20 22 26 25 26 25 26 26 25 25 26 27 26 22 22 24 24
78 82 80 66 58 55 58 65 61 54 42 25 15 17 52 52 66 74 76 71 54 22 15 15 17 21 24 24 26 27 27 25 24 23 23 23 24 25 24 20 20 24 23
85 88 86 74 59 54 49 58 64 64 56 38 18 19 35 46 78 78 77 75 52 18 16 16 20 26 27 28 27 26 26 25 22 21 20 19 18 19 19 17 18 24 23
96 91 89 85 76 63 59 49 59 61 66 62 31 17 49 46 76 85 87 76 62 18 17 16 21 27 30 31 30 27 26 23 20 17 15 14 14 13 13 13 17 24 24
72 88 91 85 83 84 70 61 52 57 64 67 55 18 22 50 60 91 91 83 65 22 17 16 21 29 33 34 32 28 23 22 20 19 19 17 15 15 15 16 19 24 23
64 72 84 91 94 86 93 87 88 82 77 79 72 38 19 29 66 97 95 90 60 24 18 17 24 31 36 38 33 31 28 28 27 25 23 19 18 18 19 23 25 24 22
49 71 78 85 77 79 88 94 86 90 94 93 87 54 26 50 82 97 98 94 51 29 20 19 22 33 41 41 39 38 34 32 31 29 26 24 25 25 24 24 24 24 24
39 66 78 84 69 67 84 86 85 86 88 86 95 71 49 68 96 99 93 98 48 26 23 22 26 34 44 43 44 44 41 36 34 35 32 29 29 28 25 26 27 28 34
34 40 78 78 69 84 74 75 83 81 94 95 96 83 73 65 93 96 98 100 43 33 29 28 30 38 44 46 50 50 48 45 43 42 40 38 37 37 35 30 29 30 33
31 34 40 69 65 73 68 76 75 84 88 85 85 86 85 79 91 83 100 99 40 36 36 40 33 40 49 51 53 52 49 47 46 46 46 46 45 45 44 44 43 41 36
25 32 38 44 62 67 71 70 72 70 72 84 84 79 80 91 94 91 99 99 44 47 52 45 45 47 52 54 55 53 50 49 47 46 45 47 48 47 47 48 50 47 46
17 32 36 42 48 59 59 69 70 65 64 66 70 76 69 70 88 93 97 97 90 71 57 46 49 51 55 56 55 53 51 48 45 46 53 59 63 64 66 69 69 63 57
20 33 40 45 48 50 64 62 64 58 58 65 66 66 62 57 51 60 96 98 86 58 76 44 52 54 56 56 54 53 51 49 50 60 76 70 69 72 75 72 74 80 72
25 28 42 43 70 71 79 77 74 67 67 68 63 61 58 55 48 64 79 99 100 91 52 56 53 54 56 56 54 52 52 54 61 82 82 79 67 66 75 77 80 90 89
35 36 45 45 46 74 82 73 57 54 55 57 52 43 50 50 47 65 96 84 87 98 53 48 54 56 55 54 53 54 63 63 74 83 78 79 82 79 80 79 88 98 100
34 47 50 52 47 45 54 56 46 47 46 44 42 46 56 43 49 77 83 92 90 97 54 50 54 55 55 55 54 62 65 74 81 76 77 88 81 82 89 79 90 95 100
65 52 49 49 53 52 50 48 47 45 41 38 39 83 74 91 94 99 99 97 98 97 67 59 61 65 67 63 73 78 86 98 93 80 72 82 84 86 85 92 99 99 100
78 78 50 49 48 45 45 48 40 42 74 83 96 98 99 100 99 97 98 95 94 65 61 74 84 80 83 86 98 97 87 96 85 82 85 93 98 85 92 96 98 100 97

GFSSE_700_rhum_108.txt.gz
RH
53 54 61 52 48 44 48 46 32 23 19 16 18 22 17 10 20 24 22 26 53 45 40 36 21 31 24 14 13 13 12 12 11 10 10 11 12 13 14 15 13 14 14
50 54 62 51 52 48 47 45 36 27 21 17 16 22 19 10 13 18 24 52 50 50 47 27 11 21 13 12 12 11 10 10 10 10 12 14 17 18 44 36 35 26 15
52 54 55 57 56 51 50 48 41 31 24 18 14 17 15 12 14 19 32 56 56 54 42 12 11 11 11 10 10 10 9 10 12 15 16 15 14 13 15 26 54 42 17
71 69 66 64 58 55 50 48 46 37 28 19 15 19 18 14 15 36 46 57 60 49 39 10 11 10 10 9 10 10 11 15 17 18 17 16 13 11 10 10 10 10 10
43 51 60 67 61 57 54 52 48 39 30 20 20 28 29 20 26 46 54 65 60 50 39 11 11 10 10 9 10 13 16 18 20 21 18 14 13 13 11 10 11 15 18
58 56 60 59 57 58 55 55 53 42 31 21 26 53 42 43 45 55 64 69 56 52 39 12 12 10 10 9 11 16 18 21 23 21 18 19 19 15 13 14 15 17 20
69 63 61 60 61 60 56 57 59 50 36 24 35 53 56 57 62 64 67 70 60 55 36 13 12 11 11 12 15 17 19 22 24 24 24 27 26 21 19 19 19 19 21
79 73 69 64 63 63 62 59 60 54 43 28 24 52 48 59 63 67 73 74 60 56 37 13 12 11 14 16 18 20 21 23 25 26 26 26 25 24 24 23 22 21 22
78 78 77 73 70 65 61 65 62 57 52 36 28 31 56 66 68 67 75 77 62 57 38 14 13 12 15 19 20 21 22 24 24 25 25 24 24 25 26 23 19 22 22
71 85 82 80 67 64 62 62 64 66 61 49 33 20 29 49 68 72 81 82 65 58 36 14 13 12 16 18 20 21 21 22 23 23 22 22 23 24 23 22 18 19 22
75 78 89 84 75 66 60 55 59 64 67 61 50 28 17 26 44 74 85 87 68 56 32 14 13 13 17 20 22 24 22 21 20 20 19 18 18 18 18 17 15 18 22
78 80 83 95 77 70 61 57 53 57 62 64 63 49 26 18 24 58 82 86 74 50 28 16 14 14 17 22 25 24 23 22 20 18 16 15 14 13 13 13 14 19 23
76 82 84 99 98 90 81 73 60 57 59 63 64 65 52 28 23 37 83 87 81 60 26 18 16 15 18 21 22 26 24 22 20 19 18 16 15 16 16 15 17 22 23
62 76 90 94 97 94 86 84 84 70 62 65 75 74 62 44 20 38 79 90 87 68 27 21 21 20 19 22 23 26 27 26 24 25 22 19 18 19 20 21 24 24 23
54 61 70 84 92 94 91 91 95 89 91 84 97 88 74 52 25 40 74 99 94 68 30 23 23 29 29 28 29 28 29 30 29 27 26 24 24 25 25 25 24 24 24
39 50 53 62 75 86 89 94 96 89 89 96 100 99 94 76 42 33 72 100 98 74 31 28 26 38 40 38 38 36 35 35 34 33 32 32 30 29 27 25 25 27 29
32 36 44 50 65 76 77 76 90 90 88 85 83 86 89 81 70 54 69 100 98 98 39 30 33 38 41 43 42 43 45 42 42 42 39 38 39 40 41 40 38 37 34
16 32 36 41 59 79 81 70 63 85 88 88 98 96 93 88 82 66 69 79 98 100 79 34 35 43 46 45 48 51 52 50 48 47 47 47 46 47 48 49 49 49 48
10 20 32 34 41 74 86 74 70 77 72 82 99 98 91 86 88 87 87 91 99 98 69 47 40 45 53 56 55 55 55 53 50 48 47 47 48 52 55 56 61 68 72
9 10 22 31 33 41 79 73 68 66 64 66 78 79 79 76 79 83 92 90 93 98 94 79 49 59 55 56 59 57 56 54 52 49 46 48 53 63 72 70 71 70 70
17 12 10 21 30 33 39 60 67 70 68 64 61 63 66 67 71 71 65 59 70 94 96 98 86 67 66 57 64 59 56 55 53 50 48 54 71 73 72 69 70 74 74
16 21 11 12 24 34 36 38 50 65 63 62 63 62 59 56 54 64 66 62 53 62 73 88 100 92 63 68 63 60 57 55 53 51 54 75 74 70 70 70 72 71 81
38 31 20 11 18 32 38 43 46 51 56 57 60 56 54 62 60 56 57 62 55 56 69 88 100 97 85 67 65 62 59 56 54 56 63 80 81 77 80 79 72 72 76
32 27 21 14 16 32 46 47 50 48 48 51 66 59 60 55 56 52 47 40 52 66 76 92 98 99 90 67 63 62 58 61 58 62 81 91 88 79 81 80 75 77 81
37 41 28 25 24 41 43 53 56 54 57 53 48 46 47 47 45 42 40 56 64 72 91 91 96 99 76 69 63 61 62 58 74 78 86 91 87 83 83 86 88 82 86
54 49 51 48 62 53 49 41 39 48 54 53 38 40 40 41 39 52 70 77 73 98 100 99 99 100 94 72 81 92 86 89 98 100 100 90 83 78 79 86 92 92 89

GFSSE_700_rhum_111.txt.gz
RH
45 52 56 60 53 47 43 46 36 27 21 19 19 22 19 15 23 27 23 23 51 42 41 38 22 22 18 11 11 11 10 10 10 8 9 10 10 12 13 12 12 12 11
45 51 57 58 52 50 47 46 42 33 25 22 18 22 26 13 15 21 22 38 50 49 47 23 10 14 11 10 11 10 10 9 8 9 12 13 14 21 20 21 19 14 12
45 49 56 56 55 55 51 48 46 40 32 22 17 18 20 14 16 20 28 54 55 52 39 12 11 10 10 9 9 9 8 8 10 14 14 13 14 15 17 32 19 8 8
68 66 62 58 60 57 53 50 48 47 39 26 17 17 22 16 16 22 40 56 63 50 40 12 11 10 9 9 8 8 9 12 15 16 15 12 10 9 9 8 9 11 12
60 57 64 70 67 60 57 54 52 47 41 29 19 23 30 18 18 39 47 64 69 52 46 14 12 10 9 9 9 10 13 16 18 18 15 12 11 10 9 10 14 16 16
43 46 56 68 67 64 57 55 54 52 43 32 20 32 38 34 30 46 59 68 62 53 48 16 12 10 10 10 11 14 16 18 20 19 16 17 15 14 13 14 15 17 18
48 50 60 67 68 62 62 59 58 59 53 38 30 34 42 46 49 60 66 72 64 56 50 19 13 11 10 12 15 17 19 21 22 21 22 25 24 20 20 20 19 18 20
58 60 71 72 66 68 67 67 57 62 57 44 31 35 50 50 68 72 68 73 68 55 50 24 13 11 11 14 16 17 20 22 24 25 26 26 25 24 24 23 21 22 21
55 56 66 70 68 67 67 65 59 58 57 53 40 30 40 56 68 77 73 75 72 56 47 26 14 12 12 16 18 18 20 23 25 26 26 25 24 24 25 24 19 21 22
68 67 71 80 76 70 71 67 62 60 62 60 49 34 26 35 69 80 77 76 77 60 43 25 15 13 13 16 19 20 21 22 23 23 24 23 23 24 24 23 20 18 22
76 74 75 75 76 70 66 66 71 63 62 61 60 51 34 24 38 75 88 86 82 69 49 26 17 16 16 17 19 19 19 20 20 20 20 20 20 20 19 19 17 16 21
71 77 80 84 78 77 72 64 60 61 67 67 63 62 53 30 24 41 68 81 86 76 57 33 18 18 20 21 22 21 21 21 21 19 18 16 15 15 14 14 14 16 20
43 65 75 80 87 78 75 74 72 66 63 71 73 76 62 54 30 27 43 65 88 84 64 46 20 18 23 27 29 28 26 24 21 19 17 15 14 14 15 16 15 17 21
37 41 56 75 80 84 85 75 78 73 66 64 74 80 72 66 54 38 35 58 92 89 72 42 23 20 23 28 31 32 33 29 25 22 23 21 19 18 18 18 21 24 24
25 39 42 60 78 79 79 98 90 85 88 68 70 84 88 83 59 46 37 60 92 95 81 48 26 22 25 28 30 33 35 34 31 29 27 25 24 25 26 26 25 24 25
12 28 42 45 68 87 84 85 91 92 90 88 82 81 89 91 75 52 40 68 90 99 93 44 29 27 34 29 36 36 36 38 37 34 33 34 34 32 34 34 28 27 29
12 13 31 41 47 67 90 88 89 93 96 90 89 99 98 94 90 81 58 63 76 94 96 60 32 34 36 41 44 44 38 41 44 44 41 39 38 39 42 44 45 42 44
9 12 12 33 42 48 58 72 77 88 93 89 92 93 87 87 81 75 80 62 77 82 99 93 47 33 34 44 48 48 46 45 45 50 48 47 47 47 48 50 51 51 52
9 8 11 12 32 42 50 51 71 81 79 81 89 97 96 92 91 90 82 79 76 95 99 92 88 41 42 48 50 52 55 52 52 52 50 48 49 49 49 55 56 61 68
15 11 9 10 14 32 40 48 54 74 74 76 85 84 99 97 94 87 84 87 85 88 92 94 99 76 47 54 60 58 59 56 55 54 51 50 49 50 64 80 75 70 69
24 25 16 12 10 19 33 39 52 66 76 71 72 79 89 98 87 79 75 78 85 90 87 70 82 95 93 75 86 64 63 65 58 55 54 53 48 62 78 76 78 77 72
30 28 21 18 12 12 23 33 40 59 67 71 73 71 81 89 86 89 78 69 65 67 66 65 58 62 61 80 97 72 75 66 63 57 55 55 53 81 85 81 76 76 74
17 22 18 12 13 11 15 28 33 39 67 71 71 72 66 64 60 58 63 67 69 63 63 65 66 56 60 82 99 96 87 84 64 58 57 57 59 70 86 84 82 79 81
27 36 26 22 21 19 14 25 31 32 38 52 60 64 62 59 56 55 52 56 59 58 48 44 42 40 63 78 94 99 89 97 68 59 59 65 79 81 97 89 90 87 81
41 40 43 29 28 24 18 24 31 34 36 41 46 50 51 55 59 58 56 59 52 47 47 43 40 44 73 79 83 100 100 88 76 70 64 73 88 95 89 100 98 98 80
49 53 55 33 23 19 19 38 46 44 43 42 42 46 49 48 59 55 51 48 45 42 39 39 52 63 83 89 98 100 100 98 89 74 86 91 95 97 99 97 91 91 98

GFSSE_700_rhum_114.txt.gz
RH
55 52 58 59 57 52 48 46 37 48 24 32 22 24 21 18 24 29 22 28 50 35 40 29 17 21 14 11 11 11 11 10 9 8 9 10 10 11 11 11 11 11 11
42 45 54 56 56 51 47 45 42 34 28 44 27 23 27 17 16 22 21 49 48 47 39 15 14 13 11 10 11 10 10 9 9 11 16 14 17 20 20 16 14 13 13
31 45 51 60 57 53 49 49 47 41 40 43 40 21 22 15 15 20 26 54 55 47 32 10 12 10 10 9 9 9 9 9 11 14 15 75 75 47 52 22 10 10 11
55 38 50 58 57 56 52 50 48 46 44 49 37 19 22 16 17 20 37 56 58 46 38 12 11 11 10 10 9 9 10 13 16 15 14 13 12 11 10 10 12 14 14
66 63 67 59 59 60 56 53 51 50 44 36 25 21 28 19 18 29 51 78 71 48 43 16 12 11 10 10 10 11 15 17 18 17 14 12 12 11 11 13 17 18 15
49 56 65 72 70 65 58 58 54 53 50 41 27 26 40 31 23 47 60 74 65 51 44 21 12 11 10 10 12 15 17 20 21 18 16 17 15 14 16 18 18 20 20
44 44 54 65 69 69 61 57 57 55 53 49 33 25 43 40 41 49 65 71 64 51 41 25 13 11 11 12 14 17 20 22 22 21 24 26 23 23 24 23 21 21 21
39 42 53 63 63 71 69 64 64 56 57 58 48 36 51 47 58 63 73 72 71 54 43 27 14 12 12 14 17 19 21 23 24 26 27 28 27 26 26 24 22 22 22
52 50 47 65 74 72 74 72 69 60 56 58 50 40 38 53 64 76 72 74 75 60 46 32 16 14 15 18 20 21 23 24 26 26 27 26 26 26 26 25 21 21 23
50 63 55 50 67 70 71 70 70 64 59 61 54 45 45 46 68 80 83 75 78 71 50 36 18 16 18 22 23 23 24 25 26 26 26 26 25 25 25 25 23 19 20
57 62 61 57 64 72 73 69 67 65 65 65 67 67 56 40 40 68 85 92 84 82 60 39 23 17 18 22 24 26 26 24 24 24 24 23 22 22 21 20 19 17 18
59 67 58 60 74 75 76 72 73 73 69 63 68 75 66 70 49 48 69 92 99 87 75 48 29 18 18 22 27 28 28 27 25 22 21 19 18 17 16 16 15 15 18
44 76 69 77 76 78 74 74 67 68 76 74 73 68 72 64 65 46 50 58 77 85 86 62 38 21 20 22 27 28 29 29 27 24 20 18 17 18 17 16 17 17 20
20 34 44 62 75 86 77 74 71 65 64 67 75 83 78 75 59 63 47 58 57 72 90 77 44 26 22 25 29 29 28 28 27 26 25 24 23 22 20 20 21 23 25
12 15 31 39 60 77 84 82 78 74 68 67 65 70 79 78 71 61 47 46 57 60 91 91 55 31 24 24 28 32 32 31 29 28 28 28 28 27 26 27 27 26 26
13 14 12 28 35 44 69 82 86 79 78 78 72 64 68 76 81 80 64 46 51 62 96 96 76 37 27 25 30 37 38 37 33 32 32 32 33 34 33 33 35 33 34
8 10 13 11 23 35 40 65 80 84 89 90 87 80 63 66 70 77 76 54 46 65 85 86 90 64 33 27 32 42 45 45 39 39 39 38 36 36 39 40 43 46 45
9 8 8 13 14 20 37 50 84 90 93 92 92 92 81 72 74 83 77 79 67 68 77 100 76 70 62 33 36 38 46 45 47 47 48 47 45 44 45 47 50 50 51
9 9 8 8 13 26 29 42 68 96 98 94 94 93 91 92 94 95 87 79 79 68 82 84 94 96 83 46 38 39 42 46 45 49 52 52 50 48 49 50 52 59 62
13 11 10 9 8 13 38 35 44 69 94 92 93 96 84 90 94 93 84 84 84 84 80 90 95 100 99 98 91 42 58 51 51 49 52 54 52 52 51 52 58 73 75
23 19 16 13 12 10 12 26 31 43 56 70 80 82 81 76 90 98 97 90 83 83 84 84 90 90 79 83 94 66 79 72 64 51 53 59 59 59 54 54 72 80 74
33 32 28 18 19 16 12 11 18 38 43 50 70 75 78 85 86 85 97 84 81 78 74 86 76 72 67 65 64 60 57 65 78 86 77 58 60 59 58 59 84 80 77
43 34 31 35 29 25 23 13 11 22 36 44 60 76 75 79 84 94 85 88 88 80 72 69 69 66 65 64 49 55 69 57 57 73 72 74 65 70 60 59 91 91 88
48 33 23 20 24 25 18 20 12 16 27 37 50 77 80 79 77 75 79 75 68 58 53 56 65 62 57 47 44 40 50 71 77 68 80 78 78 70 65 76 98 98 96
48 39 33 30 35 31 15 15 17 16 28 35 56 81 85 85 84 78 70 64 58 53 47 51 50 47 45 42 40 42 51 76 92 81 89 95 92 72 73 87 92 85 78
50 51 45 44 44 30 23 25 24 21 32 38 44 74 81 80 78 74 67 62 57 57 56 51 51 47 44 41 47 52 58 78 94 95 94 97 96 88 95 85 89 100 92

GFSSE_700_rhum_117.txt.gz
RH
53 52 55 57 56 53 48 43 59 63 33 29 22 23 21 20 24 31 25 37 48 36 40 24 20 20 13 11 11 12 12 11 10 9 10 12 11 11 12 12 13 12 12
53 52 55 56 56 53 48 46 49 65 39 47 30 24 26 18 15 20 24 54 46 47 30 11 14 14 12 12 11 11 11 10 10 15 18 24 24 20 17 15 17 19 17
32 49 50 54 57 54 49 52 50 72 43 62 75 22 23 17 15 18 31 55 55 44 28 11 11 11 10 10 10 10 10 10 12 18 60 91 76 75 53 34 82 44 20
30 28 46 55 59 55 52 48 47 57 50 65 53 28 19 18 16 20 40 57 53 45 38 12 11 10 10 10 10 10 10 13 16 16 35 56 51 39 23 12 15 16 15
48 48 34 51 60 58 55 51 50 49 54 64 32 44 23 21 16 24 61 83 66 48 40 15 11 10 10 10 11 12 14 17 18 17 13 12 11 11 12 17 20 18 15
51 55 57 53 57 60 59 55 54 52 52 59 37 36 35 27 18 35 69 83 75 52 41 21 12 11 11 12 14 16 19 20 20 17 16 14 13 13 15 17 19 20 20
47 51 60 71 71 71 64 63 59 59 57 59 42 27 32 36 30 45 67 72 69 54 43 27 13 12 12 14 17 19 21 23 22 20 22 22 21 20 21 21 21 20 21
41 42 53 65 80 70 67 66 64 65 59 58 52 38 39 41 49 61 60 74 76 58 47 35 16 13 13 15 18 21 23 24 24 26 28 29 28 26 26 26 23 22 22
22 32 43 62 72 78 72 71 67 68 62 57 62 62 43 46 55 73 72 73 77 67 52 40 22 14 13 16 20 21 23 25 26 27 27 28 28 28 28 27 24 21 22
19 29 50 46 62 71 72 73 70 68 63 67 60 63 58 49 63 72 82 75 80 77 59 45 32 16 14 17 20 22 24 26 26 27 27 27 26 26 26 26 25 22 19
36 46 65 67 53 51 71 73 74 73 70 63 68 61 59 57 49 62 77 90 82 81 73 53 40 20 16 17 21 23 23 24 25 25 24 25 24 23 22 21 20 19 16
23 34 56 70 72 56 55 60 68 74 71 66 62 66 67 61 51 39 59 83 96 89 84 71 49 33 18 17 20 23 24 24 23 22 21 21 20 19 17 16 14 14 14
14 25 41 72 75 72 66 72 72 73 73 69 68 67 77 70 65 53 53 60 83 96 94 85 69 47 23 17 19 22 24 23 23 23 21 20 18 17 16 15 15 16 16
16 14 30 48 73 72 71 83 81 77 71 70 70 71 71 70 71 63 63 63 60 61 70 83 86 58 36 20 19 22 25 27 27 24 22 22 22 21 20 18 18 20 22
11 15 14 27 60 73 81 92 84 80 72 68 72 75 75 73 73 79 66 67 69 75 60 56 82 84 46 26 22 23 25 30 32 29 27 25 25 24 24 22 23 26 26
7 9 12 14 15 39 56 72 91 86 81 76 68 65 66 70 77 79 70 61 51 52 62 58 64 93 70 36 25 24 27 30 34 33 31 27 28 27 30 31 30 32 34
7 7 7 10 14 13 24 40 70 89 88 88 84 75 69 65 68 81 80 76 70 51 49 57 71 94 91 65 38 27 29 33 35 37 36 35 31 33 32 34 37 39 44
6 6 7 7 9 13 13 18 38 55 83 92 93 87 83 80 74 70 78 82 78 74 64 67 73 76 95 79 64 41 29 32 37 35 36 38 42 42 41 41 43 46 49
7 7 8 7 7 8 12 13 14 32 49 77 89 92 93 89 85 77 70 80 80 78 79 78 85 88 91 88 76 59 46 35 38 38 37 38 39 46 48 46 48 49 50
16 13 11 10 9 9 8 11 14 15 32 64 89 97 97 92 87 85 82 92 91 83 87 80 79 86 92 80 87 85 73 45 72 43 44 57 45 44 47 52 50 50 51
20 22 21 17 15 12 11 9 11 15 13 42 78 99 98 92 92 91 85 96 100 95 92 91 83 83 87 97 89 88 84 89 95 65 58 82 60 44 44 45 54 53 53
26 26 29 27 24 19 14 12 11 11 17 26 55 84 98 99 98 90 86 83 77 89 95 96 94 91 87 93 88 70 79 69 65 61 54 58 57 65 63 60 55 57 55
40 34 38 37 34 33 25 20 16 13 11 27 40 52 74 96 95 94 89 87 79 75 82 83 81 80 79 77 74 72 67 63 51 45 46 48 57 66 81 73 56 60 62
47 50 50 46 41 34 33 31 26 22 13 11 28 42 50 72 90 89 95 96 94 94 86 80 90 77 60 59 66 66 66 59 53 46 50 47 46 62 75 75 67 65 63
63 53 61 58 45 30 30 30 27 26 25 16 12 24 40 56 85 89 91 99 100 94 90 77 67 62 60 64 58 59 50 51 56 71 51 63 52 69 80 82 74 66 68
74 64 71 59 41 30 25 36 34 27 21 21 22 25 36 52 76 93 96 99 98 81 77 73 62 55 54 56 57 56 49 46 42 44 60 64 79 88 93 91 92 86 84

GFSSE_700_rhum_120.txt.gz
RH
55 48 50 54 54 51 47 44 63 55 32 28 20 20 21 19 24 28 23 45 43 43 34 12 15 15 12 12 30 12 12 11 10 12 12 12 12 12 17 32 13 13 12
46 53 53 56 57 53 48 55 66 57 40 42 30 20 23 18 16 22 28 52 46 43 22 9 11 11 12 12 12 11 11 10 10 15 18 20 16 14 14 14 25 60 20
40 51 51 53 57 55 50 55 57 58 53 62 67 25 20 16 13 22 39 52 53 41 21 10 10 10 10 10 10 10 10 10 18 43 61 52 49 46 34 89 94 61 15
39 33 48 50 56 58 53 53 53 65 52 60 58 61 18 18 13 19 49 54 49 44 27 10 10 10 10 10 10 10 10 13 17 32 83 65 80 77 24 15 14 14 14
37 29 33 41 57 58 57 52 55 51 58 60 48 64 22 21 14 22 58 66 60 50 38 12 10 9 9 10 11 12 16 16 16 15 13 19 13 11 12 16 18 16 14
46 44 30 35 56 65 58 54 52 55 55 53 63 42 29 27 16 28 72 89 73 56 44 23 11 10 10 11 13 16 18 19 18 15 12 14 13 13 15 17 17 18 18
49 51 60 56 61 91 78 61 58 55 58 59 68 36 23 34 23 36 71 81 74 59 50 38 13 11 11 13 15 17 20 21 21 19 16 18 17 18 19 19 19 19 19
48 46 54 72 71 89 88 74 68 63 65 63 61 46 32 36 39 37 67 72 80 68 55 45 20 12 12 14 17 19 21 21 22 20 22 25 26 24 23 23 22 20 20
20 43 42 50 68 82 83 79 74 68 69 62 60 54 48 39 50 60 66 71 77 75 60 48 36 13 12 15 18 20 22 22 22 24 24 26 27 26 25 25 24 22 19
13 14 30 38 49 68 80 75 75 68 70 67 62 61 64 50 46 60 71 72 76 84 68 57 46 20 13 13 17 20 22 22 23 24 23 26 26 25 24 24 24 23 21
14 17 20 27 40 47 62 73 76 74 70 70 66 66 61 61 50 64 71 83 76 80 80 66 55 43 15 13 15 18 20 20 22 22 23 23 24 23 22 21 20 19 18
14 14 26 43 56 61 56 48 56 73 73 71 70 67 62 60 59 50 55 73 88 82 80 74 68 56 41 15 14 16 18 18 18 17 19 19 19 19 18 17 16 15 14
19 14 15 23 49 69 72 66 56 53 65 65 72 67 67 65 64 56 41 44 69 83 88 87 80 75 58 32 16 16 17 17 19 18 19 18 17 16 16 15 15 15 14
12 15 17 15 26 44 72 83 66 63 61 74 73 71 67 64 70 67 59 50 53 62 80 92 86 81 77 57 27 17 17 18 19 18 19 19 17 16 17 17 17 17 17
7 9 11 15 15 28 46 69 82 78 64 72 74 75 72 68 66 64 60 65 66 66 65 64 63 67 78 76 52 28 20 21 21 21 20 22 22 20 19 20 20 21 22
7 6 6 8 11 15 20 49 70 82 83 84 81 73 74 78 74 75 69 64 67 65 71 74 67 59 70 88 70 43 26 23 23 25 25 25 25 26 26 24 24 24 24
8 8 7 7 6 8 13 16 42 68 82 89 85 81 77 71 68 73 75 72 68 66 61 74 59 59 61 77 89 69 44 28 26 25 28 28 28 26 27 30 31 33 33
8 7 7 7 7 7 7 10 14 24 59 66 94 93 84 81 76 69 68 66 66 73 73 64 86 57 54 64 94 92 67 46 35 28 28 29 29 30 31 33 36 38 38
7 7 7 8 7 7 7 7 9 13 15 34 53 88 95 91 90 89 82 75 81 78 84 84 80 78 78 73 77 96 84 68 51 44 44 32 38 35 38 40 40 44 45
16 13 12 10 12 10 8 8 8 8 12 14 28 48 81 93 92 91 90 88 87 88 84 80 80 78 85 82 86 77 86 78 80 73 56 48 59 46 64 69 40 43 49
26 24 19 20 16 16 12 11 9 9 9 9 13 22 40 69 76 81 88 93 91 95 86 87 89 94 97 92 86 80 74 87 87 74 74 83 82 57 67 76 54 46 47
38 37 32 26 27 23 22 18 16 13 12 10 9 15 23 48 74 84 89 94 90 97 98 92 99 98 94 97 87 87 87 84 77 77 77 66 64 59 56 57 63 65 56
38 39 40 37 31 29 31 29 23 22 18 14 11 10 23 41 66 87 96 83 84 99 85 81 81 76 92 99 97 96 97 81 74 69 64 60 50 43 43 46 45 65 71
46 43 43 46 44 42 40 38 31 26 24 19 15 12 11 31 49 84 89 84 93 86 93 93 82 80 69 84 94 94 96 82 64 60 59 53 44 42 38 41 46 54 66
68 62 55 54 53 48 56 51 42 36 38 31 22 19 12 14 39 53 76 83 92 87 87 93 89 76 82 90 93 78 61 78 75 69 62 55 54 43 42 42 56 58 68
77 74 62 62 70 65 66 58 47 36 34 36 33 29 29 30 24 42 58 76 87 95 91 98 93 94 94 88 71 66 68 62 56 63 64 55 51 50 52 39 67 77 85

GFSSE_700_rhum_123.txt.gz
RH
54 58 51 54 56 53 46 43 50 46 28 23 19 18 19 17 20 22 23 46 42 44 25 12 15 12 11 81 31 25 10 10 9 9 10 11 11 15 26 17 13 11 10
44 52 52 54 60 56 49 48 57 52 40 38 30 17 19 16 14 16 30 48 48 37 15 10 11 11 11 13 21 12 10 9 10 14 13 12 12 13 13 15 23 17 13
46 43 54 51 59 62 52 51 61 58 50 56 57 37 16 15 12 16 37 48 47 38 14 9 9 9 10 11 11 10 10 11 16 28 35 24 21 20 45 83 70 17 11
42 38 47 48 56 63 57 59 53 62 56 60 60 76 22 16 13 16 41 52 49 42 22 10 9 8 8 9 9 10 10 11 15 37 69 50 66 74 50 31 14 14 13
27 27 34 40 53 65 69 60 56 58 56 62 56 57 46 20 13 18 48 57 57 50 37 11 9 8 9 9 9 10 12 13 14 16 49 40 31 13 12 17 17 15 13
31 34 32 34 46 71 73 65 57 58 57 64 62 44 47 26 15 20 69 72 70 56 45 31 10 8 8 9 10 11 14 16 16 14 14 11 11 11 13 16 16 17 16
31 42 44 44 56 65 78 66 62 58 60 58 66 53 37 26 22 21 57 83 79 62 53 42 14 9 8 10 12 14 16 17 16 16 14 14 14 14 15 17 17 17 17
23 47 50 59 68 59 82 79 66 64 66 63 66 70 48 29 32 24 54 77 84 77 59 47 30 11 9 9 12 14 16 19 19 21 19 20 21 21 21 21 21 20 18
14 31 49 50 67 77 75 90 81 73 69 67 65 64 52 39 35 37 47 73 86 83 67 56 47 15 10 10 12 14 15 17 19 22 24 24 25 25 24 23 23 23 21
15 11 24 47 46 62 79 92 90 81 76 73 68 60 55 53 42 56 62 70 73 78 80 61 53 44 12 10 12 14 14 16 18 18 24 24 24 25 24 24 23 22 22
14 14 13 16 39 45 56 75 82 76 77 72 71 67 61 58 60 47 71 73 74 76 84 75 62 52 37 13 11 13 14 15 16 15 20 20 21 21 22 21 20 19 18
18 14 14 15 16 31 40 47 58 71 72 74 74 72 68 64 61 60 55 74 81 78 80 82 71 64 54 36 15 12 12 13 14 14 16 14 15 15 15 15 15 14 14
15 19 18 14 18 27 34 47 55 58 57 59 72 75 73 71 64 61 60 52 59 80 82 80 81 77 69 55 35 16 14 13 13 14 16 15 15 14 14 13 13 12 12
7 8 12 17 15 17 30 46 58 55 59 60 51 66 67 75 68 63 64 60 47 39 69 86 90 89 83 73 58 34 18 16 17 16 17 16 16 16 16 16 15 15 14
6 6 6 7 12 16 16 23 34 50 59 71 66 59 60 76 71 68 61 64 65 56 49 58 72 87 78 76 74 57 35 21 21 24 20 20 20 18 18 18 19 18 17
8 7 7 6 6 7 12 16 20 36 52 70 73 72 62 76 78 74 69 68 64 63 62 64 66 66 64 67 61 77 53 38 25 25 25 25 26 24 24 22 22 24 25
8 8 8 8 8 7 6 7 13 16 39 63 78 75 66 72 81 78 74 76 73 71 70 65 63 68 70 62 58 58 78 68 47 34 34 26 27 29 30 28 28 30 32
9 8 8 8 8 8 7 7 6 8 14 30 61 79 75 71 73 84 79 71 70 71 72 78 74 65 62 64 62 59 70 86 66 49 40 44 30 32 28 33 31 34 36
7 6 6 6 6 7 6 6 7 7 6 10 20 49 68 70 70 75 82 85 80 76 74 74 80 78 80 76 67 59 68 100 90 65 57 46 51 45 38 48 37 56 43
13 14 12 10 8 12 10 7 7 6 6 6 7 14 31 51 68 69 80 86 93 90 83 83 88 82 80 81 79 73 75 80 95 88 76 50 68 59 54 65 48 68 70
24 24 24 22 21 20 20 18 12 9 8 7 7 7 13 17 38 60 77 91 92 91 89 88 87 89 90 89 89 90 92 84 83 83 77 83 78 69 69 78 70 60 71
30 30 30 31 30 28 29 26 24 18 14 12 9 8 8 12 15 37 56 82 99 97 92 90 93 84 90 93 96 96 100 93 75 74 79 86 80 82 81 77 64 55 56
33 32 33 34 34 37 38 37 34 28 20 18 16 12 10 10 11 16 44 58 84 92 91 96 93 95 96 98 88 87 100 91 86 92 88 78 75 68 64 58 48 42 41
39 42 41 39 39 47 49 49 45 37 27 24 23 21 17 14 13 12 24 43 69 85 92 95 89 82 84 98 86 83 81 99 99 98 90 75 72 70 66 55 46 49 46
39 46 41 40 44 62 60 58 55 50 42 40 34 27 23 20 16 14 13 24 51 85 89 93 86 99 87 86 84 84 79 86 95 97 94 80 86 62 60 58 46 43 42
49 52 56 56 62 67 69 72 63 63 60 54 47 43 40 38 26 28 16 18 34 56 85 98 99 99 92 98 93 90 85 94 97 96 88 78 74 62 58 53 48 46 42